GFSGBSN_925_thetae_000.txt.gz
Theta_e
318 318 317 316 316 314 312 312 312 312 312 311 311 312 312 312 312 312 312 313 314 314 314 315 313 312 313 314 312 315 314 314 318 319 322 327 324 322 326 323 324 325 325 324 322 322 322
317 317 318 316 316 315 314 312 312 312 312 312 312 312 311 312 312 312 312 312 312 312 314 314 313 312 312 314 310 311 311 311 317 319 322 326 325 320 323 324 325 324 325 325 322 321 318
317 316 316 316 316 315 314 312 312 312 312 312 312 312 312 311 311 311 312 312 312 312 311 311 311 311 312 312 310 311 312 311 311 319 321 326 329 323 323 327 323 325 327 323 320 320 321
317 316 314 314 315 315 314 313 312 312 313 313 313 311 310 310 309 311 311 312 312 312 310 310 310 311 311 310 309 310 311 314 312 319 320 328 328 323 324 322 319 322 321 325 322 319 318
316 316 316 314 313 315 315 314 312 312 312 312 312 311 311 311 311 312 311 310 311 310 312 309 310 310 312 310 311 310 310 311 317 319 323 327 325 325 326 326 324 320 325 320 320 316 318
315 316 316 316 314 314 314 314 313 312 312 312 313 311 309 309 311 311 312 310 309 309 309 309 309 310 308 311 311 310 309 310 316 318 322 329 328 328 327 327 335 327 324 321 320 319 317
314 315 315 316 313 314 311 314 313 312 312 312 310 309 308 308 309 312 313 311 308 309 309 310 310 310 311 309 312 311 311 311 315 319 326 330 332 334 329 330 326 322 321 323 318 315 316
314 314 314 315 315 313 312 313 312 311 312 312 310 311 309 309 312 314 312 309 307 309 310 309 311 309 310 311 315 312 311 316 319 316 324 331 331 329 325 326 328 321 321 320 319 317 315
314 314 314 315 315 314 312 312 311 310 311 311 310 309 309 311 313 314 310 308 308 310 312 311 310 312 311 311 314 314 313 316 319 314 324 329 331 327 328 324 326 322 322 323 323 317 316
315 314 315 314 315 315 314 311 310 311 310 310 307 308 309 312 313 313 312 309 310 308 313 313 311 311 312 312 315 314 313 318 320 316 324 329 327 330 330 330 327 331 319 320 319 319 321
316 316 316 316 315 315 315 314 312 309 309 309 307 308 309 312 313 314 313 310 309 310 313 311 312 311 312 313 315 317 313 317 321 320 325 329 329 331 332 330 326 330 319 320 319 318 316
316 316 316 316 316 315 315 315 315 312 309 307 307 307 309 311 312 313 313 310 310 315 316 313 314 313 314 313 317 317 318 319 320 321 323 324 324 327 330 327 323 320 318 316 314 314 320
315 316 316 316 316 316 315 315 315 315 310 308 308 309 309 311 314 313 311 311 314 318 313 316 315 314 315 316 318 319 319 320 323 325 326 321 327 320 323 321 316 318 320 326 324 322 323
316 316 316 315 316 316 316 315 315 315 313 310 310 310 311 311 314 310 311 312 320 318 314 315 316 315 317 317 319 319 323 326 323 319 325 327 330 318 314 324 323 320 319 321 327 324 321
316 316 315 315 315 316 317 315 314 315 314 311 310 311 311 312 313 311 311 316 320 320 318 319 317 316 319 318 322 324 322 324 324 319 323 326 326 312 313 312 321 316 319 316 319 317 321
316 315 314 314 314 315 317 316 314 314 314 311 310 309 311 312 314 312 313 317 322 321 318 317 318 318 323 320 324 322 324 324 325 320 315 317 316 315 312 311 310 314 313 320 317 327 326
316 315 314 314 314 314 316 316 314 314 314 310 309 312 314 313 314 316 318 316 323 319 318 320 321 321 321 320 323 322 322 323 321 317 315 313 314 318 312 314 314 313 314 312 315 316 321
316 314 314 313 314 314 316 314 314 314 313 309 308 316 314 314 320 321 321 326 321 323 324 324 321 321 321 319 323 324 325 322 319 320 321 317 314 316 317 315 311 311 312 313 318 317 312
315 315 314 313 313 313 314 314 313 313 313 308 309 318 314 315 325 324 324 323 323 324 325 325 320 320 317 318 325 324 325 320 320 321 322 318 318 322 324 320 317 316 313 311 311 311 313
315 315 313 313 312 312 313 313 312 313 312 309 311 319 318 317 317 320 324 324 326 323 324 323 320 319 320 322 321 322 323 320 319 320 321 319 318 318 323 321 317 319 315 311 314 315 314
316 314 313 313 312 312 312 312 313 313 312 310 307 315 315 318 317 316 320 324 326 325 322 321 323 320 321 323 321 322 319 318 317 319 316 317 320 317 313 316 317 317 317 312 314 315 318
315 314 313 312 312 311 311 312 313 313 310 309 310 310 309 310 311 315 315 319 319 318 320 323 323 320 320 322 321 322 319 320 319 316 316 314 316 313 312 311 312 315 316 312 314 313 313
315 314 313 312 311 311 311 311 312 312 309 306 306 307 309 310 310 313 316 317 317 315 315 316 318 319 315 313 311 312 310 310 314 316 314 312 311 313 316 312 313 313 310 314 313 312 313
315 314 313 312 311 310 310 311 312 312 310 309 309 306 308 312 311 312 313 313 314 312 315 310 310 316 309 305 308 309 310 310 310 308 308 310 309 309 309 313 312 311 312 308 310 311 311
315 314 312 312 310 310 310 311 312 312 311 308 309 306 305 309 308 309 310 308 306 306 308 308 306 305 305 307 313 321 315 314 312 308 308 308 310 312 314 312 313 317 311 313 315 316 313
314 315 313 311 310 309 310 311 312 312 312 308 309 309 303 307 309 307 307 307 307 306 306 305 304 303 306 311 313 321 323 320 314 313 308 308 308 312 309 316 318 315 313 310 313 318 311
314 315 312 311 310 309 310 311 312 312 312 311 310 311 306 307 306 307 307 308 304 305 304 304 305 307 307 311 315 316 316 312 314 314 312 311 311 313 316 317 315 312 312 311 317 315 310
313 314 312 311 309 309 310 311 312 312 313 313 311 311 310 306 308 309 308 306 306 307 308 304 309 308 308 314 315 313 314 312 313 311 310 310 311 312 312 316 318 310 312 315 310 306 306
310 314 312 311 309 309 309 310 311 311 313 313 311 311 311 306 308 309 309 308 308 307 303 303 309 307 308 310 309 308 312 308 311 317 309 314 311 312 312 313 310 308 310 306 305 306 305

GFSGBSN_925_thetae_003.txt.gz
Theta_e
319 318 317 318 317 316 315 313 312 312 312 312 312 311 312 311 312 312 312 312 313 314 314 314 313 313 314 316 314 316 313 312 317 320 319 323 328 324 330 327 323 324 325 324 322 323 323
318 318 316 316 316 316 316 315 313 312 312 313 313 312 312 311 311 312 312 312 312 314 314 313 313 312 313 315 311 312 313 311 312 319 319 322 326 322 325 326 328 325 326 326 324 325 321
316 317 316 315 314 315 315 314 313 312 312 313 313 313 313 311 312 311 311 312 312 313 312 311 311 312 312 312 310 310 310 311 311 316 319 321 325 323 324 327 323 325 328 326 324 323 325
316 316 317 316 314 314 313 314 313 312 312 313 313 313 313 311 311 311 312 312 313 312 310 310 310 311 311 310 310 310 311 312 313 311 318 320 323 325 325 322 323 328 324 332 326 319 319
316 316 316 316 316 315 315 315 315 313 312 312 313 313 313 311 311 310 311 312 312 312 311 309 309 310 311 309 311 309 309 310 313 316 319 319 324 328 325 326 326 324 333 328 327 320 321
315 315 315 315 316 315 315 314 314 313 312 312 312 312 312 309 310 310 312 313 310 311 310 309 309 310 310 311 311 310 310 310 312 318 320 323 328 330 329 331 337 326 329 323 324 320 317
314 314 315 315 315 315 313 314 313 313 312 312 311 311 311 309 309 309 311 314 311 311 309 309 309 309 311 309 311 311 310 310 311 319 320 323 330 333 330 330 326 322 325 326 323 317 317
314 314 315 314 314 315 314 313 313 312 311 311 310 310 311 310 309 311 313 310 308 307 309 308 309 309 309 311 314 312 310 312 315 319 318 325 332 329 326 327 325 322 324 324 320 317 317
314 314 314 315 314 315 315 314 311 309 311 310 309 310 311 308 310 312 313 311 308 309 309 310 308 310 311 309 313 314 311 313 318 315 319 325 328 327 328 328 331 324 325 323 326 319 316
314 314 314 315 315 315 315 315 314 310 308 309 309 309 309 308 312 314 312 309 308 307 311 312 310 309 311 312 313 312 311 314 318 315 316 326 326 328 329 329 328 332 320 323 321 324 328
314 314 315 316 316 315 315 315 315 315 310 308 307 308 308 308 312 313 311 308 307 306 315 312 311 309 311 312 313 314 312 314 319 315 319 327 328 328 330 329 326 329 323 325 322 321 316
313 314 315 316 316 315 316 315 315 316 315 311 310 307 308 309 311 311 312 309 309 312 315 314 312 313 313 313 314 315 314 314 318 316 317 325 323 329 329 325 326 315 320 320 316 316 322
313 314 315 316 316 315 316 316 315 316 316 315 311 309 308 308 314 312 310 309 313 316 311 315 314 313 312 312 313 315 315 316 321 320 320 324 329 325 327 324 319 320 327 332 329 324 326
313 314 315 316 315 315 316 316 316 315 315 315 313 310 309 309 311 310 310 311 317 316 311 313 313 313 314 313 316 316 316 316 320 319 319 327 332 323 323 325 324 326 327 329 331 326 323
314 314 315 316 315 315 315 315 317 315 315 314 311 309 308 309 311 311 309 314 316 316 311 315 313 313 314 314 317 317 317 316 318 319 319 323 326 316 319 317 322 320 327 318 319 316 323
314 314 316 315 314 314 314 315 317 314 315 313 309 308 311 311 311 309 309 316 317 314 315 312 313 313 313 315 316 317 319 317 320 319 316 321 319 317 311 314 311 320 317 325 318 326 327
314 314 316 314 314 314 314 314 315 314 314 312 310 309 313 313 310 313 314 314 317 319 314 314 317 318 316 316 316 319 317 323 322 320 315 312 316 317 312 315 314 316 320 316 316 318 324
314 315 316 314 313 313 313 314 314 314 314 309 306 315 314 312 316 315 318 316 317 318 318 317 317 320 319 315 315 320 322 322 322 321 317 312 314 316 315 314 312 312 316 317 320 318 313
315 314 315 314 313 313 313 313 314 314 314 308 308 316 315 314 321 320 320 320 321 322 323 322 319 319 316 318 324 323 324 320 320 321 319 316 317 321 322 318 316 315 311 312 312 312 314
311 315 314 315 313 313 312 312 313 313 314 309 308 319 318 315 317 321 325 323 325 323 324 324 318 317 318 320 320 322 324 321 320 320 320 317 316 320 324 320 316 317 313 310 315 316 315
309 315 315 315 313 312 312 311 312 312 313 309 305 312 315 318 319 319 321 323 324 325 323 322 322 317 320 322 321 322 322 318 318 321 317 318 320 316 313 317 316 316 316 312 314 316 319
306 313 315 314 312 312 311 311 311 312 312 308 309 308 307 311 310 318 319 324 323 321 322 324 323 317 319 322 321 321 319 320 321 315 317 314 317 313 312 312 314 317 315 314 313 312 313
304 308 315 315 312 312 311 310 310 311 311 306 305 305 307 311 310 314 317 320 320 318 318 313 318 317 320 316 314 315 315 314 317 314 312 316 312 315 318 312 311 315 311 313 314 311 314
304 306 314 315 312 311 310 309 310 311 311 307 306 305 307 313 311 313 312 315 318 315 319 310 311 315 309 306 307 309 310 310 315 309 309 313 314 311 311 311 314 314 310 311 313 309 308
304 306 311 314 312 311 310 309 309 311 311 311 307 306 304 309 309 309 310 310 308 309 307 308 306 305 304 308 318 319 318 315 312 308 308 308 311 313 314 312 312 315 310 311 313 313 310
303 305 308 314 312 311 310 309 309 310 311 310 306 308 301 307 308 307 307 307 309 309 307 306 304 304 307 312 316 323 325 318 315 312 308 309 309 315 311 314 315 314 312 310 312 317 311
302 304 306 314 312 311 309 308 309 310 311 310 308 308 304 307 305 305 307 308 304 304 307 305 306 308 307 313 314 316 316 312 316 314 313 312 311 314 316 316 314 312 311 309 318 316 309
300 302 304 313 312 311 309 308 310 311 311 311 309 309 307 306 307 308 307 305 305 304 308 304 309 308 310 316 317 314 314 311 312 309 310 312 313 313 313 315 316 309 312 315 311 305 305
300 302 303 311 312 311 309 309 309 311 312 311 309 309 310 305 308 308 308 307 306 307 302 302 308 306 307 309 308 307 311 308 311 316 308 313 310 312 312 312 308 307 309 305 304 305 305

GFSGBSN_925_thetae_006.txt.gz
Theta_e
317 318 318 317 315 318 317 315 314 313 313 313 313 313 312 312 311 311 311 311 312 314 313 314 314 314 316 317 317 316 313 312 315 320 321 318 325 328 333 332 329 329 328 327 327 327 326
316 317 317 317 316 315 314 317 316 313 313 313 313 313 312 312 312 309 309 309 312 313 314 313 313 313 314 316 313 313 314 313 312 318 320 318 324 325 326 330 331 328 328 328 327 328 328
315 316 316 317 316 315 314 313 314 312 313 312 313 313 312 312 312 313 309 310 312 313 313 313 312 313 313 313 311 311 310 312 312 314 319 319 319 327 326 330 329 329 330 329 329 328 329
314 315 316 316 316 316 314 313 313 312 313 312 313 314 313 312 311 311 310 311 312 312 312 311 311 312 312 311 311 311 311 312 312 312 316 318 318 323 329 327 330 332 332 333 329 329 328
314 315 316 315 316 316 316 314 314 315 314 312 312 313 312 313 311 309 308 310 312 311 312 311 311 311 312 310 311 311 311 311 313 313 313 317 318 324 328 329 333 333 335 332 329 328 328
314 315 314 315 315 315 315 315 315 311 314 312 312 312 312 312 311 310 309 310 313 311 311 310 310 311 310 311 311 310 310 310 313 316 317 319 320 328 331 331 337 333 333 330 331 328 324
314 313 314 314 315 314 314 315 313 312 313 312 311 311 311 311 311 309 309 311 310 312 310 310 310 309 311 310 311 311 311 310 312 316 319 319 321 327 329 330 329 326 330 331 328 325 325
313 313 314 314 314 314 315 315 314 310 311 311 310 310 310 310 311 310 310 313 311 310 313 309 309 309 311 310 313 312 311 312 313 316 319 319 323 325 328 329 330 329 329 330 328 323 324
313 313 314 314 315 315 315 315 314 313 309 310 310 310 310 311 310 309 312 313 311 308 310 310 309 310 310 309 313 313 312 311 313 315 319 320 322 324 329 330 330 329 329 328 329 325 324
313 313 314 314 315 315 315 315 315 315 313 308 309 309 309 310 309 312 314 311 309 307 310 311 311 309 310 311 312 310 311 311 315 315 318 317 320 327 329 331 330 331 328 328 329 332 335
312 313 313 314 315 316 316 315 315 315 315 313 309 309 310 308 312 312 310 309 307 307 317 311 311 308 309 311 311 312 312 311 315 317 316 318 324 324 331 330 328 329 327 329 329 331 330
312 312 313 313 315 315 316 315 316 315 316 316 313 309 307 310 311 311 310 307 306 311 316 315 312 312 312 311 312 313 314 311 314 317 315 317 323 322 327 327 327 324 326 325 324 327 334
313 313 312 313 314 315 315 315 316 316 316 316 315 311 309 309 311 312 308 307 313 317 312 316 314 314 312 311 311 313 315 314 317 322 320 316 316 328 327 329 322 327 330 336 338 334 334
313 313 313 313 314 316 315 315 316 316 316 315 315 312 310 309 310 311 308 311 318 315 315 312 314 313 313 312 312 314 314 314 314 319 318 321 330 330 328 328 327 327 330 331 334 333 330
309 314 313 314 315 316 314 315 315 316 315 315 314 310 310 310 310 309 309 315 317 317 312 314 313 314 313 313 312 315 314 313 316 315 319 322 324 324 327 323 325 327 331 324 324 322 326
305 312 313 314 315 315 314 314 314 315 314 315 310 309 310 309 310 309 309 316 315 314 311 313 312 312 313 313 318 317 314 311 314 316 319 319 326 322 319 324 318 327 326 328 325 330 330
304 308 314 314 315 314 314 314 314 315 314 314 310 312 312 310 310 309 313 315 316 315 313 311 312 312 313 313 316 316 314 316 314 317 318 320 323 319 322 324 327 327 328 327 325 323 329
305 306 312 314 315 314 313 313 314 314 314 310 311 319 313 311 313 312 315 313 315 318 315 310 312 312 311 313 314 317 316 319 313 319 321 321 321 327 322 316 321 325 326 326 330 325 322
304 304 308 314 315 314 313 313 313 314 314 308 313 316 312 311 318 315 316 316 315 319 316 313 317 315 313 314 316 317 318 315 317 320 323 320 322 326 325 321 316 323 323 327 324 319 324
305 303 306 313 315 314 313 312 312 313 314 311 313 320 317 315 316 319 320 319 321 319 317 320 319 319 317 315 315 318 320 321 322 319 321 318 322 322 325 325 323 324 322 324 326 327 325
306 303 304 308 314 314 313 312 312 312 313 310 311 318 317 318 317 318 319 321 320 325 322 323 321 320 317 319 321 321 321 322 321 322 322 321 323 322 321 320 321 322 322 320 322 324 325
304 303 305 306 312 314 312 312 311 312 312 310 313 314 313 318 317 320 319 322 320 323 321 321 325 320 320 321 322 324 324 324 324 322 323 321 323 317 319 319 320 321 321 322 323 323 322
302 303 304 306 308 314 312 311 311 311 312 309 308 307 311 315 314 320 320 322 321 319 319 319 322 320 321 321 320 321 321 322 322 323 324 322 321 321 323 316 317 322 321 320 320 319 320
301 303 303 305 307 313 312 311 310 310 311 309 307 308 312 315 315 315 317 319 320 321 323 314 314 321 316 311 314 318 318 317 320 317 322 322 320 318 320 315 324 320 314 319 320 320 319
301 302 303 305 307 313 312 310 309 310 311 310 308 309 311 315 313 311 315 316 312 310 311 311 308 307 310 311 320 322 319 321 315 310 313 320 322 323 321 324 319 315 314 314 318 321 315
301 302 301 302 304 312 311 310 309 309 311 311 310 307 307 310 312 308 310 314 317 315 310 308 305 306 309 315 324 326 329 326 321 316 309 314 321 324 318 321 323 317 314 312 314 317 313
300 301 300 302 303 309 311 310 309 309 311 311 309 307 308 310 309 307 311 315 310 311 310 309 308 310 312 318 322 325 325 318 323 323 321 317 317 324 322 326 319 315 313 313 319 320 313
299 301 300 301 303 306 311 310 309 309 311 311 309 309 310 310 311 309 308 307 307 311 315 309 315 313 315 322 321 318 320 315 316 316 319 321 319 319 321 325 326 312 312 318 316 313 312
299 300 300 302 302 304 311 310 309 309 310 311 310 308 308 309 311 308 308 307 306 307 307 304 315 312 316 318 316 315 316 313 316 318 311 317 318 319 318 319 312 310 312 310 312 311 310

GFSGBSN_925_thetae_009.txt.gz
Theta_e
317 316 317 318 318 316 317 318 316 314 313 313 314 314 314 313 313 313 313 312 311 311 314 314 314 314 315 317 317 317 313 314 317 321 322 322 319 323 330 329 330 330 329 328 327 327 327
318 315 316 317 317 317 315 315 317 316 314 314 313 314 314 313 313 313 311 311 312 312 311 314 314 313 315 316 314 315 316 316 315 319 321 322 320 320 323 326 329 329 329 328 327 328 327
318 316 314 316 317 317 316 315 313 316 315 313 313 313 313 312 313 313 313 312 312 311 310 313 313 314 314 314 312 313 313 313 314 314 318 320 320 321 323 327 324 328 330 329 328 328 328
317 314 314 315 316 316 317 316 314 312 313 313 313 313 314 312 312 312 312 313 312 311 311 311 311 313 315 312 312 312 312 312 312 313 314 317 319 319 322 326 327 327 331 334 329 328 328
315 315 314 316 316 315 316 316 316 314 313 314 314 313 313 313 312 312 310 310 311 312 312 311 312 313 314 311 311 311 311 312 312 313 313 314 318 320 322 328 332 332 335 333 331 328 328
315 315 315 315 315 315 315 315 315 315 315 313 315 312 310 311 311 311 310 309 312 312 312 312 311 313 312 312 311 311 311 311 312 313 314 315 319 322 323 327 334 333 334 331 333 328 329
315 315 315 314 314 314 315 315 315 315 313 312 313 312 310 310 311 313 311 309 312 312 311 312 312 312 312 310 312 312 311 311 312 313 316 316 321 323 323 325 327 329 332 331 331 328 330
314 312 313 313 313 314 315 314 315 315 314 311 313 311 310 310 310 311 312 311 312 311 314 311 311 311 310 311 313 312 311 313 312 315 314 318 321 319 319 323 326 330 330 331 329 327 327
313 311 312 313 313 314 314 315 315 315 314 312 311 310 309 309 310 312 312 309 312 309 312 310 311 311 311 310 312 313 312 313 313 314 314 318 319 318 318 320 330 331 333 330 330 328 326
315 312 311 313 313 314 315 315 315 315 315 314 310 310 308 310 311 310 311 312 312 310 311 313 312 311 310 310 312 310 312 313 312 314 313 316 315 319 319 322 327 333 329 328 329 331 332
312 313 313 313 314 314 314 315 315 315 315 315 313 308 309 309 312 313 311 310 309 308 319 313 312 309 310 311 311 311 310 313 314 313 314 314 317 319 321 325 326 332 329 328 330 332 334
306 307 313 313 313 313 314 315 316 315 316 315 315 311 309 311 311 311 310 308 307 313 318 315 311 312 312 312 311 312 311 312 312 313 316 314 316 319 320 324 328 329 330 331 330 330 333
304 305 307 314 313 312 313 314 315 315 316 315 316 314 309 310 311 311 307 308 313 318 313 316 314 313 313 314 313 313 314 314 316 316 318 316 314 316 321 324 326 330 332 338 335 335 332
304 304 304 308 314 312 313 314 315 315 315 316 316 316 311 309 311 310 307 310 317 316 314 313 313 313 314 313 313 313 314 315 314 314 318 322 323 318 317 327 328 330 332 331 333 332 330
303 304 304 304 308 313 313 315 315 315 315 316 315 315 311 310 311 308 310 314 317 318 314 315 316 316 316 313 310 310 314 316 314 313 321 321 323 319 321 327 326 329 334 325 329 327 330
304 305 304 305 309 313 314 315 314 315 316 316 313 309 310 311 310 309 311 315 316 315 312 313 315 314 315 314 313 313 315 315 314 312 312 318 324 318 325 326 324 328 327 330 327 330 331
303 304 304 305 308 313 314 315 314 314 315 315 310 312 313 310 310 310 312 313 315 314 312 315 314 312 312 312 313 314 315 313 312 313 314 318 318 320 322 329 328 330 330 329 328 328 330
303 304 305 304 306 311 314 314 314 314 315 313 312 316 312 310 312 311 313 311 312 315 314 315 311 312 312 312 314 316 315 313 312 313 319 320 321 323 324 318 325 328 329 328 330 328 326
302 303 305 303 303 306 314 314 313 314 314 310 314 316 311 310 316 314 312 313 313 314 317 315 313 312 311 313 314 316 316 314 314 313 323 322 324 330 329 323 324 327 326 328 328 326 328
301 303 305 303 305 306 314 313 313 314 314 309 313 319 313 313 314 317 315 317 317 315 317 314 314 313 313 314 314 316 317 316 317 314 321 321 322 325 327 326 326 329 328 326 326 328 327
301 303 303 304 305 308 313 313 312 313 314 312 312 318 316 316 315 316 317 319 318 320 318 315 320 316 315 314 315 318 316 319 317 318 319 322 325 323 322 323 324 325 327 326 328 327 328
300 302 302 303 303 304 309 313 312 312 313 310 313 313 316 319 316 318 317 319 319 318 321 321 323 320 317 317 314 315 318 320 322 321 319 321 326 322 324 322 323 324 324 325 326 327 326
299 301 302 301 304 305 306 313 312 312 312 311 311 312 313 318 320 320 321 319 320 318 320 320 322 322 321 317 317 320 318 320 322 322 324 323 325 324 324 321 323 325 323 323 324 323 324
299 301 302 301 302 303 304 313 312 311 312 310 309 311 314 314 315 317 317 319 320 318 319 320 320 321 321 317 319 321 321 316 322 323 321 323 324 323 325 320 327 322 317 321 322 323 323
298 300 301 302 301 303 304 311 311 311 311 311 308 310 314 315 314 315 314 320 313 315 318 314 315 314 314 318 322 324 323 320 316 312 322 323 324 326 327 328 327 325 316 319 322 322 321
298 300 300 301 301 302 304 309 311 310 310 311 310 310 311 314 314 312 317 318 317 315 311 310 307 309 311 318 324 327 328 325 323 318 314 321 323 327 325 324 328 319 316 315 319 322 320
297 299 300 301 300 302 303 305 310 309 309 310 310 311 310 313 312 310 313 319 315 314 315 310 312 314 315 319 325 329 327 325 326 325 320 323 324 326 326 329 325 317 315 315 319 323 315
297 299 300 301 300 302 303 304 310 309 309 310 310 310 311 314 314 311 310 310 311 313 318 311 317 317 320 324 325 323 324 322 325 324 321 323 322 325 325 327 329 316 315 319 318 315 315
297 299 300 301 300 301 303 304 310 309 309 310 310 309 308 312 314 310 310 309 307 308 310 311 316 317 322 322 321 319 321 317 320 323 316 326 322 322 322 324 315 314 315 313 315 315 315

GFSGBSN_925_thetae_012.txt.gz
Theta_e
317 317 318 316 317 318 318 316 316 316 315 315 314 314 315 314 313 314 313 313 313 313 314 315 314 314 315 316 316 317 315 314 316 320 322 322 323 320 325 327 328 330 330 328 327 326 326
316 317 318 316 314 317 317 317 316 315 316 316 316 314 314 314 314 313 313 312 313 313 314 313 314 314 315 316 313 314 316 316 316 317 320 321 322 320 320 323 327 328 329 330 328 327 326
317 316 317 317 314 315 317 317 317 315 313 317 316 315 313 313 312 313 314 313 313 313 313 314 314 314 314 313 312 313 315 316 315 315 316 320 320 323 320 321 323 325 327 330 329 328 328
318 317 316 317 314 315 316 316 317 316 314 313 315 315 313 312 313 312 313 312 312 312 311 313 311 314 314 313 313 312 312 312 313 312 313 314 317 320 322 320 324 329 327 330 329 329 327
318 317 316 315 314 314 316 316 316 316 316 314 313 314 314 312 313 313 312 310 309 309 312 312 312 313 313 312 313 312 312 312 312 312 313 313 314 319 321 322 326 328 331 330 331 328 327
318 317 315 315 315 316 316 315 315 316 316 315 314 314 314 311 312 312 312 310 309 310 312 313 311 312 312 312 312 312 312 312 312 312 313 315 316 320 322 323 326 328 332 328 331 329 328
315 316 315 314 313 315 314 314 315 315 315 315 314 312 314 310 311 312 312 311 312 312 312 311 312 311 312 312 312 311 312 312 312 313 314 315 318 320 320 320 322 325 327 331 327 329 328
313 313 317 314 313 313 313 314 315 315 315 315 313 312 313 310 310 310 312 311 312 311 314 312 312 312 311 311 312 312 311 313 313 315 313 316 318 316 317 318 321 322 327 330 329 328 328
308 311 315 316 313 313 313 313 314 314 315 315 314 311 311 309 310 310 312 311 310 311 313 313 312 312 312 311 313 313 312 312 313 314 314 316 316 315 316 317 321 321 325 329 331 329 328
307 307 309 309 313 313 313 313 314 314 315 315 314 311 310 309 310 311 313 312 312 310 313 312 312 313 312 311 312 311 312 313 313 313 313 315 314 314 317 317 318 322 323 326 331 334 335
305 307 306 307 307 311 313 313 314 315 315 315 315 312 310 308 313 312 312 311 311 309 319 312 312 310 311 312 312 311 311 313 314 313 313 315 315 314 316 319 317 321 323 325 330 334 333
304 305 305 307 306 306 311 314 314 315 315 315 315 314 309 310 310 311 310 309 308 313 317 315 311 313 313 311 312 312 312 313 312 314 313 314 313 314 315 315 316 319 321 326 331 333 337
303 304 305 306 305 304 305 313 313 314 316 315 315 315 309 311 311 310 309 308 313 317 313 316 315 313 312 314 313 312 313 313 314 315 314 315 315 313 313 320 316 321 326 334 335 338 337
302 304 305 306 304 303 307 312 313 314 315 315 316 315 311 310 311 310 308 311 316 314 315 313 313 313 316 314 314 313 314 313 312 313 315 316 316 316 313 317 321 323 325 329 337 338 329
301 303 304 305 304 302 306 313 313 314 315 315 316 316 312 308 311 308 311 312 315 316 316 315 314 316 314 315 315 314 314 314 312 312 316 319 318 316 318 315 321 322 322 322 332 325 327
301 302 304 305 306 303 305 312 313 314 315 315 315 313 312 309 310 309 312 314 314 314 313 314 318 314 313 314 313 313 313 312 313 313 312 314 321 319 319 320 322 325 325 332 330 331 332
301 302 302 303 305 303 305 307 314 315 315 316 311 313 311 310 309 311 313 313 312 312 312 314 315 314 313 313 312 312 311 311 313 314 312 312 315 320 317 327 326 327 330 330 330 329 330
300 301 302 303 304 303 305 305 312 315 314 315 311 315 311 311 313 312 313 312 312 314 313 314 314 315 312 313 312 313 313 315 313 313 315 313 317 323 322 319 324 327 329 328 329 330 327
299 300 301 303 305 304 304 308 312 314 315 311 313 315 312 310 314 314 312 313 311 313 317 316 316 313 311 312 312 311 315 315 314 314 316 314 318 325 323 325 326 330 329 327 327 326 328
297 299 301 303 304 303 303 305 315 314 315 313 313 317 314 312 313 314 314 316 314 313 314 316 315 312 312 312 311 316 315 316 314 314 317 322 324 321 330 328 326 330 328 326 327 328 327
297 299 300 302 303 303 305 305 312 314 314 311 312 316 313 314 313 314 316 315 317 315 317 316 314 313 312 313 313 313 315 316 317 315 317 316 327 326 325 327 327 328 327 327 328 327 326
296 298 300 302 303 301 303 304 307 313 314 311 313 313 314 317 313 314 315 317 318 315 318 319 317 320 318 315 313 314 315 316 317 317 315 317 324 324 322 322 324 328 327 326 326 324 324
296 297 299 301 302 302 302 303 305 313 313 311 311 312 312 318 319 318 319 318 319 317 315 317 318 316 321 316 315 313 313 315 318 320 321 320 323 324 322 321 322 323 323 325 325 324 325
296 297 299 301 302 301 302 303 304 312 313 312 310 311 314 315 313 318 319 319 320 319 318 319 320 318 321 318 319 320 318 315 315 319 319 321 323 324 322 321 324 321 316 319 321 322 320
296 297 298 300 301 301 301 302 304 311 312 311 309 310 314 317 315 314 313 318 315 314 318 318 319 314 315 317 323 324 323 323 318 313 316 319 324 326 326 326 324 324 316 318 320 321 319
295 297 298 300 301 301 301 302 304 311 311 312 310 309 310 313 314 312 312 319 319 315 313 312 308 308 313 316 324 324 325 324 323 320 316 322 322 327 321 325 327 318 316 314 318 321 314
295 296 298 300 301 301 301 301 304 309 311 312 310 311 310 313 313 310 312 314 317 314 314 311 310 312 314 321 324 324 328 322 326 324 323 324 324 327 325 326 323 317 314 313 320 320 313
295 296 298 299 300 301 301 302 303 310 311 311 310 311 310 313 313 311 311 310 313 313 315 312 314 316 319 322 325 324 323 324 323 321 323 324 325 325 324 327 327 314 314 318 317 314 314
295 296 297 299 300 300 301 303 304 307 310 310 310 310 311 310 313 311 310 310 309 309 311 310 316 318 321 322 322 319 320 316 322 326 320 324 322 324 323 322 316 313 314 313 314 313 313

GFSGBSN_925_thetae_015.txt.gz
Theta_e
319 318 316 316 318 317 315 317 318 316 316 315 316 315 315 315 315 313 313 312 313 314 313 313 314 314 314 316 316 316 314 315 317 321 322 323 322 321 321 322 324 327 328 328 328 327 326
320 319 318 317 316 317 315 315 317 317 316 315 316 316 315 314 314 313 312 312 312 312 312 311 312 313 314 316 312 313 315 315 316 320 321 321 322 320 320 318 320 322 325 327 328 328 326
318 320 319 318 316 315 315 314 316 317 317 315 316 316 314 312 313 312 312 314 313 312 312 311 312 313 314 312 312 312 313 316 316 315 315 320 320 321 322 322 319 323 326 325 326 327 329
315 317 318 319 317 315 316 314 315 316 317 316 315 315 314 312 311 312 312 313 314 313 312 311 310 313 313 311 312 311 312 314 314 314 313 313 314 316 321 320 320 324 327 328 325 325 327
310 312 315 317 318 316 314 315 314 316 316 316 315 314 314 313 310 313 312 312 310 310 310 311 310 312 312 311 312 313 312 312 312 312 312 312 313 316 319 322 323 322 326 327 327 324 327
307 309 312 314 315 316 316 315 315 316 315 316 316 314 314 314 310 311 312 313 310 309 311 313 312 311 311 311 312 312 312 312 312 311 312 314 313 316 318 322 323 322 324 325 327 326 326
305 306 308 310 313 317 315 315 315 315 314 315 315 316 314 314 310 310 312 311 310 311 312 312 313 309 311 311 311 312 312 311 312 312 314 313 315 317 316 318 319 318 320 325 325 324 327
304 305 305 308 310 311 315 314 313 314 314 315 315 315 312 314 309 310 312 311 310 310 313 312 312 311 311 311 313 312 311 312 313 314 312 313 316 314 314 316 319 320 321 322 321 324 326
303 304 305 306 308 308 310 315 313 313 314 314 315 315 312 312 309 311 311 310 310 310 311 312 312 312 313 312 313 313 312 312 313 314 313 314 314 313 315 315 318 319 320 320 322 323 325
301 303 304 304 306 307 309 309 314 313 314 314 315 314 313 310 310 310 311 309 311 310 313 313 312 313 312 311 313 312 312 312 313 313 313 313 311 312 315 316 316 318 317 319 321 324 331
301 302 303 304 305 306 308 308 309 314 313 314 315 314 311 307 309 310 311 312 312 310 315 311 312 310 311 312 312 312 311 313 314 313 313 313 313 313 314 315 315 316 315 317 319 323 327
300 301 302 303 305 305 307 306 307 312 314 315 315 314 311 307 311 311 311 310 309 313 312 314 311 313 313 313 313 312 312 312 313 315 314 312 312 313 313 312 313 316 317 318 321 324 330
299 300 302 303 304 305 306 306 306 310 313 314 315 315 311 310 309 310 309 308 311 314 311 315 313 312 312 313 313 313 313 315 316 315 315 316 314 313 313 316 315 315 317 320 324 326 327
298 299 301 302 302 305 306 305 305 306 313 314 315 315 311 310 310 309 308 311 312 311 312 313 313 311 315 312 314 314 313 314 314 312 314 312 309 314 313 314 315 316 316 322 322 327 329
298 299 302 302 302 303 304 305 305 306 313 315 315 315 312 311 310 310 310 312 309 312 315 315 313 315 316 314 312 314 313 314 311 311 310 313 314 313 313 313 314 316 317 315 325 328 331
297 299 300 301 301 302 304 303 303 304 313 315 316 313 310 310 310 308 311 312 311 313 314 314 318 315 315 313 312 315 313 313 312 310 310 313 315 313 313 313 314 317 317 321 321 333 334
297 298 299 300 300 304 303 303 303 309 313 315 313 314 311 310 309 310 312 312 312 312 313 314 316 317 315 312 312 312 311 312 312 312 310 312 314 315 310 318 317 319 323 321 324 325 333
297 298 299 300 300 303 305 305 305 306 311 315 312 317 311 309 313 312 313 312 312 312 312 313 313 315 315 312 312 310 311 310 313 312 313 313 316 318 317 317 319 317 322 321 325 330 328
297 297 298 300 300 303 303 304 306 307 312 312 314 314 310 310 313 314 312 312 312 313 314 315 315 314 313 313 315 311 313 313 312 314 314 313 316 318 321 322 322 322 324 323 323 326 330
297 297 297 299 300 303 303 303 303 305 314 312 314 316 314 312 312 313 314 314 315 312 313 314 316 315 314 312 312 313 312 315 313 314 314 312 318 321 327 328 327 326 323 324 324 328 326
297 296 297 299 301 303 301 303 303 304 314 311 312 315 312 314 313 314 314 315 316 314 312 314 316 316 314 311 311 313 313 314 314 315 314 312 319 318 318 319 324 326 326 322 322 327 327
297 296 297 298 301 302 302 301 302 306 314 312 311 314 312 312 312 313 314 317 317 315 315 319 317 315 314 313 311 312 315 314 316 315 314 314 320 322 327 325 326 328 328 326 325 327 325
297 295 297 298 300 301 302 300 303 305 313 312 311 311 314 317 314 315 315 315 316 316 315 314 317 317 316 316 315 316 312 312 315 315 315 317 321 326 322 327 325 328 327 325 325 324 323
296 295 297 298 300 301 302 301 303 304 307 312 312 311 313 317 316 317 316 315 316 317 317 316 314 315 317 317 315 317 318 313 317 320 315 316 320 323 322 318 322 318 316 322 324 323 321
296 296 296 298 299 301 302 302 302 303 306 311 310 312 314 317 315 315 314 312 316 316 318 318 318 311 313 317 320 323 322 322 318 315 317 317 321 325 324 323 320 319 315 317 320 320 318
296 296 296 298 299 300 302 302 302 303 307 312 309 311 311 314 315 313 311 316 316 316 314 316 309 308 316 317 322 324 323 324 323 322 316 319 319 323 314 319 325 318 315 313 315 320 314
296 296 295 297 299 300 302 301 302 304 307 312 311 310 311 313 313 311 310 310 315 314 315 311 311 314 315 320 324 324 324 319 325 323 324 325 324 320 322 323 319 317 314 312 320 318 312
296 296 296 297 298 300 301 301 302 304 306 312 310 311 311 312 312 311 310 309 313 313 315 312 315 315 318 321 323 324 322 321 320 319 323 324 325 326 324 326 323 313 313 316 313 313 311
296 296 296 297 297 299 301 301 302 303 306 311 309 310 311 311 312 311 311 310 309 313 314 311 315 317 318 321 318 321 320 316 318 325 318 325 322 323 322 323 315 312 313 313 311 311 310

GFSGBSN_925_thetae_018.txt.gz
Theta_e
317 318 319 320 319 318 317 318 315 316 318 317 316 315 315 315 315 313 312 311 311 313 313 312 314 313 314 316 316 315 315 316 322 324 324 322 321 321 320 320 320 322 325 326 327 328 327
312 314 316 317 319 318 317 318 317 314 317 317 316 314 315 315 314 314 311 311 310 311 311 311 312 313 313 313 311 311 315 315 317 321 322 321 321 319 320 319 319 319 320 323 325 326 326
309 310 311 313 316 318 317 315 315 314 316 317 317 316 315 314 313 313 311 312 312 312 312 312 313 312 314 312 311 312 312 313 315 317 318 320 321 321 321 322 318 319 323 322 322 324 326
307 308 308 310 312 313 316 316 314 315 314 317 317 316 316 315 312 312 312 314 314 313 311 310 311 312 311 309 311 310 311 312 314 315 314 313 315 319 319 320 319 322 322 326 323 323 324
305 306 306 307 308 311 315 317 315 314 314 316 316 316 316 314 313 310 312 313 311 309 309 312 311 312 310 310 312 310 312 312 312 313 313 313 312 315 316 323 322 320 322 322 325 323 324
303 303 305 305 306 307 311 312 316 315 314 315 316 316 315 314 313 310 312 313 312 309 309 313 312 313 310 311 312 312 312 312 311 311 311 313 313 314 317 321 324 322 321 320 321 324 324
303 303 303 304 305 306 308 309 312 316 314 314 315 316 316 314 314 311 313 312 309 311 312 313 313 311 309 311 311 312 312 311 311 311 312 312 314 315 314 316 317 318 317 319 319 321 323
301 303 302 303 304 305 305 308 309 310 314 314 315 315 316 314 314 310 312 309 309 309 311 311 312 311 310 311 312 312 312 312 312 314 311 314 315 313 312 313 317 318 320 320 318 318 321
299 299 302 302 303 304 305 306 308 309 313 313 314 314 315 312 313 311 312 311 310 310 311 312 312 312 312 312 313 313 311 311 312 314 314 313 312 311 313 314 316 316 318 318 318 317 317
299 299 299 302 302 303 304 305 307 308 308 313 313 314 315 314 311 311 311 311 310 310 311 312 312 313 312 313 314 312 312 312 313 314 312 313 312 312 314 315 315 317 316 317 318 319 320
299 299 299 300 301 303 303 305 306 308 308 312 313 315 314 311 307 310 309 310 310 310 302 309 312 310 311 313 313 312 312 313 315 313 312 313 312 313 313 313 313 315 314 316 317 319 319
299 299 299 300 301 303 303 304 305 307 306 307 313 315 313 309 310 309 310 310 310 306 306 314 311 312 312 313 314 313 312 312 314 315 313 312 312 312 312 311 313 314 315 315 316 319 322
299 299 298 300 301 302 303 303 304 305 307 307 313 315 312 309 311 310 311 309 308 303 309 315 313 312 312 314 313 313 314 315 317 317 313 314 314 312 313 314 313 313 315 316 316 318 317
299 298 298 299 300 302 302 302 301 305 306 306 312 315 312 308 311 311 309 311 306 308 312 313 312 312 313 312 314 314 315 314 312 313 315 316 315 313 312 315 316 315 315 315 314 314 315
299 298 298 299 299 301 301 299 305 306 306 306 312 314 311 310 311 309 310 313 311 309 313 313 312 313 313 313 313 314 313 313 310 313 314 314 313 312 312 312 313 314 317 313 316 318 324
299 299 298 299 299 300 301 303 304 304 305 308 312 315 312 309 310 309 311 313 310 313 313 313 314 314 314 312 312 313 311 310 311 311 309 311 310 312 313 312 312 313 312 315 315 320 321
298 298 298 298 299 300 300 303 305 304 304 305 309 315 311 310 309 310 311 312 311 313 312 314 314 316 314 312 311 311 310 311 310 310 310 310 310 313 311 313 313 314 315 315 313 316 330
298 298 298 297 299 300 301 302 303 304 304 307 313 310 310 309 311 310 312 312 311 313 312 312 313 315 316 313 311 310 311 310 310 310 311 310 313 313 313 312 312 313 313 314 317 318 318
298 298 298 297 298 300 301 302 302 303 303 311 314 313 310 310 311 311 312 312 312 313 313 314 315 314 313 313 313 310 310 310 312 312 312 312 316 317 316 314 314 318 315 316 317 319 325
298 298 297 296 298 300 301 302 302 303 305 310 312 314 312 312 311 313 313 314 314 312 313 313 314 314 315 314 310 312 312 314 313 313 314 313 316 317 318 324 321 321 317 318 318 320 321
298 297 297 297 298 300 301 303 302 303 306 311 314 313 311 312 313 313 313 315 315 316 313 313 313 315 317 314 311 311 311 313 314 315 315 312 316 316 316 317 319 321 319 321 323 321 323
298 297 297 297 297 300 301 302 302 303 306 312 314 313 312 311 312 314 314 315 316 316 315 316 315 316 315 315 310 311 313 313 315 315 315 312 315 316 322 322 321 326 322 324 322 319 318
298 297 296 296 298 300 301 302 301 302 304 311 310 310 312 313 313 314 315 315 315 315 315 314 315 316 316 314 312 310 312 311 314 316 316 316 316 320 327 326 326 330 325 323 321 318 317
298 297 297 296 297 299 300 301 301 303 304 307 311 310 315 316 314 314 315 314 314 314 316 315 314 316 314 314 314 315 316 313 313 315 315 317 317 322 325 325 323 319 323 322 322 320 321
297 297 297 296 296 298 300 302 301 303 305 309 309 311 312 317 315 315 315 315 312 313 314 316 316 313 312 316 319 320 319 320 317 316 318 316 319 321 322 321 319 318 315 321 324 323 318
297 297 297 297 296 298 299 301 301 302 304 308 310 312 310 315 315 314 314 311 315 315 314 314 311 309 314 318 322 324 325 320 322 321 315 315 317 321 313 320 324 318 314 312 314 319 314
297 297 297 296 296 298 299 301 301 302 303 307 310 311 311 313 312 312 313 311 312 313 315 312 312 314 315 321 322 323 321 318 322 321 324 323 321 319 319 322 318 316 313 311 321 317 313
297 297 297 296 296 297 298 300 301 302 303 306 310 310 312 312 312 310 308 311 312 313 315 313 315 315 319 320 322 323 323 317 319 318 321 322 324 324 322 322 319 313 312 316 312 311 310
297 297 297 296 297 297 298 300 301 302 303 305 309 311 311 311 312 311 310 310 309 311 313 311 314 316 318 320 318 320 323 317 318 323 316 323 320 322 319 319 314 311 313 312 309 310 309

GFSGBSN_925_thetae_021.txt.gz
Theta_e
309 310 311 312 313 315 316 319 315 316 315 316 318 318 315 315 315 314 314 314 312 313 312 312 313 313 313 314 315 314 316 318 324 325 323 322 320 320 320 319 319 321 323 323 324 326 326
307 308 308 309 310 312 314 315 319 315 316 314 317 318 316 314 315 314 314 313 312 313 312 311 312 313 313 311 309 311 315 315 319 324 323 322 321 319 320 319 319 318 318 319 320 322 323
305 305 306 307 307 308 309 313 315 318 314 315 315 317 317 314 314 312 313 313 313 313 312 311 312 312 313 311 311 311 311 313 313 319 319 322 321 321 321 322 319 319 320 319 319 321 323
304 304 305 305 305 306 307 307 312 312 317 314 314 316 317 316 315 312 312 313 313 313 311 310 313 312 310 308 310 310 311 310 312 314 313 314 319 319 321 318 319 321 319 323 319 320 321
302 302 303 303 304 306 306 307 308 311 312 316 313 315 316 316 315 312 311 311 313 312 310 312 312 311 309 309 312 309 310 311 312 313 313 313 312 315 316 321 322 321 322 321 321 320 323
301 301 301 302 303 304 305 306 306 308 310 313 315 314 315 315 315 313 309 311 313 310 309 312 312 312 310 311 311 311 310 311 311 310 311 312 314 316 318 321 321 320 320 319 319 322 321
301 300 301 300 302 303 304 304 306 306 309 311 314 314 316 315 315 312 311 312 310 310 310 313 314 312 309 310 311 312 311 311 311 310 311 311 316 317 316 314 316 317 319 320 316 317 318
300 300 300 300 300 302 302 304 304 305 308 309 310 314 315 316 315 313 312 310 308 308 311 310 311 311 311 311 312 312 311 312 312 313 311 313 314 312 311 311 313 316 318 319 316 316 317
300 299 300 300 300 300 302 303 303 305 306 308 309 313 314 315 314 313 312 310 310 310 309 310 311 312 311 311 313 313 311 310 312 313 312 313 312 311 312 312 313 314 315 315 316 315 315
300 300 300 299 299 301 302 301 304 304 306 307 308 308 314 315 314 312 311 310 310 310 303 309 311 312 312 312 313 312 311 312 313 315 313 314 313 311 311 313 313 314 313 315 315 317 317
300 300 300 299 299 299 301 302 303 304 305 305 307 306 313 315 311 310 309 310 310 307 302 308 313 310 312 313 313 312 312 313 314 313 312 313 312 312 312 313 312 314 313 315 316 317 316
300 300 300 300 299 299 300 302 302 304 303 302 304 306 310 311 309 310 308 310 310 305 304 312 311 312 314 313 314 312 312 313 313 315 313 311 310 311 312 311 311 313 313 313 315 316 318
300 300 299 299 299 300 301 301 302 302 302 302 303 307 308 310 310 308 310 309 310 305 308 313 311 311 311 313 313 314 314 316 316 317 314 314 314 312 312 313 312 313 316 318 319 318 316
300 300 299 299 299 300 300 300 300 300 305 306 306 306 306 310 309 309 310 310 302 307 310 311 311 312 311 311 313 314 314 313 314 314 315 315 314 315 312 313 313 313 316 317 316 313 312
300 300 299 299 299 299 300 301 300 304 305 306 306 306 309 310 309 310 310 312 307 307 311 312 311 313 313 312 313 313 314 312 311 312 314 314 312 312 312 312 313 316 316 313 315 315 319
300 300 299 299 299 298 299 301 302 304 305 306 305 306 310 310 310 310 311 308 309 311 311 311 312 312 313 313 313 312 310 309 311 309 310 312 309 311 311 312 312 313 312 317 316 316 315
299 299 299 299 298 298 299 302 302 303 304 305 305 307 310 310 310 311 312 311 310 312 311 312 312 314 313 312 312 311 309 309 309 309 310 312 312 310 312 314 314 314 315 314 312 313 315
299 299 299 298 297 298 300 302 302 303 305 305 306 307 310 310 313 310 312 310 310 312 312 312 312 313 315 312 312 309 309 309 308 309 311 310 312 313 312 311 311 311 312 313 315 311 311
299 299 299 298 297 298 300 302 303 303 304 305 310 311 310 310 309 311 312 312 312 313 313 313 313 313 313 315 314 309 309 309 309 309 311 311 314 314 317 312 311 315 312 312 312 314 313
298 298 298 298 297 298 300 302 303 303 304 306 309 308 311 310 310 310 313 313 313 311 312 313 314 313 315 313 312 311 310 311 309 310 312 311 314 316 316 318 314 315 314 313 313 315 314
298 298 298 298 297 298 300 301 303 302 304 309 309 310 308 311 311 310 311 314 314 316 312 313 314 314 316 316 312 313 311 311 313 314 315 312 314 314 314 314 315 317 315 314 315 314 314
298 297 298 297 297 297 300 301 303 301 304 311 312 312 310 311 311 312 312 314 315 314 314 315 315 314 314 317 312 309 310 310 314 315 315 312 312 314 315 317 317 319 317 315 314 314 314
298 298 298 297 297 296 299 300 302 301 304 306 310 310 309 313 313 314 314 315 314 315 314 314 313 314 316 316 313 312 309 310 312 316 316 313 314 318 324 322 320 323 321 316 316 316 318
297 298 298 297 297 296 299 300 301 302 304 306 307 309 313 312 313 314 314 313 314 314 315 315 314 316 315 312 312 312 311 313 311 314 314 316 317 319 323 323 328 323 322 317 316 319 318
298 298 298 297 296 296 298 300 301 302 303 305 309 309 311 315 313 312 313 314 313 312 313 313 314 313 313 314 316 318 316 316 314 312 314 315 318 323 325 322 321 316 323 323 323 322 320
297 298 298 298 296 296 298 299 301 302 302 305 308 310 310 314 315 314 314 315 314 314 314 314 312 310 312 317 319 319 320 319 319 319 312 314 316 321 321 322 324 316 312 317 319 326 318
297 298 298 298 297 296 298 298 300 301 302 304 307 311 309 311 312 310 310 311 313 312 312 312 312 313 314 318 320 321 318 316 320 320 322 319 321 323 320 322 316 315 313 311 320 316 312
297 297 298 298 297 297 297 298 300 301 301 304 306 310 311 311 312 310 309 311 313 312 315 312 314 315 318 320 320 321 320 318 317 316 320 321 321 322 321 321 317 311 312 315 311 311 310
297 297 298 298 297 297 297 297 299 301 301 303 309 311 311 311 311 310 311 310 309 311 312 311 314 315 317 318 317 318 322 316 315 318 314 320 317 318 317 316 312 311 312 311 308 309 308

GFSGBSN_925_thetae_024.txt.gz
Theta_e
306 306 305 307 307 308 309 310 312 314 316 318 317 317 319 317 314 314 314 314 314 313 312 311 313 313 314 313 315 315 316 317 322 325 323 321 319 318 319 318 319 321 321 322 321 319 322
304 305 305 305 306 306 307 308 309 310 314 315 316 314 316 318 316 313 313 313 313 313 312 311 312 313 313 308 308 309 314 315 323 323 322 321 319 317 320 319 318 317 318 317 318 319 319
303 303 303 303 304 304 305 306 307 308 310 312 314 316 314 317 316 314 312 314 313 312 312 312 312 312 312 311 310 311 310 312 315 322 321 321 320 320 319 321 318 319 320 318 318 318 318
303 302 302 303 303 303 305 304 305 306 308 310 311 315 314 316 316 315 313 314 311 313 311 310 312 311 308 308 308 310 311 311 312 315 313 316 320 320 321 318 318 321 320 321 317 317 318
303 302 302 301 302 302 302 304 305 305 306 308 310 311 314 315 316 315 313 312 312 313 311 311 312 310 308 308 311 309 310 310 311 312 314 313 314 315 316 318 320 320 321 320 318 317 319
301 300 300 301 301 301 302 302 304 305 305 306 308 310 313 314 315 315 312 311 313 311 310 310 312 311 309 311 311 311 310 311 310 310 311 312 314 315 315 317 318 318 320 319 319 318 316
301 300 300 301 301 300 300 301 302 304 305 305 306 309 310 314 315 315 311 312 311 311 310 309 312 312 310 310 311 311 311 311 310 309 313 311 316 318 317 313 315 316 318 320 318 317 317
301 301 301 301 301 301 300 301 302 303 304 305 306 308 309 313 315 315 311 312 310 308 310 309 310 311 311 311 312 311 311 312 312 312 310 312 314 313 312 313 315 315 316 316 314 313 315
302 302 301 301 301 300 300 300 301 303 304 304 306 307 309 311 314 314 311 310 309 309 308 309 309 310 311 311 313 313 310 310 312 311 311 312 311 310 312 311 313 313 313 312 312 312 312
301 301 301 301 300 300 300 300 301 302 303 303 304 304 306 308 313 313 311 310 310 308 299 305 311 311 311 312 313 312 311 311 312 312 311 313 311 311 311 312 311 313 311 313 314 314 314
301 301 301 301 300 300 300 301 302 302 302 303 304 304 304 307 311 312 311 310 309 304 301 308 312 310 312 311 312 311 311 312 314 313 313 314 312 312 314 312 310 312 311 313 314 315 315
301 301 301 301 300 300 300 301 301 301 302 303 303 303 304 306 311 312 310 310 308 300 305 312 311 313 314 313 313 312 313 312 312 314 313 312 309 311 310 310 310 312 312 313 314 316 317
301 301 301 300 300 300 300 300 301 302 302 301 301 304 305 306 311 310 309 308 308 305 307 311 312 311 312 313 313 314 314 316 316 316 314 315 314 312 312 312 311 312 316 317 317 318 315
300 301 300 300 300 300 299 300 302 301 301 304 305 306 306 305 306 309 309 304 306 307 309 311 309 310 311 311 312 313 314 315 314 315 315 313 311 312 312 312 312 313 314 316 318 312 310
300 300 300 300 300 300 298 299 302 303 303 305 305 306 305 303 307 309 308 309 307 306 310 312 311 311 312 312 312 313 314 313 311 313 315 315 311 311 312 311 312 315 316 312 317 316 318
300 300 300 300 299 299 298 300 302 303 303 305 304 305 306 303 309 308 308 308 308 309 310 310 311 311 313 313 313 314 312 307 311 310 308 310 313 309 310 311 312 314 312 315 315 317 318
299 299 299 299 299 298 298 300 302 304 302 305 303 306 307 309 307 310 311 308 309 311 310 311 311 311 311 313 313 312 309 307 308 308 308 310 312 310 312 314 313 316 316 316 315 316 311
299 299 299 299 298 298 298 301 302 304 302 304 305 306 309 309 308 310 312 309 311 312 311 311 311 312 312 311 312 310 309 308 307 308 311 310 313 313 310 311 311 311 312 313 314 310 311
299 299 298 299 298 298 298 301 302 304 302 306 308 308 310 307 309 311 311 311 311 312 312 312 312 312 313 314 314 311 308 308 308 309 310 310 314 314 313 312 312 313 313 312 312 312 310
298 298 298 298 298 297 298 300 301 303 303 306 306 307 310 309 309 311 311 312 312 311 312 312 313 313 312 316 313 313 310 309 308 309 310 310 315 314 315 315 312 314 313 313 313 315 312
298 298 298 298 298 298 297 299 301 303 303 307 308 306 306 308 310 310 310 311 312 314 312 312 314 314 315 318 315 314 310 310 310 310 311 312 314 313 314 314 312 314 314 315 314 312 312
298 298 298 298 298 298 297 299 300 302 303 308 309 311 310 309 310 310 312 311 312 314 314 314 315 313 314 316 313 311 311 310 311 314 315 314 313 314 315 314 316 315 316 315 313 312 312
298 298 298 298 298 296 296 299 300 302 303 306 306 310 310 311 311 312 312 312 313 313 313 313 312 314 315 315 313 314 308 309 311 314 316 315 313 317 319 317 317 321 316 316 314 313 312
298 298 298 298 298 296 296 298 300 302 303 305 306 309 312 313 312 312 313 313 313 314 315 314 313 314 314 313 313 311 309 310 311 312 313 316 315 316 320 322 328 322 321 315 315 314 313
298 298 298 298 298 297 296 298 299 302 302 304 306 309 312 311 312 313 312 312 312 313 314 314 313 312 313 314 317 315 316 314 313 313 313 314 317 321 324 323 323 318 322 318 317 317 313
298 298 298 298 298 298 297 298 299 301 301 303 306 309 309 312 311 311 311 314 315 314 314 314 311 310 313 317 317 318 316 315 317 317 311 313 314 319 321 323 324 316 311 318 318 325 318
297 298 298 298 298 298 298 297 298 300 301 303 306 309 309 310 310 311 312 313 313 313 313 312 312 312 312 316 320 316 319 316 319 318 320 319 319 321 323 321 317 314 311 317 324 319 310
298 297 297 298 298 298 298 297 298 300 301 301 305 309 310 311 311 310 309 311 312 310 313 310 313 313 315 318 320 318 317 315 316 314 317 317 319 321 320 320 316 311 312 315 311 308 310
298 297 298 298 298 298 297 296 298 300 301 300 305 310 311 310 310 310 310 309 310 310 311 310 314 314 315 319 316 319 322 316 314 317 313 318 315 316 315 314 310 311 311 310 307 308 308

GFSGBSN_925_thetae_027.txt.gz
Theta_e
304 305 305 304 304 304 305 305 306 307 308 311 314 315 318 317 318 317 314 313 313 313 313 311 312 313 312 312 315 315 315 317 322 324 323 320 318 317 319 318 319 322 321 321 321 318 319
304 304 304 304 304 304 303 304 305 305 306 308 311 313 314 316 316 317 314 312 313 313 313 311 310 313 312 307 307 309 312 318 323 324 323 320 319 316 318 318 318 317 318 318 318 318 318
304 303 302 303 303 302 303 304 303 304 305 306 307 310 311 314 316 317 315 313 313 311 312 310 311 311 311 310 310 311 310 313 322 322 322 322 319 319 318 320 318 319 321 319 318 318 319
303 302 302 302 302 303 301 302 301 302 304 305 305 308 310 311 315 316 315 315 313 311 312 311 312 310 307 308 309 308 310 311 313 317 318 320 320 320 321 318 318 321 320 321 317 317 318
301 302 302 302 303 303 303 302 302 301 303 305 306 306 307 310 313 315 316 314 313 312 312 312 312 308 309 308 309 309 310 310 311 313 313 316 317 316 317 320 319 319 319 320 319 317 319
303 303 301 302 302 302 302 301 301 301 302 303 305 305 306 309 311 314 316 312 313 313 311 311 312 311 308 310 310 310 309 310 310 310 312 312 313 315 315 318 318 318 319 318 318 317 316
304 304 302 302 302 302 301 300 300 301 301 303 304 305 306 308 308 314 315 313 310 311 310 308 310 310 310 310 311 310 310 310 309 310 314 312 316 316 316 314 314 316 318 318 317 316 314
303 302 303 303 302 302 301 301 301 300 301 303 303 304 306 307 308 313 313 311 310 310 310 308 309 311 311 311 312 311 310 311 311 313 310 313 315 313 313 314 315 316 317 318 315 313 313
302 302 303 303 302 302 301 301 300 301 302 302 303 304 305 305 307 309 312 311 309 309 307 307 308 309 311 311 313 312 310 309 311 311 311 313 311 310 312 312 314 314 316 315 313 312 311
303 303 302 302 302 301 301 301 301 301 302 302 302 303 304 305 307 311 312 310 310 310 300 305 310 310 311 312 312 311 310 311 311 313 311 312 311 311 311 313 312 314 311 312 313 313 313
303 301 302 302 301 301 301 301 301 301 302 302 303 303 304 304 304 308 311 309 309 304 300 306 311 310 311 311 310 311 311 312 313 313 312 313 312 312 313 312 310 312 310 311 312 314 313
302 302 301 301 301 301 301 301 300 300 302 302 302 302 303 303 304 304 309 308 306 306 302 313 311 313 314 312 313 311 312 312 312 313 313 310 309 310 311 311 310 311 312 313 314 315 318
301 301 301 301 300 301 301 301 299 300 302 302 303 304 303 303 304 305 309 307 308 304 307 312 312 313 313 313 314 314 314 315 315 316 314 313 315 312 311 312 310 312 316 317 318 319 316
300 300 300 300 300 300 300 300 299 301 303 301 304 305 305 304 304 305 307 308 305 307 309 309 310 311 312 312 312 313 314 315 314 314 316 315 311 313 312 313 313 313 314 317 317 316 313
300 300 300 300 300 300 300 298 300 302 304 303 305 305 305 305 305 304 308 311 307 307 310 311 310 311 311 310 311 313 313 313 312 314 316 313 312 310 311 311 311 314 315 312 315 314 318
299 300 300 300 299 299 299 299 300 302 302 305 305 304 305 305 303 304 306 310 307 308 310 309 312 310 311 312 312 313 312 308 311 310 312 310 311 308 310 311 311 314 311 315 315 316 317
300 299 299 299 299 299 299 299 300 302 304 303 304 306 305 304 304 306 310 308 310 309 309 310 310 311 311 312 311 313 309 307 307 308 309 309 309 308 311 312 312 315 316 315 314 315 315
300 299 299 299 299 299 299 299 300 302 303 303 304 308 305 308 305 304 311 309 311 311 310 311 310 310 310 311 312 312 310 307 306 307 311 309 310 310 309 309 310 310 313 312 316 315 315
299 299 299 299 299 299 298 298 299 302 302 304 305 308 307 305 309 310 310 311 311 312 311 311 312 312 312 311 312 310 308 307 307 308 309 309 312 311 311 311 310 313 313 313 313 314 315
299 299 299 299 299 299 297 298 300 301 302 307 305 309 306 307 308 310 311 311 313 310 312 312 313 312 312 314 312 312 310 309 307 308 310 310 312 312 314 315 314 315 314 313 313 315 314
299 299 299 299 299 299 297 297 300 299 303 307 306 306 305 308 308 310 309 311 312 312 311 312 313 313 313 315 313 313 310 309 308 309 310 311 314 313 313 313 313 313 314 314 314 313 314
299 299 299 299 298 299 297 297 300 300 303 305 310 310 307 308 310 310 311 309 311 313 312 313 313 313 313 316 313 311 310 309 310 308 310 312 315 314 315 314 315 315 317 315 314 313 313
299 299 299 299 298 298 297 297 299 300 303 304 305 307 309 309 310 311 310 309 310 312 312 312 312 313 315 313 313 312 313 309 310 313 313 315 314 316 318 317 319 322 320 316 315 313 313
298 298 298 299 298 298 298 298 298 300 302 303 304 306 311 313 311 311 310 312 312 312 314 313 312 314 313 312 313 313 313 313 310 311 311 314 315 316 318 321 328 323 318 319 315 315 313
299 298 298 298 298 298 298 298 297 299 301 302 303 308 311 312 311 310 311 312 312 312 314 314 313 312 312 314 315 315 314 314 311 311 311 311 315 320 323 322 321 317 315 319 316 318 314
298 298 297 298 298 298 298 298 297 299 301 302 304 308 309 309 311 310 311 312 313 312 313 313 311 310 313 316 317 318 311 313 314 315 310 313 314 319 319 323 323 317 313 317 317 323 316
299 298 298 298 298 298 298 297 297 299 301 302 303 306 309 310 309 309 310 312 312 313 314 313 312 311 312 316 317 317 314 313 317 317 316 318 317 318 320 324 316 313 310 315 320 317 309
298 298 298 298 298 298 298 296 297 299 300 301 302 308 309 310 309 310 308 310 310 310 314 310 313 312 314 315 318 316 314 313 315 313 315 314 316 322 320 320 317 310 315 317 311 308 308
297 297 297 297 298 298 296 296 297 299 300 300 301 304 308 308 308 310 310 309 310 310 311 310 312 313 314 316 316 316 318 314 312 317 311 317 313 315 315 314 310 310 309 309 307 306 306

GFSGBSN_925_thetae_030.txt.gz
Theta_e
305 305 304 304 304 303 304 304 304 304 305 306 307 308 311 313 315 317 318 316 314 313 312 312 311 312 313 315 317 315 315 316 321 324 324 322 322 321 322 321 322 322 321 321 322 322 322
304 304 303 303 304 304 304 303 303 302 303 304 305 307 307 311 312 315 316 315 315 314 311 311 310 313 312 310 308 310 313 318 322 323 324 322 322 320 321 321 321 320 321 321 321 321 320
302 303 304 303 303 304 304 304 304 303 302 301 303 306 306 307 310 313 315 316 315 314 311 310 310 312 313 313 310 311 311 315 320 323 323 322 320 320 321 322 320 321 323 321 321 320 320
303 304 303 303 303 303 304 303 303 303 302 302 302 305 306 307 308 310 315 317 314 313 312 311 312 311 313 308 310 309 311 313 318 319 321 322 320 321 321 320 320 321 321 324 320 319 320
303 305 304 304 303 304 303 303 303 302 302 302 302 304 305 306 307 309 313 316 314 313 313 313 312 311 314 308 310 310 311 314 315 314 315 320 320 319 320 322 322 321 323 322 321 318 319
305 304 304 304 304 304 303 303 303 302 302 301 303 303 305 306 307 308 311 315 314 312 313 313 311 312 311 312 310 310 310 312 314 315 315 315 316 317 317 320 323 320 321 320 320 318 318
303 303 304 304 304 303 303 303 303 302 302 302 302 303 304 305 306 307 309 316 312 312 311 313 313 311 311 311 311 311 311 311 313 315 317 316 318 318 317 315 317 317 319 319 318 317 317
303 304 303 304 303 303 303 302 302 302 302 302 303 303 304 304 305 306 306 312 312 311 313 311 312 311 311 311 312 312 311 313 315 317 315 315 316 315 314 315 315 316 318 318 316 315 315
304 304 302 303 303 303 302 302 302 302 302 302 303 303 303 303 305 305 306 311 310 310 313 311 311 311 313 312 313 313 311 312 314 315 316 316 314 312 314 315 315 315 315 315 316 315 313
303 301 303 302 302 302 302 302 302 302 301 301 302 303 303 303 304 304 308 308 310 308 315 311 311 312 311 312 313 312 311 312 314 315 314 315 313 312 314 315 314 316 313 314 315 315 316
301 301 301 301 302 301 301 301 301 302 300 300 303 302 303 303 304 304 305 311 308 307 320 309 310 310 311 311 312 313 311 312 314 314 314 315 314 315 314 314 313 314 312 313 313 314 314
301 301 301 300 300 301 301 301 301 300 300 302 302 303 304 303 303 303 304 307 306 312 316 312 311 314 313 311 312 313 313 312 312 313 313 313 312 313 313 312 312 312 313 313 314 315 319
301 301 300 300 300 301 300 301 300 300 301 302 302 304 304 304 304 304 305 305 311 318 309 312 311 314 312 312 313 313 315 315 316 317 317 314 314 313 311 313 312 313 316 316 319 319 317
301 301 300 300 300 300 300 300 299 300 302 303 305 305 306 305 303 303 306 308 316 310 312 310 312 313 314 311 313 314 315 316 313 314 316 317 318 314 313 313 313 314 314 317 316 316 314
301 301 300 300 300 300 300 299 299 300 301 303 303 303 305 305 304 305 306 312 315 310 310 311 312 313 312 312 312 313 314 313 313 313 315 317 315 311 313 313 312 315 316 314 316 316 318
301 300 300 300 299 300 300 299 300 300 301 302 302 304 305 304 304 303 306 314 309 310 310 311 313 311 311 312 313 312 313 311 312 312 313 314 315 310 311 312 312 313 313 316 316 315 315
300 300 300 300 300 300 299 299 299 301 302 302 303 304 305 304 303 304 312 312 312 310 310 312 312 312 312 313 313 313 313 310 311 311 312 312 311 311 311 312 313 313 315 316 314 315 315
299 300 300 300 300 299 299 298 299 301 302 303 303 306 304 303 306 307 313 312 311 311 311 312 311 312 313 313 313 314 313 310 308 310 313 311 311 311 312 310 310 310 312 312 317 316 315
300 300 300 299 300 299 299 297 299 301 302 305 304 307 304 305 311 312 310 313 312 312 312 312 313 313 311 313 314 313 311 309 308 310 312 311 313 314 316 314 312 312 312 312 314 315 317
300 300 299 299 299 299 299 297 299 300 302 306 307 308 306 306 309 311 313 313 313 312 312 313 313 312 314 314 312 313 312 311 309 310 310 311 313 314 315 318 316 316 315 314 314 316 316
299 299 299 299 299 299 299 298 299 299 302 306 308 306 306 309 310 311 311 312 313 313 312 312 313 314 314 315 313 314 311 311 310 310 311 312 314 313 314 313 314 315 315 315 315 315 316
299 299 298 299 299 299 299 298 298 299 301 305 308 309 308 309 309 311 311 313 313 313 313 314 314 313 313 314 313 314 312 313 312 311 312 312 314 314 315 314 315 318 318 319 318 316 316
298 299 299 299 299 299 299 298 298 299 302 303 303 305 310 309 311 311 312 311 312 313 312 312 312 313 314 314 313 313 311 311 310 313 313 314 314 316 318 316 317 323 322 320 318 315 316
299 299 299 298 299 299 299 299 298 299 301 303 303 305 311 311 312 310 311 311 311 311 312 314 313 314 313 312 313 313 314 314 314 313 312 315 315 314 317 318 326 323 318 317 320 318 317
299 299 299 298 299 299 298 299 297 299 301 302 302 305 311 312 311 311 311 313 313 312 313 313 313 312 312 314 316 316 315 314 314 314 315 314 315 317 319 323 319 320 319 320 318 321 316
298 298 298 298 298 298 299 298 297 299 301 301 302 306 310 312 311 310 312 312 313 313 314 313 312 311 313 315 317 319 317 315 317 318 312 313 314 316 316 322 322 319 316 316 318 324 313
297 297 297 297 298 298 298 297 297 299 300 300 301 305 307 314 311 310 312 313 312 313 315 314 313 313 313 316 316 319 317 314 319 319 317 318 316 317 318 322 321 316 313 316 321 319 313
297 296 296 296 297 296 296 296 296 298 299 299 300 304 305 312 311 311 310 313 313 313 315 313 313 313 314 315 317 318 317 317 318 317 318 318 319 319 319 322 323 314 317 321 316 314 312
297 296 295 295 295 294 295 295 296 297 297 298 300 300 302 308 311 310 310 309 311 311 313 312 314 313 314 314 315 316 318 316 318 319 314 321 318 319 320 320 316 313 315 313 311 312 310

GFSGBSN_925_thetae_033.txt.gz
Theta_e
304 304 305 304 305 305 305 305 305 304 304 303 304 303 305 307 309 311 314 317 317 316 315 312 310 312 313 318 319 318 317 317 321 325 325 323 322 322 322 321 321 323 323 321 322 323 324
304 305 305 305 305 305 304 305 305 305 304 304 303 304 304 307 307 309 311 315 317 316 315 312 309 312 314 314 311 314 314 317 320 323 325 323 324 322 323 322 322 322 322 321 322 322 322
305 304 306 305 304 304 305 305 305 304 304 304 303 304 303 305 306 308 309 312 316 315 315 314 310 313 314 315 311 312 312 317 321 322 324 323 322 322 322 323 321 322 324 323 322 322 322
306 307 306 305 304 305 305 305 305 305 304 304 303 303 304 305 306 307 308 311 315 315 314 313 311 312 314 311 312 312 312 316 319 323 323 323 321 321 322 321 321 322 322 325 322 321 321
306 305 305 305 306 305 305 305 304 304 304 304 303 303 303 304 305 307 307 309 312 316 314 313 313 314 316 310 310 310 312 317 317 319 322 322 321 322 322 324 323 323 325 325 323 321 321
304 304 305 306 305 305 304 304 304 303 303 303 303 303 303 303 305 306 307 307 312 315 313 313 313 314 312 313 312 311 312 316 317 318 321 321 321 321 320 324 327 325 325 323 322 321 320
304 306 305 305 305 304 304 304 303 303 303 303 303 303 304 303 303 304 307 306 316 316 314 315 315 313 313 312 311 311 312 316 316 317 318 316 318 320 320 321 321 319 320 321 320 319 319
305 305 303 304 303 303 303 303 303 303 303 303 303 303 303 304 304 304 305 305 310 311 314 312 313 313 312 312 313 312 312 315 316 318 317 318 320 318 317 316 317 318 319 319 318 316 316
303 302 303 302 302 302 302 302 302 302 303 303 302 301 302 303 304 304 306 304 306 310 316 314 313 313 313 313 314 313 313 314 316 317 316 319 317 314 316 316 317 317 317 317 317 316 316
301 302 302 302 302 302 302 302 302 302 302 301 301 302 303 303 303 304 306 306 304 310 314 314 314 313 313 313 315 313 312 313 314 316 316 317 315 314 315 316 316 318 315 315 315 316 319
301 302 302 302 302 301 301 301 301 301 300 301 302 303 303 301 303 305 306 305 308 308 322 314 313 311 312 313 314 314 311 313 315 315 315 317 315 316 315 315 314 316 314 314 315 316 315
301 302 302 302 301 301 301 301 301 301 301 302 303 302 304 305 303 303 305 307 307 310 323 313 312 313 313 313 314 314 313 313 313 313 314 315 313 314 315 314 314 313 313 313 314 315 319
301 302 301 301 301 301 301 301 300 300 301 302 303 302 305 304 304 303 305 305 310 317 311 314 312 313 313 312 313 315 315 314 316 318 317 315 314 313 313 314 313 314 316 318 320 320 318
301 301 301 301 301 300 300 300 300 301 301 302 302 303 306 304 304 305 303 306 317 315 313 311 313 313 313 312 313 313 314 315 314 314 316 316 320 315 313 314 314 313 314 317 318 318 317
301 301 301 301 301 301 300 300 299 300 301 302 302 303 305 306 304 303 307 311 318 313 311 313 313 315 315 312 314 314 315 315 314 314 317 318 317 313 314 313 313 314 316 313 316 314 316
300 301 301 301 300 300 300 300 299 300 301 303 303 303 305 305 304 304 309 308 313 311 311 313 314 312 314 313 314 313 314 313 313 313 313 315 317 312 313 312 312 314 314 316 317 317 317
301 301 301 300 300 300 300 299 299 301 302 303 302 306 305 304 304 306 312 313 312 310 311 313 313 312 311 313 314 314 314 312 313 313 313 312 313 313 311 313 314 314 314 315 315 317 318
301 301 300 300 300 300 300 299 300 301 303 305 303 305 304 304 308 309 313 313 311 311 312 312 312 313 313 313 315 315 315 312 311 312 313 312 311 314 313 311 311 312 313 313 318 316 317
300 300 300 300 300 300 300 299 300 301 304 305 305 305 304 305 312 313 311 313 312 312 313 314 314 313 313 314 315 315 314 311 310 312 312 312 313 315 318 315 312 313 313 312 315 316 319
299 300 299 299 300 300 300 299 299 301 303 306 307 306 305 307 310 312 314 314 314 313 314 314 314 313 314 315 314 315 313 312 310 310 311 312 312 314 317 321 317 316 315 315 316 318 317
300 300 300 299 300 300 300 299 299 300 303 307 309 308 308 312 312 313 313 314 314 314 314 314 314 315 315 316 315 314 313 313 312 311 311 312 316 313 314 314 315 316 316 317 317 317 318
300 300 300 299 299 299 299 300 299 300 302 305 307 310 309 310 311 313 312 313 314 314 314 315 315 314 314 315 314 314 312 312 313 312 312 312 315 315 315 313 315 318 317 319 320 320 320
299 299 300 299 300 299 299 300 298 301 302 303 303 305 310 309 311 312 312 313 313 313 313 313 314 314 315 314 313 313 312 312 312 313 313 313 315 316 316 316 316 324 322 321 320 320 320
298 298 299 299 299 298 299 299 298 300 302 302 303 304 310 311 311 311 311 312 312 312 314 314 313 314 314 313 313 314 313 314 313 313 312 314 315 315 316 317 325 321 318 319 319 319 318
298 298 297 298 298 299 299 298 297 299 301 301 301 304 311 311 311 310 311 312 313 313 314 314 314 313 313 314 316 316 317 315 315 315 315 313 314 315 318 317 317 320 319 320 321 322 317
297 297 297 297 297 298 297 297 297 298 299 300 303 304 307 313 312 311 312 313 314 314 314 314 313 312 313 315 316 320 319 315 318 316 314 314 314 315 316 319 321 319 317 315 319 325 317
297 297 297 296 295 295 295 296 296 297 298 299 301 302 304 313 313 311 312 313 312 314 315 314 314 314 313 316 318 318 317 314 317 318 318 318 318 318 318 319 317 317 316 318 324 321 317
297 297 296 296 295 295 295 295 296 297 297 298 299 302 302 309 313 311 311 313 313 314 315 314 314 313 315 316 317 317 318 317 317 317 319 318 318 318 318 321 321 316 318 321 319 316 315
297 297 296 296 295 295 295 295 296 296 297 298 299 299 300 304 313 311 311 311 312 313 314 314 316 314 314 314 316 316 319 316 317 318 317 320 318 320 319 320 319 318 317 316 315 314 313

GFSGBSN_925_thetae_036.txt.gz
Theta_e
306 306 306 307 307 306 306 307 306 306 306 306 306 306 305 304 305 306 309 311 314 317 316 315 312 311 312 318 319 320 319 324 324 325 325 326 321 321 322 320 322 322 322 322 322 322 322
307 307 308 308 307 305 306 307 306 306 306 306 306 305 305 304 304 306 307 310 312 315 316 315 313 312 314 314 314 316 315 316 318 323 325 325 322 321 322 321 320 321 321 321 321 320 321
309 307 307 306 306 306 307 307 306 306 305 305 305 305 305 304 304 305 306 308 310 313 317 315 314 312 314 315 312 312 314 316 320 321 325 325 323 322 322 323 322 321 322 322 321 321 321
307 306 305 306 306 307 306 306 305 305 305 304 305 305 304 304 304 304 306 307 309 310 316 313 314 312 314 313 314 312 312 315 319 322 322 324 322 322 322 321 322 323 323 325 321 321 321
307 305 306 307 307 306 305 306 305 305 304 304 304 304 304 304 304 304 305 307 308 309 313 313 314 313 314 311 311 313 312 315 317 322 322 323 322 322 323 324 324 322 324 323 323 321 321
306 307 307 304 304 304 304 304 304 304 304 304 304 304 304 304 304 304 304 306 305 308 313 313 313 314 313 314 311 311 312 317 317 319 323 323 321 323 323 324 325 323 324 322 322 321 320
306 304 303 304 304 304 303 303 303 303 303 303 303 304 304 303 304 303 303 306 311 313 315 314 314 313 312 313 312 311 313 316 317 319 322 323 323 324 321 321 321 324 321 320 318 318 318
304 303 303 304 304 303 303 303 303 303 303 303 303 303 302 303 303 304 304 305 305 308 315 313 314 313 313 312 313 313 314 317 318 322 318 318 319 318 318 320 321 318 318 318 317 316 315
303 303 304 304 303 303 302 302 302 302 302 303 302 302 303 303 302 302 304 304 304 303 313 313 313 313 313 313 314 314 314 315 318 318 317 318 317 317 318 317 317 317 317 317 316 314 313
303 302 303 303 302 302 302 302 302 302 302 302 302 303 303 302 303 303 304 305 305 303 311 317 315 314 313 314 314 313 313 315 316 318 316 317 315 314 315 317 316 318 315 316 316 315 317
303 303 303 302 302 302 301 301 302 301 301 301 303 303 304 305 302 302 305 304 304 305 318 314 314 312 313 314 314 313 312 313 315 316 316 317 316 316 316 315 315 315 314 314 315 315 314
303 302 302 302 302 301 302 301 301 301 301 302 303 303 304 304 304 302 302 304 304 310 317 316 313 314 315 315 315 313 313 313 313 314 314 315 313 314 315 313 314 313 313 313 314 314 315
301 302 302 302 302 301 301 301 301 300 301 302 302 303 304 305 305 303 304 303 308 313 312 315 315 314 314 315 315 314 315 315 315 316 317 314 314 313 313 315 314 314 315 315 317 318 314
301 302 302 302 301 301 301 301 300 300 301 302 303 303 305 304 304 305 304 307 314 315 316 311 314 314 314 314 315 314 316 316 314 313 317 316 317 315 313 314 315 315 314 314 317 317 316
301 302 302 301 301 301 301 301 300 300 301 302 303 303 304 304 304 304 307 308 314 314 312 314 314 314 314 313 314 314 314 314 313 313 316 317 317 314 313 313 314 314 314 312 313 312 311
301 302 301 301 301 301 300 301 300 302 302 304 306 304 305 304 304 304 309 311 312 312 312 312 314 313 313 313 314 315 315 313 313 312 312 315 316 313 314 312 312 313 312 316 314 313 314
301 301 301 300 300 301 300 300 301 302 304 304 303 306 304 304 304 306 309 310 312 311 311 314 312 312 312 313 314 314 313 313 312 313 312 312 314 313 312 313 314 313 314 314 314 316 316
301 300 301 300 300 301 300 300 300 302 305 303 302 305 303 304 305 307 312 313 311 312 312 312 312 311 311 312 314 313 314 313 312 312 313 312 312 311 312 311 311 312 312 311 313 312 314
300 301 301 300 300 300 300 300 299 302 305 305 306 306 304 304 310 312 310 312 312 313 314 314 314 313 311 313 314 315 314 311 311 312 313 312 311 311 315 313 310 312 312 312 313 314 315
301 301 301 300 300 300 300 300 299 302 304 307 308 306 307 307 309 310 313 313 314 314 315 314 313 314 313 315 314 315 314 311 310 312 312 311 313 312 313 317 316 314 314 313 314 317 315
300 300 300 300 300 300 300 300 299 301 304 308 310 308 308 311 312 312 313 313 313 315 314 314 315 315 315 315 315 314 313 312 311 311 311 312 313 311 312 311 311 312 314 315 316 316 318
299 299 299 299 299 298 300 299 299 300 302 305 308 309 310 309 312 313 312 315 315 315 315 315 315 314 314 315 314 315 312 312 313 312 311 312 313 312 310 312 312 313 314 315 318 320 321
299 299 298 298 299 299 300 299 298 300 301 303 303 305 308 310 311 312 314 313 314 314 314 314 314 314 315 314 313 313 312 312 312 312 312 314 313 315 311 314 314 319 318 321 320 320 321
299 298 298 297 298 298 298 298 298 298 300 301 302 304 308 312 312 311 312 313 313 312 314 313 313 315 314 312 312 312 313 313 313 313 312 316 315 315 313 315 322 321 319 318 320 319 318
298 298 298 297 296 296 296 296 297 298 298 299 301 304 309 313 311 311 311 313 313 313 314 314 314 313 312 314 315 316 317 316 315 314 313 313 315 317 316 317 315 316 318 319 320 320 318
299 298 298 297 296 296 295 296 296 297 297 299 302 303 306 312 311 310 310 312 312 313 313 315 313 312 313 315 316 317 319 317 319 316 314 314 314 315 316 318 318 318 316 315 318 324 316
299 298 298 297 296 296 296 296 296 297 297 298 300 301 303 311 312 311 311 312 312 313 315 314 314 314 313 316 316 316 317 315 316 320 316 317 316 316 318 319 315 313 316 316 324 320 315
298 297 297 297 296 296 296 296 296 296 297 298 298 301 300 307 311 312 311 312 312 313 315 314 314 313 313 316 316 316 317 317 317 317 316 316 317 317 317 319 317 315 316 320 317 315 313
298 296 297 297 296 296 296 296 296 296 296 297 298 298 299 302 310 312 311 311 311 312 314 313 315 313 314 315 314 315 318 317 315 318 316 317 316 318 315 315 314 315 317 315 311 311 310

GFSGBSN_925_thetae_039.txt.gz
Theta_e
308 310 308 307 307 307 307 308 308 308 307 307 307 306 306 306 305 305 305 305 308 312 314 318 315 314 313 316 317 319 317 325 325 323 325 325 323 319 321 319 319 320 320 320 319 320 319
310 309 308 307 306 307 309 308 307 306 307 307 306 306 305 305 305 304 304 305 306 310 312 315 314 314 314 316 315 316 318 324 324 324 324 324 322 317 319 318 318 319 319 320 319 319 319
307 307 306 307 308 307 306 305 306 307 306 306 305 304 306 305 305 305 304 305 307 308 311 313 313 314 314 314 311 314 314 315 317 321 324 324 323 321 320 321 320 319 321 320 320 320 320
305 307 310 308 304 304 305 305 305 305 305 304 304 304 305 305 305 305 304 305 306 307 309 312 313 313 314 312 312 313 312 314 319 321 322 323 322 321 322 320 321 321 321 324 320 320 319
305 307 305 304 305 306 305 305 304 304 304 304 304 304 304 304 304 304 304 305 305 307 309 311 314 312 313 312 313 313 312 313 317 321 322 323 321 322 322 323 324 321 321 322 322 319 320
307 305 304 305 305 305 304 304 304 303 303 303 304 304 302 304 304 304 304 304 304 307 308 312 312 312 312 313 311 313 312 313 317 321 323 324 322 323 322 324 325 321 321 320 320 319 319
305 305 304 304 305 304 304 303 303 303 303 303 303 303 303 303 303 304 304 303 305 308 310 314 313 313 314 313 311 312 311 316 316 319 323 324 323 325 320 320 320 321 323 318 316 316 314
304 305 303 305 304 303 303 303 302 302 302 302 303 303 303 304 304 303 303 303 304 303 308 312 313 313 312 312 313 312 312 317 318 321 317 319 320 321 321 320 322 320 319 316 314 314 313
304 304 304 304 303 303 302 302 302 302 302 302 302 302 303 304 304 302 302 303 304 303 307 313 314 314 312 313 314 313 315 316 318 320 318 317 316 316 317 318 319 316 316 316 315 313 311
304 302 303 303 303 302 302 302 302 302 301 301 302 303 304 304 303 302 304 304 304 303 309 314 315 314 313 314 314 312 314 315 317 319 318 317 315 315 316 317 315 317 313 314 315 313 314
302 302 303 303 303 302 302 302 302 302 301 302 302 303 303 304 304 303 303 304 303 302 313 313 315 313 313 314 313 313 312 314 315 317 316 316 315 316 315 315 314 315 313 313 313 312 311
301 303 303 303 303 302 302 302 302 301 300 301 302 303 304 304 304 304 303 303 303 307 312 316 314 315 314 314 314 312 314 313 313 315 314 314 312 313 314 313 313 312 312 312 312 311 309
301 303 303 302 302 302 302 301 302 301 301 302 303 304 304 305 305 304 302 303 305 309 310 315 317 315 315 316 314 313 315 314 313 315 316 315 314 312 312 313 312 314 310 306 314 316 311
301 301 302 302 302 302 302 301 301 301 303 303 304 305 303 305 304 304 303 303 305 314 314 314 315 315 316 315 314 315 315 313 313 312 310 311 311 313 311 312 313 313 312 306 313 313 313
301 301 302 302 301 301 301 301 301 302 302 304 305 303 304 304 303 304 306 304 310 313 314 316 314 316 316 314 315 315 315 314 312 312 311 311 314 313 312 312 312 313 308 309 309 309 303
301 301 301 302 300 301 301 301 301 302 305 303 304 303 304 304 304 304 306 310 307 310 313 313 316 313 316 314 315 313 314 312 312 310 311 314 316 314 314 313 312 310 310 312 305 306 311
300 302 302 302 299 301 301 301 300 304 305 303 302 305 303 304 303 305 306 309 307 312 312 314 313 313 312 314 313 314 313 312 310 310 311 312 313 313 313 312 311 312 313 313 309 310 312
301 301 301 301 299 301 300 301 300 304 304 304 301 302 303 304 304 307 311 312 306 310 312 313 309 310 310 312 313 312 312 311 310 311 312 312 311 312 310 309 309 310 310 309 305 306 308
301 300 300 301 300 300 300 300 300 303 305 305 301 301 303 304 309 310 310 309 309 315 315 314 313 311 310 312 311 312 311 310 311 311 313 311 308 304 311 310 309 311 311 310 309 311 308
299 299 299 299 298 298 300 300 299 301 303 306 301 300 302 306 308 307 311 311 312 314 314 312 311 310 313 314 312 314 312 310 309 312 314 310 310 306 308 312 311 308 312 310 311 315 313
300 299 299 298 299 300 300 299 298 299 303 307 306 304 306 306 310 311 313 312 316 316 314 314 314 313 314 315 314 314 312 310 310 311 310 309 306 309 309 311 308 308 311 312 313 313 316
299 299 299 298 298 298 298 298 298 298 302 304 306 308 306 306 311 310 312 315 316 314 314 313 314 313 312 314 313 313 313 311 311 310 310 309 308 306 306 310 311 311 311 311 312 313 314
299 299 298 298 297 296 296 296 297 298 299 302 303 304 307 307 308 310 311 312 313 313 313 312 313 314 315 313 311 310 309 309 310 309 310 311 308 304 304 310 311 316 314 313 317 319 320
299 300 298 298 297 296 296 296 296 298 298 299 301 303 307 309 308 310 312 312 313 312 313 313 314 314 313 311 310 311 311 311 310 310 308 312 311 311 309 312 319 318 317 317 317 317 317
298 300 298 298 297 296 296 296 296 297 298 298 300 303 307 309 307 309 310 312 311 311 313 314 313 311 310 312 315 314 315 315 313 312 313 313 314 312 314 313 313 316 318 319 319 318 316
298 300 298 298 297 297 296 296 295 296 297 298 300 302 305 308 309 311 309 312 312 313 312 313 312 310 311 313 313 315 316 316 316 315 313 313 313 316 315 317 316 316 316 314 316 320 315
298 299 297 298 298 297 296 295 295 296 297 298 298 300 302 310 310 311 310 311 312 312 314 314 313 313 311 312 313 312 314 313 316 317 314 318 316 316 314 316 313 311 312 315 321 318 314
298 299 297 297 297 297 296 295 296 295 296 297 297 300 300 306 308 312 312 312 311 312 315 311 312 313 312 316 313 312 313 315 316 314 314 315 317 319 317 318 314 311 315 319 315 313 312
297 299 296 297 297 296 296 296 296 296 296 297 297 298 298 301 306 308 311 311 311 311 311 309 314 311 313 313 310 312 315 312 314 315 312 316 312 315 312 312 309 312 315 311 310 309 309

GFSGBSN_925_thetae_042.txt.gz
Theta_e
309 308 307 307 308 310 307 306 306 307 307 307 307 306 305 306 306 306 306 304 304 305 308 312 314 315 313 314 316 316 319 323 324 325 322 323 323 320 321 319 319 319 319 319 319 319 318
307 307 308 310 307 306 306 307 306 306 306 306 306 306 305 305 306 306 305 305 304 305 307 310 313 313 313 314 313 315 318 324 324 324 324 324 323 318 319 319 319 318 318 319 319 319 318
307 307 308 305 305 307 307 306 306 305 305 305 305 305 305 304 305 305 305 305 305 306 306 309 312 313 313 312 312 316 320 323 323 323 323 323 323 320 318 321 318 319 320 319 319 319 319
306 308 305 305 305 306 306 306 305 305 304 304 304 304 305 305 305 305 305 305 305 305 306 307 310 314 312 310 312 312 314 315 319 320 323 322 323 320 320 319 319 320 319 322 319 319 318
308 305 306 304 306 306 305 305 304 304 304 304 304 304 304 303 304 304 304 305 305 305 306 307 309 313 312 310 312 312 312 313 316 319 320 323 322 322 321 320 320 320 320 321 320 318 319
305 305 306 305 305 305 304 304 303 303 303 303 303 303 304 304 304 303 304 304 301 305 306 308 309 311 311 313 312 312 312 313 317 321 322 323 324 325 324 322 324 321 321 319 320 317 317
305 305 304 305 304 304 303 303 303 303 303 303 303 303 303 303 304 304 304 302 302 305 306 311 313 312 311 312 312 313 312 312 317 320 323 323 324 325 325 322 318 318 322 323 317 314 313
305 305 303 304 304 304 303 303 303 303 302 302 302 302 303 303 304 304 303 302 303 303 305 307 310 311 312 311 313 313 312 317 318 322 320 324 325 320 320 321 321 321 321 318 314 313 313
303 303 304 304 304 303 303 303 303 303 303 302 302 303 303 304 304 303 302 302 303 303 306 308 310 312 312 312 313 313 314 316 318 320 316 321 318 318 320 320 323 318 315 315 315 312 311
303 302 304 304 304 303 303 303 302 303 303 301 301 302 303 304 304 303 303 303 303 304 306 309 312 314 313 313 313 312 315 316 318 320 316 316 314 317 318 318 314 317 313 314 313 313 313
303 302 304 303 303 303 303 303 302 302 301 302 302 302 303 304 305 303 303 303 303 302 303 312 313 313 313 314 313 314 312 314 317 318 316 316 315 314 315 315 313 314 312 312 312 311 310
301 302 302 303 303 301 303 302 302 301 302 303 304 304 304 305 303 303 303 303 303 306 307 316 315 316 315 313 313 313 314 312 314 316 314 313 312 313 313 312 312 311 310 309 310 307 306
301 301 301 303 302 301 302 302 301 302 303 304 304 304 305 304 305 304 303 304 301 307 307 313 316 315 314 315 315 315 316 314 314 318 317 315 314 312 312 312 312 310 308 307 306 304 309
301 302 302 303 301 301 301 301 302 303 305 304 305 304 304 304 303 303 302 302 305 310 314 314 314 314 316 314 315 316 315 314 313 310 313 313 312 312 311 312 312 313 309 306 309 312 311
301 302 303 302 300 302 301 301 302 304 304 303 303 303 304 303 303 303 304 302 307 310 313 315 315 318 317 314 315 315 314 312 312 310 311 308 311 312 311 311 310 312 309 308 307 305 303
301 302 301 302 300 301 300 301 301 303 304 302 302 303 303 303 303 303 305 310 308 305 313 313 315 314 316 315 315 315 313 311 311 310 310 311 312 313 313 312 312 309 308 307 299 304 308
301 301 300 301 300 299 300 301 300 303 304 304 302 304 303 304 303 304 307 310 308 309 312 313 313 312 313 313 312 313 312 311 310 310 310 312 310 313 314 312 312 313 312 310 307 306 310
301 300 300 299 299 300 300 300 300 302 304 304 299 301 303 304 303 307 309 308 304 309 312 313 308 311 312 312 312 312 311 310 308 309 312 311 309 304 313 309 308 309 310 307 302 303 305
300 300 299 299 299 299 300 300 299 300 303 304 299 302 303 304 310 307 309 309 307 314 314 313 310 309 310 310 312 311 310 309 309 311 311 310 306 303 309 308 308 310 309 308 307 309 302
300 300 299 299 298 297 297 298 299 300 303 306 299 298 303 306 307 308 308 311 314 312 313 310 309 309 312 312 310 313 310 310 310 312 314 310 307 305 308 305 305 305 310 309 310 313 308
299 300 299 299 298 297 296 296 298 299 303 306 303 302 304 306 311 311 311 313 314 315 312 311 312 313 313 314 313 313 311 310 310 311 310 307 305 306 307 309 306 308 310 310 306 310 309
299 300 299 299 298 297 296 296 297 299 301 304 305 306 305 308 310 309 310 312 314 313 313 313 313 312 311 314 312 313 310 310 310 309 309 307 303 304 306 309 309 309 309 309 309 310 311
298 300 299 299 298 297 296 296 296 298 298 300 301 304 306 306 308 309 310 311 312 311 311 312 312 313 314 313 310 308 308 307 308 308 309 309 305 304 306 308 309 312 311 311 311 310 312
298 299 300 299 298 297 296 296 296 297 298 298 300 302 306 307 307 308 310 311 312 311 313 312 312 313 312 309 310 310 310 309 308 308 308 309 309 306 304 308 314 317 314 313 311 313 315
298 299 300 298 299 298 296 296 296 296 297 298 298 302 306 308 306 307 311 311 311 310 314 313 312 310 308 312 312 312 313 314 313 311 312 311 312 311 308 309 312 315 317 318 317 316 314
297 299 300 297 298 298 297 296 295 296 296 297 298 301 303 308 306 309 310 310 310 311 311 312 311 310 310 312 312 314 317 315 316 316 312 313 313 312 309 315 316 315 314 314 314 319 315
297 298 300 297 298 298 297 295 295 296 295 297 297 299 300 308 309 309 307 309 310 311 312 313 312 312 309 311 312 312 313 313 315 316 317 317 315 313 312 313 313 310 310 314 320 319 313
297 298 299 297 297 297 296 295 295 295 295 296 296 298 299 304 306 309 311 311 310 311 313 310 312 311 311 312 310 311 312 313 314 313 314 315 314 314 314 316 314 310 315 320 315 311 311
297 297 299 297 297 296 296 295 296 295 295 296 296 298 297 299 305 304 307 310 310 311 311 308 312 309 312 311 309 311 315 311 311 313 311 315 311 313 313 312 309 309 314 312 309 308 308

GFSGBSN_925_thetae_045.txt.gz
Theta_e
308 308 308 309 306 306 308 308 308 307 306 306 306 306 306 306 305 306 306 306 306 305 305 305 309 313 313 313 313 314 317 323 323 324 324 321 320 320 321 319 319 319 319 319 319 319 318
307 307 310 306 306 306 307 307 307 306 306 305 305 305 305 305 305 304 306 306 305 305 306 306 308 312 313 312 309 309 312 322 323 324 322 321 321 318 319 318 319 318 318 319 318 318 318
307 310 306 307 305 307 307 306 305 305 305 305 305 305 305 305 305 305 305 305 305 305 306 306 307 310 313 312 310 314 318 322 323 324 322 322 321 318 318 320 316 318 320 319 318 318 318
307 306 306 306 307 306 306 305 304 304 304 304 304 304 304 304 304 304 305 305 305 305 305 306 307 310 315 311 311 313 314 321 321 322 322 322 322 320 319 318 318 319 318 321 318 318 317
307 306 306 305 306 305 305 305 304 304 304 303 304 304 303 304 304 304 303 305 305 305 305 306 307 309 313 311 312 312 312 313 319 321 322 321 322 321 320 320 319 318 319 321 320 317 318
305 306 305 305 305 305 305 304 304 304 303 303 303 303 303 303 304 304 304 304 302 305 305 305 307 312 311 312 311 311 312 312 316 319 322 323 324 322 321 320 323 321 320 318 319 316 315
305 304 304 305 305 305 304 304 304 304 304 304 303 303 303 303 304 305 304 302 301 302 305 305 309 310 312 311 312 312 312 311 319 320 324 323 325 326 324 320 318 317 320 320 318 315 313
305 304 304 306 305 304 304 304 304 304 303 304 303 302 303 303 304 304 304 303 301 302 303 304 306 311 312 312 313 313 312 314 320 324 321 325 325 322 323 323 323 321 321 319 314 312 313
304 303 303 304 304 304 303 304 304 303 302 302 302 302 302 303 304 303 303 302 301 302 304 305 307 312 313 312 314 314 312 316 319 321 320 321 320 321 322 322 324 321 319 316 315 312 310
303 302 303 304 304 303 302 303 303 302 303 303 304 304 303 304 304 304 302 302 302 303 297 308 308 312 313 313 314 312 314 316 318 319 317 317 313 320 320 321 319 317 313 313 313 313 315
302 302 302 302 304 301 303 302 302 303 304 305 305 304 304 304 304 304 303 303 303 303 289 307 311 312 313 314 312 313 312 314 317 317 314 316 314 317 319 318 314 315 311 312 311 310 309
302 302 303 304 303 300 302 302 303 304 305 304 306 305 303 304 302 303 303 303 302 299 307 312 312 313 313 314 314 313 315 312 314 315 313 313 312 312 312 311 312 311 309 307 307 307 307
302 302 303 303 302 301 303 301 303 304 305 303 304 304 303 304 302 303 303 303 298 297 308 313 314 315 313 316 316 316 315 314 317 319 318 314 312 311 311 312 311 309 310 306 305 304 309
301 303 302 301 302 301 300 302 301 304 304 303 303 303 303 303 304 303 302 300 302 309 310 314 315 314 318 315 317 316 314 314 312 313 314 314 316 312 311 312 313 311 309 307 309 309 309
301 302 301 301 300 300 301 301 301 303 304 303 302 303 303 303 303 302 305 305 307 308 308 316 315 317 316 315 316 316 314 313 312 310 311 309 311 311 311 310 310 311 307 307 306 303 303
301 302 301 300 300 301 301 301 301 302 303 304 302 302 303 303 303 303 305 308 307 304 308 312 316 315 315 314 317 314 314 312 311 310 309 309 313 313 312 311 310 310 307 308 299 301 308
301 302 300 300 300 299 299 299 300 301 303 304 301 300 302 303 303 301 306 309 307 308 313 313 312 312 312 312 314 313 313 311 310 310 310 309 310 315 313 312 312 311 309 307 306 305 308
301 302 300 300 299 298 298 298 299 301 303 304 297 297 302 303 299 304 310 309 305 310 311 312 309 311 311 310 311 312 311 310 308 308 311 309 307 315 314 308 308 309 309 306 302 303 308
300 301 300 300 299 298 298 298 299 300 302 304 298 299 303 304 308 309 307 309 309 313 313 312 309 309 309 310 311 310 310 309 308 309 310 308 305 303 307 308 307 310 309 306 305 302 299
300 300 300 300 299 298 297 297 298 300 302 304 298 300 300 304 307 309 310 312 313 310 311 309 308 309 309 311 309 311 310 310 309 310 312 308 305 305 305 305 305 306 309 307 306 303 306
299 300 301 299 299 298 297 297 297 299 303 305 299 303 305 303 309 310 311 313 313 313 310 309 310 311 312 313 313 311 309 309 310 313 309 307 305 305 306 308 305 307 309 308 304 309 305
299 299 301 300 299 298 297 297 296 298 301 303 304 306 304 304 306 307 308 311 312 312 312 312 312 312 311 312 312 312 309 309 311 308 309 305 304 304 304 307 308 308 308 308 308 309 309
299 299 300 300 299 299 297 296 296 297 298 299 300 303 306 304 305 307 308 311 312 311 312 312 311 312 313 312 309 307 307 306 307 308 308 307 305 303 305 306 308 311 309 308 309 308 310
299 298 300 299 299 299 298 296 296 296 297 298 299 301 306 305 305 307 309 311 312 311 312 312 312 312 312 309 309 308 307 306 307 306 306 307 306 305 304 306 312 310 310 309 310 310 309
298 298 299 300 298 299 298 297 296 296 296 297 297 300 305 308 305 306 309 311 310 309 312 312 311 310 308 311 311 311 313 312 312 311 310 310 312 311 311 305 307 314 314 316 314 315 312
298 298 298 300 298 298 298 296 296 296 296 296 297 300 302 307 307 308 310 309 308 309 310 311 310 308 309 310 311 313 314 313 316 316 312 312 312 313 312 311 315 315 313 313 313 317 314
298 298 297 299 298 297 298 296 295 295 295 296 296 298 299 306 306 308 306 308 308 308 310 312 312 310 308 309 311 310 312 312 314 317 316 316 316 314 312 311 310 309 309 313 320 320 313
296 297 298 298 298 296 298 296 295 295 295 295 296 298 298 302 304 307 310 310 308 309 311 309 310 309 309 311 309 309 310 311 312 312 314 315 316 314 313 313 311 309 314 319 315 311 310
296 297 297 298 298 296 297 295 297 297 295 295 296 296 297 298 303 303 304 306 308 309 310 308 311 310 311 312 307 310 313 312 311 313 310 315 311 312 309 309 308 308 310 312 309 308 308

GFSGBSN_925_thetae_048.txt.gz
Theta_e
308 308 311 308 308 307 308 308 307 307 306 305 305 305 306 306 306 306 306 305 306 306 306 306 305 307 311 312 312 314 316 323 318 321 322 320 320 318 320 318 317 319 318 318 318 318 318
308 308 307 307 307 307 308 307 306 305 305 305 305 305 305 305 305 305 305 305 306 306 306 306 306 307 310 315 311 312 309 318 319 323 323 320 320 318 319 318 318 317 318 318 317 317 317
307 308 307 307 307 306 306 306 305 305 305 305 305 304 305 304 304 304 305 305 305 306 306 306 306 308 310 313 311 312 316 321 321 323 322 321 319 319 316 318 316 317 319 318 317 317 318
308 306 307 306 306 306 306 306 306 305 305 304 304 304 304 304 304 304 305 304 305 305 305 305 305 307 311 312 313 312 311 319 321 323 322 321 320 318 318 316 316 318 318 321 318 317 317
306 306 305 305 306 306 306 305 305 305 305 305 304 304 304 303 304 304 304 305 305 305 305 305 305 307 312 311 313 313 311 318 321 321 321 320 321 320 318 318 318 318 319 320 320 316 317
306 306 305 304 305 306 305 304 305 304 305 304 304 304 303 303 304 304 305 304 302 304 305 305 305 307 311 312 312 311 311 315 317 319 322 322 321 322 318 320 321 321 320 318 319 316 316
306 305 304 304 304 305 305 303 304 304 304 303 303 303 302 302 304 304 304 303 300 301 304 303 305 308 311 312 312 312 311 314 319 320 325 322 325 325 322 319 316 316 318 318 317 315 313
304 304 303 304 305 305 303 303 304 304 303 304 304 304 303 302 304 305 304 302 301 301 302 302 303 305 306 312 313 312 311 315 320 323 322 322 326 323 320 320 319 318 319 320 315 312 312
304 303 303 303 304 304 301 303 303 303 304 305 305 305 305 304 303 304 303 302 301 302 303 305 306 309 311 312 314 313 312 316 320 322 322 322 322 321 322 323 324 322 321 318 317 312 309
304 303 303 304 304 302 302 304 303 304 305 305 305 306 306 304 303 303 302 302 302 303 291 306 307 311 311 313 313 311 312 317 318 321 318 317 319 322 322 323 322 323 315 313 312 313 315
303 303 304 304 303 301 303 302 304 304 305 305 305 304 305 302 303 303 303 303 302 300 287 305 309 311 313 314 313 313 313 315 318 318 318 316 320 322 322 321 318 315 311 311 309 309 309
303 303 304 302 302 301 300 303 303 304 305 304 303 304 303 303 301 303 303 303 301 295 302 310 311 311 314 313 314 314 315 313 314 315 314 313 311 313 313 311 312 309 308 307 305 306 307
302 303 303 302 301 301 302 302 302 303 305 304 303 303 304 303 302 302 303 301 295 298 307 312 312 313 315 316 316 316 316 314 318 317 315 314 313 311 310 311 310 309 313 317 305 305 309
302 303 302 302 301 300 301 301 301 303 304 302 302 302 303 304 303 302 302 299 299 308 309 310 313 315 317 316 316 316 315 314 311 313 313 313 319 313 310 311 312 310 310 308 308 309 309
302 302 302 301 301 300 299 300 301 302 304 303 302 302 303 303 302 302 301 300 302 306 307 311 314 316 317 316 316 315 313 313 312 310 313 310 311 311 310 310 310 311 307 306 305 302 303
301 302 302 301 301 299 299 299 300 301 303 303 302 301 302 303 303 302 298 307 306 305 308 312 315 312 314 317 316 315 314 312 312 310 308 309 313 312 311 310 309 310 306 307 299 305 308
301 302 302 301 300 299 299 299 299 301 303 303 300 298 301 302 303 300 306 308 307 307 310 311 311 312 311 314 313 312 312 310 310 309 308 308 310 314 313 312 311 309 308 306 305 305 307
301 301 302 301 301 299 299 298 299 301 303 304 297 298 302 304 302 304 310 309 308 310 310 309 309 310 310 310 311 311 312 310 308 309 311 308 309 316 313 307 307 309 308 305 302 303 307
300 300 301 301 300 300 298 298 298 300 302 303 298 298 302 304 310 310 307 309 309 312 313 309 310 309 308 309 310 309 309 308 308 309 309 307 305 304 312 310 307 309 307 305 303 300 299
300 300 301 302 300 299 298 297 297 298 301 303 298 301 301 302 306 310 312 313 313 310 310 307 308 308 309 310 308 310 310 310 308 309 312 307 305 305 306 306 305 306 309 305 304 302 304
300 299 300 302 300 299 298 297 297 297 300 303 298 304 305 308 310 309 310 312 312 312 309 308 310 310 311 312 311 310 309 310 309 312 307 307 304 304 306 307 304 307 309 307 302 306 304
300 299 299 301 300 299 299 297 297 297 299 302 304 304 305 305 305 307 307 311 312 312 311 311 311 311 310 311 311 310 308 309 310 308 309 305 307 303 303 307 307 308 307 307 307 307 307
299 299 299 301 299 299 299 298 296 296 297 298 300 301 303 305 303 306 307 310 311 310 312 311 311 311 311 311 309 306 306 305 306 307 308 308 305 303 304 306 308 310 308 308 307 307 309
299 298 299 300 300 298 298 298 296 296 296 296 298 300 303 304 303 305 306 310 311 310 313 312 312 312 311 308 307 307 306 306 306 306 306 306 306 305 304 305 310 307 309 307 308 308 307
299 298 298 299 301 298 298 298 296 296 296 295 296 299 304 307 303 306 309 310 309 308 311 311 311 309 307 309 311 310 311 311 311 310 310 308 310 310 310 305 305 312 312 310 311 316 309
298 298 298 298 300 299 298 298 296 296 295 295 296 298 301 306 304 307 309 308 307 308 308 311 310 307 308 308 310 312 311 312 315 314 311 311 308 307 311 311 312 312 313 312 313 320 313
298 298 298 298 299 299 298 298 296 295 295 295 294 297 298 304 305 307 307 307 306 306 307 310 311 309 307 307 310 308 311 312 314 316 314 314 314 314 311 311 308 307 308 313 320 318 312
298 297 297 298 298 298 297 297 296 296 297 295 294 295 297 300 303 305 309 310 307 306 310 307 308 308 307 309 308 307 308 311 311 311 311 312 312 314 312 313 310 307 314 318 314 312 311
297 297 298 298 297 299 297 297 296 297 296 295 294 295 296 297 301 301 303 304 306 308 308 308 310 310 309 310 305 307 313 313 312 316 309 313 309 309 308 308 306 308 309 308 309 310 309

GFSGBSN_925_thetae_051.txt.gz
Theta_e
308 308 309 308 309 307 307 308 307 307 306 306 305 306 305 305 305 305 305 306 306 306 307 307 307 307 307 314 314 314 312 313 318 318 320 321 321 322 323 319 317 319 318 319 319 318 318
307 309 307 307 306 307 308 308 307 307 306 306 306 305 305 305 305 304 305 305 306 306 306 306 306 305 307 311 312 313 313 311 317 318 321 320 320 318 320 319 319 318 318 318 318 318 317
308 307 308 306 306 307 307 307 306 306 306 305 305 305 305 305 305 305 305 305 305 305 306 306 306 305 307 309 311 312 313 316 319 318 322 321 319 319 316 318 316 316 319 318 318 317 318
307 307 307 305 305 306 307 306 305 305 306 306 305 305 305 305 304 304 305 305 305 304 305 306 306 305 307 309 311 312 312 316 318 320 322 321 319 317 317 315 316 319 318 321 318 317 317
306 306 305 305 305 306 306 305 304 305 305 305 305 304 304 304 303 304 304 305 305 305 306 306 305 305 308 311 312 313 313 313 319 320 321 321 319 321 318 318 320 318 320 319 319 317 317
306 305 305 305 304 305 306 302 304 305 305 305 305 305 304 303 302 304 305 304 303 304 305 305 304 304 307 311 312 312 311 314 319 320 319 320 320 322 319 320 322 321 319 319 318 315 315
306 305 304 305 305 306 303 303 305 304 305 306 306 305 305 304 303 304 304 302 299 300 303 302 303 304 310 311 312 313 311 317 318 319 321 321 322 322 322 318 315 317 318 319 317 314 313
304 304 304 304 304 305 302 305 303 305 305 306 305 306 306 305 304 304 303 301 300 301 301 301 303 303 304 306 314 313 311 318 320 323 315 323 322 320 319 317 317 317 319 319 315 312 312
304 304 304 305 303 303 302 302 305 304 305 305 305 306 306 305 305 303 302 302 302 302 302 303 305 306 305 311 313 313 312 315 320 320 314 317 321 321 321 321 321 320 319 317 318 312 309
304 304 305 303 303 301 302 304 304 304 305 305 305 305 305 304 302 303 302 302 301 302 290 306 308 308 311 313 314 311 311 317 319 321 315 316 320 322 323 322 322 324 318 314 313 315 318
304 303 305 303 302 302 303 303 303 304 305 305 304 304 302 302 303 303 302 301 302 297 293 302 308 309 312 314 312 312 313 316 319 318 318 317 323 321 321 321 319 319 312 311 310 310 311
304 303 304 303 302 301 301 301 302 303 305 305 304 303 303 301 302 302 303 301 300 293 300 308 310 310 314 313 314 314 316 314 315 316 314 312 312 315 316 314 316 309 309 307 306 309 315
303 303 303 302 302 301 300 300 301 302 304 305 302 303 302 303 302 303 302 298 296 304 302 313 312 308 314 316 315 316 316 315 317 318 317 315 313 311 312 314 311 310 315 317 311 312 317
302 302 303 302 302 301 300 300 301 302 304 304 302 302 302 302 303 302 302 295 300 308 310 309 309 314 315 314 316 316 315 314 311 313 314 317 318 313 310 312 313 310 313 317 311 312 309
302 302 303 302 301 301 300 300 300 301 303 304 302 302 303 303 302 302 301 300 300 305 307 311 314 316 317 315 315 315 314 312 311 309 314 312 314 310 309 309 310 310 311 305 306 303 309
302 302 302 302 301 300 300 299 299 300 302 304 301 301 301 302 303 301 297 308 308 306 308 312 314 312 316 315 317 314 314 311 311 309 308 309 313 312 310 310 308 310 306 311 305 310 310
302 301 301 302 301 301 300 299 299 300 302 303 299 298 300 303 302 303 308 310 308 308 308 311 311 311 313 313 312 312 311 310 310 309 307 308 310 314 312 311 311 310 310 306 306 305 308
301 301 301 303 301 300 300 299 299 299 302 303 296 299 301 304 301 303 310 309 308 310 309 309 308 309 310 310 310 311 311 310 308 309 311 307 310 316 312 307 307 307 308 305 307 307 305
301 301 301 301 301 300 300 299 298 298 301 303 298 297 302 304 307 309 309 310 309 311 311 308 309 308 308 308 310 309 309 308 308 309 309 307 307 310 313 310 307 310 307 304 302 302 306
300 300 300 301 301 300 300 299 298 298 300 302 297 301 300 301 305 310 311 311 312 309 309 307 308 307 308 309 307 309 309 310 307 310 310 306 305 307 309 307 306 307 308 305 305 306 305
300 300 300 300 301 300 300 298 298 298 299 302 297 303 304 303 307 307 309 310 311 311 309 307 310 309 310 311 310 309 309 309 309 312 306 306 306 304 306 307 304 307 309 306 304 305 307
300 300 299 299 302 299 299 298 297 297 298 301 303 304 304 304 304 307 308 309 311 312 310 311 310 310 310 310 309 309 308 308 310 308 307 304 308 303 304 307 307 309 308 307 306 307 307
300 299 299 299 300 300 299 298 297 297 296 297 299 301 303 304 302 305 307 310 311 310 311 310 310 309 309 309 308 306 305 305 306 307 308 308 305 304 304 306 307 310 308 308 307 306 309
299 299 299 299 299 300 299 298 297 296 296 295 296 298 304 304 302 305 306 308 311 310 312 311 310 310 309 305 305 306 305 305 305 305 305 306 305 306 307 305 309 306 307 306 308 307 307
299 298 299 299 299 299 299 299 297 296 296 295 295 298 303 305 303 304 308 308 308 307 310 310 309 307 307 308 309 309 311 311 311 309 309 307 307 309 310 308 305 310 309 308 309 316 307
298 299 297 299 299 299 299 298 298 296 296 295 295 296 300 305 304 305 308 307 306 307 308 310 308 306 306 306 308 311 312 311 315 314 310 310 307 306 309 310 311 309 312 309 311 320 312
299 298 298 298 299 298 298 298 298 297 295 296 294 296 297 301 303 306 309 306 304 304 305 309 309 309 305 305 310 307 310 310 312 315 314 315 314 311 311 311 307 305 307 313 321 318 312
299 298 298 298 299 298 298 297 297 297 297 297 295 294 296 299 300 303 307 310 306 305 307 306 307 306 306 308 308 307 307 312 312 310 310 311 312 314 312 312 308 305 313 318 315 311 311
300 298 298 298 298 298 298 297 297 297 297 296 295 294 295 296 298 299 300 302 304 307 308 308 308 308 307 309 304 305 312 313 313 315 309 312 307 309 307 307 304 307 309 308 307 309 309

GFSGBSN_925_thetae_054.txt.gz
Theta_e
309 309 307 309 308 306 308 309 308 307 307 307 307 307 306 306 306 305 305 305 306 306 306 307 307 307 307 307 309 313 314 315 320 319 318 321 323 324 325 323 321 321 320 319 319 321 321
308 308 308 309 307 307 307 308 307 307 306 306 307 306 306 306 306 305 305 305 306 306 306 307 307 305 306 308 308 312 313 313 317 319 317 320 321 322 321 322 321 320 319 319 319 320 320
307 308 306 307 306 306 306 307 306 305 305 306 306 306 305 305 306 305 305 305 306 306 306 306 306 306 306 306 309 312 313 314 317 318 317 320 320 321 320 321 320 319 321 319 320 319 319
307 306 306 306 305 306 307 304 304 305 306 306 306 306 306 305 305 305 305 305 305 305 305 306 306 305 305 305 305 309 313 314 316 317 318 321 320 320 319 319 320 320 319 321 318 319 319
307 307 306 305 306 306 305 304 306 305 306 306 307 307 307 305 304 303 304 305 306 306 306 306 305 304 304 308 309 309 313 314 318 317 319 320 319 320 319 321 321 320 318 318 320 319 318
306 305 305 306 306 305 304 305 304 306 306 306 306 306 306 305 304 303 304 304 305 304 306 305 304 305 304 309 310 313 313 313 319 318 320 321 321 322 321 321 319 320 318 319 317 319 320
305 305 305 306 304 304 303 303 306 305 306 306 305 306 306 306 304 304 304 303 303 304 304 303 303 305 307 307 312 313 311 316 319 319 321 320 323 325 322 319 316 318 318 317 317 316 318
305 305 305 305 304 303 304 305 305 305 306 306 305 305 306 305 304 304 303 303 302 302 303 302 303 303 303 304 313 313 312 320 319 320 319 320 324 319 320 319 318 318 317 318 319 315 317
305 304 305 304 303 303 302 303 304 305 305 306 305 304 305 305 303 303 303 302 301 302 303 303 305 304 304 306 313 312 313 317 320 319 319 321 321 319 319 320 319 319 318 320 319 315 313
305 304 305 304 303 303 302 302 303 304 305 306 305 305 303 303 303 303 303 302 302 302 305 303 306 305 305 309 314 312 312 316 319 314 315 315 319 320 320 320 319 322 320 318 318 320 321
304 304 304 303 303 302 301 301 302 303 304 305 305 303 302 302 304 303 303 301 302 301 307 305 308 306 310 314 313 312 313 317 316 315 315 317 318 323 322 320 320 322 318 316 315 317 318
304 303 304 303 303 302 302 301 302 303 304 305 305 302 302 303 303 303 302 301 302 307 309 310 309 310 313 313 314 313 316 314 315 316 316 316 316 317 316 315 318 312 314 312 313 316 323
303 303 303 304 303 302 301 301 301 302 303 304 304 302 302 302 302 302 302 303 310 311 306 311 313 311 314 316 315 316 316 317 319 321 320 315 314 314 314 313 313 315 319 323 322 325 323
303 302 303 304 302 302 301 301 301 301 302 303 304 302 302 302 302 302 303 306 312 310 310 309 311 314 316 316 316 315 312 317 314 316 320 321 320 314 313 316 317 318 319 323 320 317 314
303 302 302 303 302 302 301 300 300 300 302 303 303 301 302 303 303 303 305 313 310 308 308 311 315 315 317 315 316 315 315 316 313 314 319 320 318 312 311 311 315 314 320 310 313 309 314
303 302 302 302 303 301 301 300 300 300 301 303 302 302 302 302 303 303 310 312 310 306 309 312 314 314 316 314 317 317 316 313 313 311 310 313 318 312 310 311 311 314 310 317 316 318 316
302 302 302 302 303 302 301 300 300 300 301 303 300 306 302 303 302 311 312 313 310 310 310 313 313 314 315 315 315 314 314 312 312 310 311 312 315 315 313 315 315 313 314 311 312 310 311
302 302 301 301 302 300 301 300 299 299 301 303 302 313 302 304 312 310 312 310 308 312 311 311 311 313 313 313 314 313 313 313 310 311 313 311 315 317 315 309 309 311 313 311 317 315 312
301 301 301 300 302 300 300 300 299 299 300 303 304 305 302 305 314 312 310 311 311 312 312 310 311 311 310 312 314 312 311 310 310 311 312 311 314 316 314 312 310 312 311 309 308 311 314
301 301 300 300 302 300 300 299 299 298 299 302 305 312 308 309 309 312 313 313 313 311 310 309 309 309 310 311 310 312 312 311 309 312 310 309 310 313 315 314 313 314 312 309 314 317 312
300 300 300 300 300 301 300 299 298 298 298 302 304 305 304 311 312 310 312 312 313 313 311 310 311 310 311 312 312 312 312 311 311 310 309 311 315 310 309 310 310 311 312 310 311 313 317
299 300 300 300 299 301 300 299 298 297 296 302 304 305 304 305 307 309 311 312 313 313 313 312 312 312 311 312 311 312 312 312 312 311 310 309 314 310 311 309 309 311 311 311 310 311 310
299 299 299 299 299 300 299 299 298 297 295 299 299 300 303 306 307 310 311 312 312 312 313 312 312 312 312 311 310 309 309 310 310 311 311 311 312 313 314 309 310 314 311 311 311 310 311
299 299 298 299 299 299 300 299 299 297 296 295 296 298 303 307 307 308 308 309 312 312 313 313 312 312 308 306 308 309 310 310 310 309 309 310 312 312 314 310 316 311 309 310 310 310 310
298 298 298 298 299 300 299 299 299 297 296 295 295 299 302 306 305 307 309 309 310 311 313 312 312 310 309 310 312 313 313 312 312 312 310 309 312 313 315 313 311 312 310 310 311 313 310
299 300 299 298 299 299 299 298 299 298 297 295 294 295 299 303 304 305 308 309 311 312 312 312 310 308 309 312 313 313 313 313 313 313 311 309 310 313 312 313 313 314 314 312 310 323 314
300 300 299 299 298 299 298 298 298 298 298 297 296 295 296 301 301 304 308 310 307 308 312 312 311 311 308 313 314 313 313 312 314 314 314 314 313 314 313 311 311 309 308 313 323 320 313
300 300 299 298 298 298 298 298 298 298 297 297 297 294 295 298 298 299 300 306 309 309 312 311 312 311 312 314 314 313 313 313 313 313 312 313 313 314 313 312 312 307 314 317 315 313 312
300 299 299 298 298 298 298 297 298 298 297 297 296 295 294 295 297 297 298 298 299 304 310 309 311 311 312 314 311 311 313 314 314 314 310 313 311 312 311 311 308 308 309 310 310 311 311

GFSGBSN_925_thetae_057.txt.gz
Theta_e
309 309 308 308 307 307 307 308 308 307 306 307 308 308 308 307 307 307 306 306 306 306 307 307 307 308 306 309 308 309 316 319 321 320 316 319 318 322 324 323 320 320 321 320 320 321 321
308 309 307 307 307 306 308 308 306 306 307 308 308 307 307 307 306 306 306 306 306 306 306 305 306 305 306 309 306 306 311 315 320 320 316 317 318 320 322 322 321 320 321 320 320 321 321
308 309 307 306 307 307 307 305 306 307 307 307 308 308 307 307 306 306 306 306 306 306 306 306 306 306 306 307 306 312 311 312 315 320 317 316 317 319 321 322 321 320 321 320 320 320 320
308 307 307 307 308 305 305 305 305 306 307 307 307 307 307 307 307 306 305 305 306 306 306 306 306 306 306 305 305 306 309 312 314 319 317 316 318 319 320 319 321 321 321 322 320 320 319
307 307 306 307 305 305 304 305 306 307 307 307 307 306 306 307 305 305 304 304 305 306 306 306 306 306 305 306 304 306 309 314 316 319 316 317 320 320 320 321 322 321 320 319 318 318 320
307 306 306 307 305 304 304 306 306 306 306 307 306 306 307 307 305 305 304 304 305 304 305 306 305 305 304 305 307 309 311 314 316 318 318 319 321 322 320 321 322 320 319 317 317 320 318
306 306 306 306 305 305 303 304 305 305 306 307 305 306 307 305 305 304 305 305 306 306 305 305 305 304 305 305 308 307 314 315 318 317 319 322 323 325 321 318 316 315 317 316 316 319 319
306 305 306 305 305 304 303 303 304 305 305 306 306 306 306 304 304 302 304 304 304 304 305 303 303 303 303 304 308 312 313 315 320 319 317 324 319 321 319 317 317 317 317 317 318 317 317
306 305 305 305 304 304 303 303 303 304 305 305 307 305 304 303 303 304 304 303 301 303 305 304 305 305 304 306 310 315 314 316 318 317 320 320 320 318 321 319 318 317 318 317 318 318 317
305 304 305 305 304 304 303 303 302 303 304 304 305 305 303 302 304 304 303 303 303 303 308 306 308 307 306 308 311 310 314 315 317 320 320 318 319 320 322 320 318 318 316 317 319 318 316
305 304 304 305 304 304 303 302 302 302 303 304 305 305 302 304 304 304 304 303 304 304 313 306 306 304 307 313 313 313 312 316 316 314 317 319 319 322 320 320 318 318 319 319 319 320 320
304 303 304 305 304 303 303 302 302 302 302 303 304 304 303 305 305 304 303 303 303 311 314 311 310 311 314 314 314 314 315 313 313 314 315 316 313 318 320 315 319 319 318 317 317 319 324
304 303 303 304 304 303 303 302 302 301 301 303 304 304 303 304 305 305 304 305 312 314 309 315 314 315 315 316 317 315 316 317 318 319 317 312 312 315 314 316 315 319 321 326 326 327 325
303 303 303 303 305 303 303 303 301 301 301 302 304 302 304 304 305 304 304 309 317 312 312 311 313 315 317 316 316 316 318 319 318 319 320 323 321 312 312 316 319 320 322 326 324 325 321
303 303 303 303 304 303 302 302 301 301 300 302 304 305 305 306 305 305 307 318 311 310 310 313 315 317 316 316 316 316 318 317 317 317 321 321 320 312 313 314 317 319 322 314 315 313 316
303 302 302 302 303 302 302 302 301 301 300 302 304 305 306 304 305 306 313 311 311 308 310 313 316 315 315 315 317 318 317 315 314 313 313 316 320 314 313 314 313 318 314 320 321 320 317
302 302 302 302 302 302 301 301 301 300 300 303 305 309 306 305 305 312 315 313 312 311 311 314 314 315 315 315 315 316 316 314 313 312 313 315 316 316 314 316 317 315 317 315 315 314 315
302 302 302 302 302 301 301 301 300 300 300 304 307 315 306 307 314 315 314 312 309 313 313 313 313 314 315 315 315 315 316 315 312 313 314 314 316 318 317 312 312 313 316 315 320 318 315
301 301 301 301 301 302 301 300 300 299 299 303 306 310 307 309 316 315 313 314 313 313 312 312 313 313 313 314 315 314 313 312 312 313 314 313 316 317 316 313 312 314 314 313 311 316 318
301 301 301 301 300 301 301 300 299 299 298 303 307 311 312 313 312 315 314 315 314 313 312 310 311 312 313 313 313 314 314 313 311 312 311 311 313 316 318 318 315 315 314 312 316 319 314
300 300 300 300 300 300 301 300 299 297 298 303 306 306 305 313 314 313 314 314 313 313 312 311 312 312 313 314 313 313 313 313 313 310 311 313 318 312 312 312 313 314 314 313 314 314 320
300 300 300 300 300 300 301 300 299 297 297 302 303 305 304 306 310 312 312 313 313 314 313 313 313 312 312 312 312 313 313 313 313 312 312 312 316 313 314 311 311 313 312 313 312 312 312
299 299 299 299 300 300 300 299 299 297 296 299 299 301 304 307 310 312 312 313 313 313 314 313 312 312 312 313 312 311 311 311 311 312 313 313 314 315 316 311 311 314 313 312 313 312 313
299 299 298 299 299 300 300 299 299 298 296 296 297 299 303 306 308 310 310 311 313 314 314 314 313 313 310 309 310 311 311 311 311 311 311 313 313 313 315 312 318 314 311 311 312 312 311
299 299 300 299 299 299 300 299 299 299 297 297 297 299 300 302 304 307 310 311 312 313 314 314 313 310 310 312 313 313 313 313 313 312 311 311 312 314 316 316 315 311 310 312 313 313 311
299 300 301 300 300 299 299 299 299 298 298 297 297 297 299 300 304 304 307 309 313 314 314 314 311 311 312 314 314 313 313 312 313 314 311 311 312 313 313 316 316 317 314 311 312 320 313
300 300 300 299 299 299 299 299 299 298 298 297 297 297 297 298 299 302 307 308 310 311 314 314 312 313 311 314 316 314 313 312 314 313 314 313 314 314 313 314 312 311 314 315 323 321 315
299 300 299 299 298 298 299 298 298 298 298 297 297 297 296 297 296 296 298 299 302 310 313 313 313 313 314 315 315 315 314 313 313 312 312 313 313 313 312 313 314 310 311 317 315 315 314
300 300 299 299 298 297 299 298 299 298 298 297 297 297 296 297 297 295 296 298 300 300 304 311 313 312 313 315 314 314 314 314 312 313 311 313 312 312 312 313 311 312 314 312 312 313 313

GFSGBSN_925_thetae_060.txt.gz
Theta_e
310 310 309 308 308 309 307 308 307 307 307 308 309 309 309 308 308 308 307 307 307 307 307 307 307 307 307 308 309 308 309 312 318 321 318 320 317 322 324 323 321 322 320 319 320 321 321
309 308 308 308 309 306 307 306 306 306 308 309 308 309 308 308 308 308 307 307 307 307 306 306 304 304 306 307 306 307 309 314 317 319 319 318 317 320 321 322 322 320 321 320 319 321 321
309 308 308 308 308 307 305 306 308 308 308 308 308 308 307 307 307 307 307 306 306 306 307 306 307 306 306 306 306 312 309 310 315 318 320 316 317 317 320 322 321 320 321 320 319 320 321
308 308 308 308 307 306 306 305 306 307 307 308 308 307 307 307 307 306 306 306 305 306 306 307 305 306 306 305 305 305 308 309 311 314 319 316 316 317 320 320 321 322 320 323 320 320 320
308 307 307 308 307 306 305 305 306 306 307 307 307 307 307 307 307 305 305 304 305 306 307 307 307 306 306 305 305 305 306 308 312 314 318 318 318 320 319 322 323 322 321 321 321 319 319
307 307 307 307 307 306 305 304 305 306 306 306 307 306 307 306 304 304 302 303 305 305 306 306 306 306 305 305 307 306 307 309 313 317 319 319 320 321 321 322 325 322 323 319 320 319 319
307 307 306 307 306 305 305 304 304 305 306 306 306 306 306 306 304 301 306 306 306 307 305 306 305 305 305 304 308 308 310 307 309 319 320 318 321 321 321 319 318 317 319 319 317 319 319
306 306 306 307 306 305 305 304 303 303 304 305 306 306 305 305 302 304 305 304 305 304 304 304 303 303 304 304 307 309 309 310 311 320 318 320 321 319 319 319 318 316 316 317 316 319 318
306 305 306 306 306 305 304 304 303 303 303 304 305 306 306 303 303 305 303 303 303 304 304 304 305 305 305 305 307 310 313 313 313 317 318 319 318 319 320 319 319 316 316 315 317 317 316
305 305 305 305 306 304 304 303 303 303 303 303 304 306 306 304 305 304 304 304 304 304 308 308 308 308 307 304 307 311 313 315 318 317 318 320 318 320 321 321 318 318 316 317 319 318 318
305 305 304 305 305 304 304 304 303 303 303 302 303 305 305 303 306 304 304 303 303 304 312 308 307 305 307 306 310 313 313 315 317 317 318 317 319 320 319 321 318 317 316 318 318 318 319
305 304 304 304 305 305 304 304 304 303 302 302 303 305 304 306 306 305 304 305 305 310 315 310 306 308 311 312 314 313 315 314 314 314 315 316 313 318 317 319 319 318 318 317 318 319 323
304 304 304 304 304 305 303 303 303 303 302 302 303 305 303 304 306 305 304 305 310 314 311 313 312 314 314 315 313 312 314 317 319 319 317 315 313 313 314 320 319 318 318 321 324 323 323
304 304 304 304 304 304 303 303 303 302 302 301 303 304 305 305 305 305 304 309 313 313 312 312 314 315 316 316 314 316 319 320 318 316 317 319 318 313 312 318 319 320 319 320 321 323 317
303 303 303 303 303 304 303 302 302 301 301 300 305 307 306 307 306 305 307 312 311 309 311 313 316 316 317 316 316 318 318 318 319 318 321 320 318 312 313 315 317 320 322 314 315 312 314
303 303 303 303 302 303 303 302 302 301 300 302 305 306 307 305 306 306 313 310 312 309 311 313 316 315 315 316 317 318 317 315 315 313 315 316 318 313 315 314 314 317 317 318 315 313 318
303 302 302 302 302 303 302 302 301 301 299 303 306 310 307 307 307 311 313 313 313 312 311 314 315 314 314 315 316 316 316 314 313 312 312 316 318 318 316 317 318 317 320 316 314 313 315
302 302 302 301 301 302 302 301 301 300 299 303 307 313 307 308 315 316 315 312 309 313 313 314 313 314 314 314 315 315 316 315 312 313 315 314 316 319 317 312 313 315 317 317 322 319 312
302 301 301 301 301 301 302 301 300 300 299 301 305 310 309 311 316 315 314 314 313 313 312 312 313 313 313 314 315 314 315 313 312 313 314 313 314 315 315 314 312 314 314 314 312 314 317
301 300 300 301 300 300 301 301 300 299 299 302 307 309 308 314 313 315 315 316 315 313 312 311 312 312 313 313 313 314 314 313 312 311 311 312 313 315 315 317 315 314 314 313 312 311 314
300 300 300 300 300 300 300 300 300 297 300 302 305 306 305 310 314 312 313 313 314 314 313 312 312 312 313 314 313 314 314 313 313 309 311 313 312 308 312 314 311 314 314 313 307 312 309
300 299 299 300 300 300 301 300 300 297 298 301 303 304 303 305 308 312 312 313 313 314 313 313 313 312 312 313 313 313 313 313 313 311 312 312 311 311 311 311 312 312 312 313 312 312 311
300 299 300 300 300 300 300 300 300 298 297 298 298 300 303 305 308 311 313 313 314 313 314 313 313 312 312 313 311 310 310 310 311 311 311 313 311 311 312 311 311 311 311 311 312 311 312
299 299 300 301 300 300 300 299 299 299 297 297 297 299 301 305 306 308 309 310 312 313 314 314 313 313 310 309 309 310 310 310 310 310 310 312 312 312 313 311 312 314 310 310 311 311 310
299 299 300 301 300 299 299 299 299 299 298 298 297 298 298 300 301 301 307 308 310 312 313 314 313 309 310 312 313 312 313 312 313 311 310 310 311 313 313 312 313 312 310 311 311 312 310
299 299 301 300 300 299 299 299 299 298 298 297 298 297 298 299 302 299 304 306 310 313 314 314 311 310 312 313 315 316 315 312 314 314 311 310 311 311 312 314 316 317 312 311 311 318 309
299 299 300 299 299 298 299 299 298 298 298 297 298 298 297 297 298 297 303 304 305 310 313 313 312 312 310 314 316 314 313 312 314 314 313 312 312 314 313 315 311 315 313 312 320 319 314
299 299 300 299 299 297 299 299 299 298 298 298 297 297 298 298 297 296 297 298 299 304 311 311 313 312 312 315 314 314 312 313 313 312 312 314 314 315 314 315 310 311 310 316 314 313 313
300 299 300 299 298 297 298 299 299 298 298 298 297 297 297 296 296 296 296 296 296 297 300 302 310 313 312 313 313 313 314 312 311 314 311 311 310 311 310 311 310 311 311 311 311 311 312

GFSGBSN_925_thetae_063.txt.gz
Theta_e
310 310 310 309 309 308 307 306 308 309 308 308 309 309 308 308 308 308 308 307 307 307 307 307 306 305 305 307 307 308 308 312 312 317 319 319 318 322 325 324 321 322 320 319 319 319 319
310 309 309 309 308 307 307 306 306 307 308 308 308 308 308 308 308 308 308 306 307 307 306 305 306 304 306 307 304 305 307 308 313 317 318 319 316 318 321 322 321 320 320 320 319 320 320
309 309 309 309 308 307 307 305 306 306 307 308 308 307 307 307 308 308 307 307 307 306 305 307 307 305 306 305 305 306 309 310 313 316 318 318 318 317 318 321 320 320 321 320 319 320 321
309 308 308 308 307 307 307 305 305 306 307 307 307 307 307 307 307 305 305 305 305 306 306 306 306 306 305 303 304 305 305 307 310 315 317 317 317 316 318 319 321 321 319 322 319 319 319
308 308 308 308 307 307 306 305 305 305 306 306 307 307 306 306 306 305 303 303 304 306 306 307 306 306 305 304 305 304 305 306 311 312 315 317 316 318 317 320 322 322 321 320 320 318 320
308 308 307 308 307 306 305 305 305 304 305 305 306 306 306 306 305 303 304 305 304 305 306 306 306 306 305 305 304 304 305 308 312 314 316 318 318 317 319 320 324 324 320 319 319 318 319
307 307 307 307 307 306 305 305 304 304 304 304 305 306 307 305 304 304 304 305 303 304 305 306 305 305 305 303 306 308 309 308 309 313 321 318 320 320 318 319 317 319 320 318 317 317 318
307 307 306 306 306 306 306 305 304 304 304 303 304 305 306 306 304 304 303 304 304 303 304 304 305 303 304 304 306 308 308 307 309 311 318 320 320 317 317 318 319 316 318 319 316 317 318
306 306 306 306 306 306 305 305 305 305 304 303 303 304 306 305 304 304 303 304 302 303 304 305 305 306 305 305 307 309 308 309 308 311 319 320 318 317 319 318 320 318 314 315 317 316 314
306 306 305 306 305 306 305 305 305 305 304 303 303 304 305 305 305 305 304 303 304 304 308 310 308 306 307 304 308 308 305 310 307 315 315 318 317 318 319 319 317 319 314 315 317 316 317
305 305 305 305 305 305 304 304 304 304 304 303 303 304 305 305 305 304 303 303 303 304 310 309 307 305 307 307 309 308 311 312 309 317 315 319 318 320 322 320 319 317 315 317 316 315 316
305 305 304 305 305 304 305 304 303 303 303 302 302 304 305 305 305 305 305 304 305 306 313 310 306 309 309 310 312 313 315 314 314 316 314 316 315 318 317 317 319 319 316 315 315 316 318
304 304 304 304 304 304 304 304 303 303 303 302 301 305 305 305 305 305 304 304 303 309 310 314 312 313 314 314 313 314 315 317 317 314 316 315 314 313 316 319 317 320 315 315 317 314 317
304 304 304 304 304 304 304 303 303 303 302 300 302 306 304 304 305 305 304 304 306 310 310 311 314 314 315 315 314 316 318 319 314 312 315 314 321 316 313 315 321 321 314 314 316 317 316
304 303 303 303 303 303 303 303 302 302 301 299 304 306 305 307 306 305 305 305 310 307 311 312 314 316 316 317 316 317 317 319 316 317 314 315 314 312 313 315 317 320 317 314 312 310 308
303 303 303 302 303 302 303 303 302 302 300 300 304 306 306 306 305 305 303 309 309 307 310 313 317 316 315 316 318 318 316 315 317 316 314 315 315 314 314 315 315 317 316 316 307 311 315
302 302 302 302 302 302 302 302 301 301 300 301 305 305 307 306 306 307 307 307 312 310 310 313 315 313 314 315 315 315 314 313 312 311 313 316 314 316 316 317 319 317 318 315 313 310 312
302 302 301 301 301 301 302 301 301 301 300 301 302 306 307 307 306 309 308 311 310 313 311 313 313 314 313 313 313 315 315 313 311 311 315 313 315 317 318 315 315 316 318 315 313 315 307
301 301 301 300 301 301 301 301 301 300 300 301 303 302 307 309 313 311 312 313 313 313 311 311 312 312 312 313 314 313 313 311 311 311 312 312 312 312 313 311 312 315 315 317 312 311 309
300 300 300 300 301 301 301 301 300 297 300 301 302 304 301 307 308 312 313 313 315 312 312 310 311 310 312 312 311 313 313 312 311 309 311 311 312 312 311 312 312 312 315 311 311 312 313
300 299 300 300 301 301 301 300 300 296 299 302 298 303 304 307 309 306 309 313 313 314 311 310 311 311 312 312 312 313 312 312 311 309 310 311 308 307 312 313 309 313 313 311 307 310 308
299 298 300 301 301 300 300 299 300 297 297 298 298 299 299 302 304 306 310 313 313 314 312 313 312 311 310 313 311 312 311 311 312 310 311 309 308 306 308 311 310 310 311 312 310 310 310
299 299 300 301 301 300 300 299 299 298 297 296 296 297 300 301 306 309 310 309 312 312 313 312 312 311 312 312 309 309 307 307 308 309 309 310 307 306 309 310 310 310 310 310 311 310 310
299 299 300 300 300 299 299 300 299 300 297 297 297 298 299 299 300 302 302 308 310 311 314 314 312 311 309 308 308 307 307 307 308 308 307 309 309 307 306 308 309 306 309 309 310 310 309
299 299 300 300 299 299 298 299 299 299 297 297 298 296 297 296 297 299 300 305 308 309 311 313 312 307 307 310 310 311 312 312 311 310 309 307 309 309 309 305 306 312 309 310 310 310 308
299 298 300 300 299 298 298 299 298 299 298 296 298 297 296 296 297 298 300 302 305 309 313 312 310 309 310 310 312 313 311 312 314 313 309 308 308 307 307 311 315 315 311 310 311 315 309
299 299 299 301 299 297 297 299 298 298 298 297 296 297 297 296 294 295 296 298 302 304 309 312 311 311 309 310 312 308 310 309 312 314 312 310 310 310 311 310 310 313 312 311 318 315 311
299 299 299 300 299 297 298 299 299 299 298 298 297 296 297 295 294 295 295 296 296 299 307 304 309 310 309 312 312 312 309 310 311 310 312 312 313 314 313 314 310 311 310 317 313 312 311
300 299 300 299 298 297 298 298 299 298 299 298 298 297 297 297 295 296 295 296 296 296 297 299 304 311 311 310 309 310 312 309 308 311 308 310 307 310 309 310 307 309 311 311 310 311 311

GFSGBSN_925_thetae_066.txt.gz
Theta_e
310 310 309 309 309 308 308 307 306 307 308 309 309 308 307 308 308 309 308 308 306 307 307 305 306 306 305 306 306 305 308 306 308 314 316 318 315 319 323 323 324 323 321 321 321 323 324
310 309 309 309 309 308 308 307 305 306 307 308 308 308 307 308 308 308 308 307 306 306 307 304 305 304 305 306 303 306 305 310 311 313 315 318 317 317 321 322 323 322 321 321 320 319 320
309 309 309 309 308 307 307 306 306 305 307 307 307 308 307 307 307 307 307 307 307 306 305 307 307 304 306 304 304 306 305 308 312 312 317 317 317 318 318 321 320 319 322 321 321 319 319
309 309 308 308 308 307 307 306 306 305 305 306 306 307 307 306 306 305 305 305 305 305 306 306 306 306 304 303 304 304 305 306 308 314 316 317 318 315 317 318 320 321 320 324 320 319 319
309 308 308 307 308 307 307 306 305 305 305 305 306 306 307 306 306 305 306 305 305 305 306 307 306 305 303 304 306 305 305 305 310 312 316 317 316 316 316 320 322 321 321 320 321 318 320
308 308 307 307 307 307 307 306 306 305 305 304 304 305 306 307 304 306 307 305 305 305 306 306 306 305 304 305 304 304 304 307 310 313 317 318 319 316 318 321 324 322 320 319 321 318 319
308 308 307 307 306 306 306 306 306 306 305 304 304 304 305 306 304 304 303 305 303 303 303 305 305 304 305 304 303 308 306 306 307 310 317 320 320 319 318 318 318 320 318 321 318 317 319
307 307 307 306 306 306 306 306 306 305 306 304 303 303 305 305 306 304 302 304 303 302 303 303 303 304 304 304 305 308 306 307 307 313 315 321 319 315 316 318 319 320 319 318 316 317 318
307 307 306 306 306 306 305 305 304 304 304 304 303 303 304 305 305 304 303 303 302 303 304 305 305 305 305 305 305 308 308 309 308 311 311 318 316 316 317 319 320 318 319 317 316 315 314
305 306 306 306 305 305 306 305 304 305 304 304 303 303 304 305 305 305 303 303 303 303 306 307 307 306 306 305 307 307 307 310 309 312 310 319 316 317 318 319 317 319 313 314 316 316 319
305 306 305 305 305 305 304 305 304 304 304 304 303 303 305 305 305 304 303 303 304 303 312 309 308 305 306 307 308 307 306 309 312 313 313 318 317 318 319 318 315 317 313 314 315 315 314
303 305 305 305 305 305 304 305 304 304 304 303 302 304 304 305 305 305 304 304 304 302 312 310 307 310 309 309 308 307 312 310 311 315 316 316 314 316 317 317 318 317 314 314 314 315 316
303 304 304 304 304 304 304 304 303 303 303 302 301 304 305 304 304 304 304 304 301 310 307 315 314 313 313 310 313 313 310 310 317 316 317 316 315 314 315 317 317 318 314 317 322 322 316
302 303 304 304 304 304 303 303 303 303 303 300 301 306 304 303 305 305 304 301 304 309 309 311 314 314 315 315 315 315 316 317 313 313 316 318 321 316 313 316 320 319 313 312 317 318 316
303 303 303 303 303 303 303 303 303 303 301 301 304 306 305 306 305 305 303 301 303 300 307 312 313 315 316 316 317 318 316 317 316 313 313 313 315 313 314 315 316 319 317 312 308 307 307
302 302 303 302 302 302 302 302 302 302 301 302 304 305 305 306 305 305 300 307 304 306 309 311 316 313 317 318 318 316 316 316 316 315 311 311 315 313 314 315 315 318 315 315 306 310 314
301 302 302 301 301 302 302 302 302 302 301 301 305 305 306 306 306 302 301 302 308 310 309 312 314 313 314 314 316 314 313 312 312 315 313 311 311 315 315 317 319 318 318 314 311 308 312
301 301 301 301 301 301 302 301 301 301 301 301 300 304 306 306 306 304 307 310 310 312 310 311 312 313 313 312 312 313 314 312 310 310 316 314 312 317 315 315 315 316 317 313 313 311 304
300 301 301 301 301 301 301 300 299 300 301 301 301 301 305 307 313 307 310 312 312 312 312 311 311 311 311 312 312 312 312 310 310 311 312 312 310 309 314 313 313 318 315 315 310 305 303
299 299 300 301 301 301 301 299 298 297 299 302 300 299 300 305 306 310 310 313 314 311 311 309 310 309 311 311 310 313 312 311 309 309 312 310 311 309 310 311 311 313 316 314 312 308 311
299 298 300 301 301 301 300 300 297 296 297 301 296 299 301 301 305 305 307 312 313 314 311 310 310 310 311 312 312 313 312 311 311 309 310 308 305 306 312 312 308 311 314 312 309 315 314
298 299 300 301 301 300 300 299 298 296 296 296 296 296 296 298 302 304 310 311 313 313 312 312 312 311 311 312 310 312 311 310 311 309 310 307 307 304 307 311 309 310 311 312 310 309 310
298 299 300 301 300 300 299 300 299 297 296 296 296 296 298 298 302 308 306 305 310 312 312 311 312 311 312 311 308 307 307 307 308 308 309 308 306 304 306 309 309 308 309 310 311 309 310
298 298 300 300 299 299 299 299 299 297 297 297 296 295 294 298 297 299 300 302 308 309 311 313 311 311 309 307 307 306 306 306 306 307 306 308 306 305 305 306 306 305 308 308 310 310 308
298 299 300 300 298 297 298 299 299 299 297 297 297 295 293 294 295 297 298 301 305 307 311 311 311 307 306 309 308 309 309 311 310 309 307 306 307 308 308 304 305 309 309 308 309 309 307
299 299 300 300 299 297 297 299 299 298 298 296 297 297 294 294 295 295 297 299 303 308 310 312 309 308 308 309 309 311 310 309 312 312 307 307 306 306 305 309 313 313 310 308 309 311 307
299 299 299 300 299 298 297 298 299 299 298 298 296 297 296 293 293 294 294 294 297 302 303 308 304 309 308 309 311 308 308 308 311 312 311 311 311 309 308 305 308 307 311 310 313 312 310
300 299 299 300 299 297 297 298 298 299 299 298 297 297 296 295 293 295 294 294 296 297 299 302 306 309 309 312 312 311 308 308 309 308 309 309 311 312 311 311 309 310 311 315 311 311 310
300 299 299 299 298 297 297 298 299 299 299 299 296 296 297 297 294 295 295 295 295 295 297 298 301 303 312 309 308 309 311 307 306 310 307 310 306 308 307 308 306 306 308 310 309 311 311

GFSGBSN_925_thetae_069.txt.gz
Theta_e
310 310 309 309 309 308 308 308 306 306 307 308 309 308 307 307 307 309 309 309 307 305 306 305 304 305 305 305 305 304 306 308 309 308 313 315 316 318 321 321 323 321 322 321 325 325 325
310 309 308 308 308 308 308 306 306 306 306 307 308 308 308 306 306 307 308 307 307 307 306 304 304 304 305 304 304 306 305 306 307 311 313 315 314 315 319 321 323 322 321 322 323 323 320
310 309 309 308 309 308 307 307 306 306 305 306 307 307 307 307 306 305 305 306 307 307 305 307 306 304 305 303 304 304 305 306 306 310 314 315 317 315 317 321 320 321 322 322 321 320 322
309 309 308 308 308 307 307 307 307 306 305 305 305 305 306 307 306 306 306 305 305 305 306 307 307 306 303 302 304 304 305 305 307 313 313 315 317 314 316 317 319 321 321 324 322 321 320
309 309 308 307 307 307 307 306 307 307 307 305 304 304 305 306 307 306 307 308 305 305 306 306 306 304 303 304 306 305 306 306 307 312 313 316 317 314 316 318 319 321 323 322 321 320 319
309 308 308 307 307 306 307 306 306 306 306 305 303 304 304 305 306 306 306 304 304 306 306 306 305 304 303 304 304 304 305 305 309 310 315 317 320 316 315 318 320 322 321 320 321 320 319
308 308 307 307 307 306 307 306 305 305 306 305 304 303 304 305 306 306 304 306 302 302 303 304 304 303 304 303 303 306 306 306 306 309 316 318 317 316 317 316 317 317 318 320 318 318 320
307 307 307 306 306 306 306 305 305 305 305 304 304 303 303 305 306 305 302 302 302 301 302 302 302 304 304 304 304 307 306 307 305 310 314 321 314 313 315 317 318 318 318 319 317 317 319
305 307 306 306 306 306 306 305 305 305 305 305 304 303 303 305 305 304 302 302 302 303 304 305 305 305 304 304 305 307 307 307 306 308 311 317 317 315 317 318 319 318 317 317 318 315 314
303 306 306 306 306 305 305 304 305 305 304 304 304 303 304 305 305 304 303 303 303 303 306 308 307 305 305 305 307 307 307 308 308 310 312 318 315 316 318 319 317 319 315 315 316 317 320
302 306 306 305 305 305 305 304 304 304 304 304 303 303 304 304 304 304 303 303 304 303 303 310 308 305 306 308 308 307 306 310 308 310 309 317 317 317 318 318 315 317 313 314 315 316 315
301 304 305 305 305 305 304 304 304 304 304 303 303 304 304 304 305 305 304 304 304 299 305 310 309 310 310 309 307 307 308 310 311 312 314 317 313 315 317 316 315 316 313 313 313 314 316
301 302 304 304 304 304 304 304 304 304 304 303 303 304 305 305 304 304 304 304 299 308 307 312 313 310 309 310 311 312 312 313 314 316 317 318 316 315 314 316 317 315 314 316 319 320 318
301 301 303 304 303 303 303 303 303 303 303 302 302 305 305 303 305 304 304 298 304 309 310 311 313 313 315 314 313 313 312 315 313 314 315 319 320 316 313 315 316 315 312 312 318 319 316
301 301 302 303 303 303 303 303 303 303 302 302 304 305 305 305 305 304 300 299 301 299 305 311 312 317 314 315 316 317 316 316 314 313 314 314 316 314 316 315 315 317 319 309 307 305 308
300 301 302 302 302 302 302 303 302 303 302 302 305 304 305 306 305 304 298 304 300 304 308 310 314 312 317 318 317 315 316 316 316 313 310 310 316 313 315 315 315 317 313 315 304 309 314
300 301 301 302 301 302 302 302 302 302 302 301 304 304 305 305 305 301 300 300 306 308 308 311 313 313 313 315 315 313 313 312 313 314 310 308 311 314 316 317 318 319 319 314 310 307 312
300 300 300 301 301 302 302 301 301 302 302 301 299 302 305 306 301 300 306 309 309 311 308 310 311 312 312 311 313 313 313 311 309 312 314 311 311 315 316 313 315 317 318 311 310 310 303
300 299 300 301 301 301 300 298 300 301 300 301 300 300 304 306 304 304 309 312 311 311 311 311 311 310 310 311 313 312 311 310 310 311 312 311 311 315 315 313 314 318 317 313 307 303 303
300 298 300 301 300 300 299 297 298 300 296 302 297 299 299 302 303 309 308 312 313 310 311 309 309 309 310 311 309 312 311 311 308 309 312 311 309 308 310 309 312 317 318 313 309 307 308
299 298 300 301 300 299 299 298 297 297 296 299 294 298 298 299 305 305 306 310 312 313 310 309 310 309 310 311 311 312 311 311 309 309 309 308 310 306 311 311 307 310 314 316 308 315 313
299 299 300 300 299 298 298 298 297 297 295 296 294 295 294 296 299 304 306 309 311 311 311 312 311 311 310 310 310 311 310 310 310 308 309 305 306 303 306 310 309 309 310 314 314 312 313
298 299 300 299 299 298 299 298 298 296 296 295 295 295 295 297 297 305 302 305 309 309 311 310 311 310 311 310 307 306 306 306 307 307 308 307 305 303 304 308 307 308 307 309 311 308 311
298 299 300 299 298 297 298 297 298 298 296 296 295 293 293 297 296 297 298 300 305 306 310 310 311 310 308 305 306 305 305 305 306 306 305 305 304 304 304 304 305 306 307 307 309 310 308
298 299 300 300 298 297 298 296 297 298 298 297 296 293 291 293 294 296 296 299 301 305 309 310 311 306 305 306 307 308 307 309 309 308 307 305 305 307 307 303 305 308 308 308 308 308 307
299 300 300 300 298 297 298 297 299 299 298 297 296 296 292 291 293 295 295 297 301 304 307 310 308 305 307 309 309 310 309 309 311 311 307 305 304 305 305 309 311 308 310 306 307 310 309
300 300 300 300 298 297 297 297 297 298 298 298 296 296 294 292 292 293 293 293 294 300 301 303 303 306 307 310 312 308 309 307 310 310 310 310 311 307 308 305 306 305 309 307 310 309 309
300 300 299 299 298 297 297 297 298 298 299 298 297 297 296 292 293 294 294 293 296 296 298 301 304 307 309 313 313 310 306 306 307 307 308 308 310 310 306 308 306 307 310 311 308 310 309
300 299 299 298 298 297 297 298 299 298 299 298 296 295 296 296 295 295 295 295 295 295 296 298 300 301 305 310 308 309 310 307 306 310 305 308 305 307 306 306 304 305 308 308 308 310 310

GFSGBSN_925_thetae_072.txt.gz
Theta_e
311 309 309 309 309 308 308 308 306 306 306 307 308 308 308 308 306 306 308 308 308 306 305 304 305 306 305 304 303 304 306 311 311 313 309 314 317 316 320 321 322 322 321 324 325 325 324
310 310 309 308 309 307 308 308 307 306 306 306 306 307 307 308 306 306 305 307 307 307 305 304 306 306 304 303 303 305 305 305 307 308 310 313 315 314 318 321 322 321 321 323 326 324 320
310 310 309 308 307 308 308 307 307 306 308 306 305 306 306 306 307 307 306 305 307 307 307 307 305 304 304 302 303 303 305 305 306 306 310 313 315 314 317 321 319 320 324 323 324 322 322
310 309 309 308 308 306 307 307 306 306 307 307 306 304 305 305 307 307 307 308 303 304 306 307 307 305 303 302 304 304 305 305 307 310 310 313 316 313 316 317 319 321 321 324 322 322 321
310 309 309 308 307 307 306 307 306 306 306 307 306 304 304 304 306 307 307 307 306 303 306 306 305 304 302 304 305 304 305 305 305 310 313 314 316 315 316 317 318 321 323 320 323 320 323
309 309 308 308 307 307 307 306 305 306 306 306 305 304 303 304 305 306 306 305 305 305 306 306 305 302 303 304 303 303 305 305 306 309 313 315 317 315 314 316 321 321 318 319 323 322 322
308 307 308 307 307 307 306 306 306 306 305 305 305 304 303 304 305 306 305 305 302 303 303 303 303 303 304 303 303 305 305 306 305 310 313 313 314 315 317 315 316 315 317 319 317 320 320
307 305 307 307 307 306 306 306 304 305 305 305 305 304 303 303 305 306 302 300 301 301 302 302 302 302 303 303 304 306 306 306 306 312 309 317 314 312 314 317 316 316 316 317 317 319 320
306 303 306 307 306 306 306 305 305 305 305 304 304 304 303 304 305 304 301 302 302 303 304 305 304 305 304 303 305 306 306 305 307 309 310 316 315 314 316 318 317 316 316 316 317 316 315
305 302 304 306 306 306 305 305 305 304 304 304 304 303 303 304 305 303 302 303 303 302 305 307 306 305 305 305 306 306 306 307 306 310 311 317 313 316 317 319 316 319 314 314 315 317 321
305 302 304 306 305 305 305 304 304 305 304 304 303 303 304 304 303 303 303 303 303 303 310 309 307 305 305 307 307 307 306 308 308 310 310 318 314 318 319 318 315 317 313 314 315 314 315
306 301 303 305 305 305 304 304 304 304 304 304 303 304 304 304 304 304 303 304 303 297 305 310 309 309 307 307 307 306 308 309 309 310 310 313 314 316 316 314 314 312 312 314 313 314 318
307 301 303 305 304 304 304 304 304 304 304 303 303 304 304 304 303 304 304 304 298 304 305 311 310 308 309 310 309 308 310 311 313 314 314 317 317 314 313 316 316 312 313 315 318 316 318
306 300 302 304 304 303 303 303 303 303 303 303 303 305 304 303 304 304 304 299 304 307 307 311 313 312 314 311 312 311 311 313 313 309 315 320 319 316 312 314 315 315 314 311 317 317 316
305 300 301 303 303 303 303 303 303 303 303 303 304 305 305 304 304 304 300 296 302 300 305 310 312 312 314 315 315 314 313 313 312 314 314 316 318 314 315 314 314 316 318 308 306 304 306
303 300 301 303 302 303 302 303 302 303 302 301 305 303 305 305 305 303 296 304 299 302 307 310 312 312 314 315 315 315 316 315 315 313 309 311 318 314 315 314 314 314 310 316 304 309 313
302 300 301 301 301 302 302 302 302 302 302 301 304 303 304 305 305 300 298 301 305 306 308 311 313 312 313 315 313 311 312 312 313 312 307 308 312 316 315 315 315 318 315 311 309 307 312
301 300 300 300 300 300 301 301 302 302 298 301 299 301 304 305 305 298 304 308 309 310 307 309 311 311 311 310 312 312 312 311 310 310 312 309 309 316 316 313 313 316 316 309 308 309 302
300 300 299 300 299 299 299 300 301 300 296 301 298 299 303 305 302 303 307 311 310 311 311 310 310 309 309 310 312 311 311 309 309 311 311 310 309 314 314 313 313 316 316 313 306 304 302
300 299 300 300 299 299 298 298 300 297 296 302 296 299 298 300 301 307 307 310 312 310 310 309 309 308 309 310 308 311 311 310 307 309 311 309 307 308 309 308 311 316 317 316 311 318 310
300 298 300 300 299 299 298 298 297 296 296 298 292 297 297 298 302 303 305 308 311 312 309 307 309 310 309 311 311 311 310 310 308 310 308 308 310 306 308 310 307 311 314 317 317 315 317
300 298 300 299 299 298 298 298 297 296 294 295 293 294 293 294 297 303 304 305 310 309 310 311 310 310 309 309 309 311 309 309 310 307 308 304 307 305 308 309 308 309 309 313 315 315 315
299 299 300 299 298 298 298 298 297 297 296 294 293 294 293 295 297 304 301 302 307 307 310 309 311 309 309 309 307 305 305 305 307 307 307 306 304 304 305 307 307 307 307 309 312 312 314
299 299 300 299 297 298 298 296 297 297 296 296 294 292 291 296 296 297 297 299 302 303 306 307 309 309 307 305 304 304 304 304 305 305 304 304 303 303 303 304 306 306 306 306 309 310 310
299 300 301 299 297 298 298 299 298 297 297 296 295 293 290 292 294 296 295 298 299 302 305 307 310 305 304 305 306 308 306 308 308 307 306 303 304 306 306 302 304 307 307 307 308 309 306
300 300 301 299 298 297 297 298 298 298 298 296 296 295 290 291 292 294 294 295 297 301 303 306 305 301 306 307 309 311 308 308 309 310 304 304 303 305 304 308 309 304 309 305 306 310 307
300 301 301 299 298 297 297 297 297 297 298 297 296 296 293 292 291 292 293 293 293 297 300 302 302 304 305 309 312 313 309 305 309 310 310 308 310 311 309 306 306 303 303 305 310 308 308
301 301 301 300 297 297 297 298 298 298 298 296 296 296 295 292 292 293 293 293 293 294 295 299 303 305 309 312 312 309 306 304 306 306 306 308 307 311 306 311 307 303 309 311 306 308 309
301 300 301 299 297 297 297 299 298 298 297 295 296 295 296 296 295 294 295 295 294 294 293 294 300 300 303 309 309 308 309 305 305 308 304 307 305 306 306 306 303 303 307 307 307 308 310

GFSGBSN_925_thetae_075.txt.gz
Theta_e
311 310 310 309 308 309 308 308 308 308 308 307 306 307 307 307 308 306 306 307 307 307 307 306 306 306 304 303 302 304 306 310 311 312 311 315 317 316 320 322 321 322 324 324 325 325 323
311 310 310 309 309 307 308 308 308 307 308 309 307 305 305 306 308 307 307 305 307 307 307 306 306 305 304 302 302 304 305 306 307 311 309 313 316 313 317 321 322 320 321 324 325 325 321
311 310 310 309 309 308 307 307 307 307 307 308 308 305 304 304 307 307 307 308 305 306 307 307 304 303 303 302 303 304 304 305 306 308 309 311 315 315 316 320 319 321 324 324 325 324 324
311 309 310 309 308 308 308 307 306 306 306 307 307 305 304 305 305 306 307 307 307 303 305 307 306 304 301 302 305 304 305 305 306 308 308 312 313 314 315 316 319 322 322 326 323 324 323
311 309 309 309 308 308 307 307 306 306 306 307 306 305 304 304 304 305 306 305 307 303 305 306 304 303 301 304 304 304 304 305 306 308 311 312 314 315 315 318 321 321 323 322 325 322 323
311 308 308 309 308 307 307 306 306 305 306 307 306 304 304 303 303 304 306 306 306 305 305 305 305 301 303 303 303 304 305 305 307 308 312 314 312 317 315 318 320 321 321 320 322 322 322
311 308 307 308 308 307 307 306 305 305 306 305 305 304 303 303 303 305 305 305 301 302 304 303 302 302 303 303 303 305 305 305 305 308 312 312 313 317 317 315 314 316 318 320 320 321 322
312 308 305 308 307 307 306 306 305 305 305 305 304 303 303 303 304 305 303 300 300 300 301 301 302 301 303 303 304 306 305 305 305 311 312 313 316 313 315 316 315 318 317 319 317 320 321
313 309 305 307 307 306 306 305 304 305 305 304 304 303 303 304 304 304 301 301 302 303 302 304 304 304 303 303 304 306 305 304 306 309 313 315 315 313 316 317 317 315 316 316 317 319 316
313 308 305 306 306 306 305 305 304 304 304 304 303 303 303 304 304 302 302 302 302 302 300 306 305 304 305 304 305 306 305 305 305 311 313 316 314 314 316 318 315 319 314 315 316 320 323
313 308 305 306 306 305 305 304 304 304 304 304 304 303 303 304 303 302 303 302 303 302 303 309 306 305 304 306 305 305 306 307 308 310 312 316 316 315 317 318 315 317 312 314 314 315 316
313 309 304 304 305 305 304 304 304 304 304 304 304 304 303 304 304 303 302 304 303 297 304 310 308 307 306 306 307 306 307 309 308 311 311 313 314 316 316 315 313 311 313 314 313 316 323
312 308 303 303 305 304 304 304 304 304 303 303 304 304 304 304 303 303 303 303 299 304 304 312 309 308 307 307 307 307 310 310 308 314 315 317 317 315 313 318 315 312 315 321 321 322 320
312 307 302 302 303 303 303 303 303 303 303 303 303 305 304 304 304 304 304 298 302 307 310 311 312 309 312 309 311 309 310 310 309 311 317 318 319 317 313 315 316 314 312 315 318 319 318
311 307 301 301 302 303 303 303 303 303 303 303 304 304 304 304 304 304 300 296 300 298 304 311 312 315 316 312 312 313 311 313 311 309 315 318 318 315 315 314 314 316 315 307 307 304 311
311 305 301 301 301 301 302 303 303 303 303 301 304 303 304 304 304 303 298 304 299 301 306 310 313 312 315 314 316 316 314 312 312 311 310 312 319 314 315 314 314 314 309 315 307 313 315
310 304 301 299 300 299 300 302 302 303 300 301 304 302 304 304 304 302 297 302 305 304 307 310 312 311 312 314 312 310 312 313 312 311 308 309 314 317 315 315 317 316 314 310 310 308 313
309 303 300 299 299 299 299 300 302 301 297 302 300 301 303 304 306 300 303 305 308 309 306 309 310 310 310 310 311 311 311 310 310 309 311 309 312 317 318 313 312 314 314 309 313 311 303
308 302 299 299 299 299 298 298 298 298 296 301 298 299 302 305 301 302 305 310 310 310 310 310 309 308 308 309 311 310 310 308 309 310 310 309 308 315 315 313 310 315 315 309 305 304 305
307 302 299 299 299 298 298 298 297 296 298 301 295 299 297 298 299 306 307 309 312 309 309 308 308 307 308 309 307 310 310 309 307 309 311 308 307 308 309 308 310 314 314 312 311 316 311
306 300 299 300 299 298 297 298 297 295 299 298 292 296 296 297 301 302 305 307 311 311 308 307 308 309 308 310 310 311 310 309 307 311 306 307 307 304 307 308 309 311 313 314 313 314 315
304 299 300 300 298 297 297 297 297 296 295 295 293 294 292 293 296 302 303 306 308 308 308 310 310 309 307 308 307 310 309 309 310 307 307 303 305 305 307 309 308 310 309 312 314 314 313
303 299 300 299 298 298 297 297 297 295 295 293 292 293 293 295 297 302 299 301 306 305 309 307 309 308 308 308 306 304 304 304 306 306 306 305 304 305 307 306 307 308 308 308 311 312 314
302 300 300 299 297 297 296 297 297 297 295 295 294 291 292 295 297 297 297 298 301 302 305 305 307 308 306 303 303 303 302 303 304 303 303 303 303 303 304 305 308 307 305 305 307 309 311
302 301 301 298 297 297 298 298 298 297 296 295 294 292 290 293 294 295 295 297 298 300 304 306 309 305 301 304 306 307 305 308 307 304 305 302 303 306 306 303 304 307 306 306 307 309 306
301 301 301 298 297 297 298 298 298 297 297 296 295 294 290 290 293 294 294 294 296 299 300 304 304 301 305 306 309 310 307 307 308 309 303 302 302 305 305 307 308 302 309 305 305 310 306
300 302 302 298 297 297 297 297 297 297 297 296 296 295 293 291 291 291 292 292 293 295 297 301 298 302 305 307 310 312 309 305 308 309 309 307 308 310 311 311 307 303 303 304 310 308 307
301 302 302 299 297 297 297 298 297 297 297 296 296 295 294 291 292 292 293 292 293 292 294 295 301 304 309 310 309 309 306 304 305 304 305 307 307 308 308 312 309 302 307 310 306 306 309
300 302 302 298 297 297 298 298 297 297 297 295 295 296 295 293 293 294 294 294 294 293 292 292 298 299 303 307 309 309 308 303 303 307 302 307 304 306 305 306 303 302 306 306 304 307 309

GFSGBSN_925_thetae_078.txt.gz
Theta_e
313 312 311 311 310 309 309 308 308 307 308 309 310 308 305 306 308 308 308 306 308 307 306 306 304 305 304 304 303 304 306 309 312 311 312 315 318 317 319 321 324 326 325 325 325 326 326
314 312 311 310 310 309 308 307 308 308 307 308 309 308 306 304 307 308 308 308 307 307 307 307 306 304 304 304 303 304 304 308 309 311 311 314 317 314 317 319 323 323 324 325 326 325 324
314 312 311 310 310 309 308 308 307 306 307 308 308 307 306 305 306 307 308 308 306 305 307 307 304 304 304 304 304 304 305 306 307 310 311 312 315 316 316 319 320 322 323 325 325 326 326
314 313 311 310 310 309 309 308 307 307 307 308 308 307 306 304 305 305 307 308 308 302 305 307 305 304 303 303 304 305 305 306 306 307 309 310 312 316 317 319 321 322 322 327 325 326 325
316 313 311 310 309 309 308 307 307 307 306 308 307 306 305 304 304 304 305 306 307 302 305 306 305 304 304 304 304 304 305 306 306 307 309 310 314 316 318 320 321 322 322 322 324 324 324
317 313 311 308 309 308 308 307 307 306 306 307 306 304 304 304 303 304 306 306 306 305 306 305 305 305 304 304 303 303 306 306 307 306 311 311 313 318 318 319 321 322 322 321 323 325 324
318 314 311 308 308 308 308 307 306 306 305 305 305 304 303 303 303 304 305 305 304 306 305 304 304 304 304 304 303 306 305 306 307 308 312 312 314 319 317 316 315 319 319 320 321 323 324
318 316 311 308 308 308 307 307 306 305 306 306 304 303 303 303 305 304 304 304 303 302 304 303 304 303 303 303 305 306 305 306 308 310 312 314 316 316 316 316 316 318 320 321 320 322 323
320 316 311 307 307 307 307 306 305 305 305 304 304 303 303 303 304 304 302 302 302 302 305 305 305 305 305 304 305 306 305 305 308 309 312 315 316 314 317 317 317 318 318 320 321 323 321
319 316 311 307 305 305 306 306 305 305 304 304 303 303 303 303 304 303 303 302 302 302 310 308 306 305 305 305 306 305 305 306 308 311 313 315 314 315 317 316 316 320 317 319 320 322 322
320 316 311 307 303 304 305 305 305 304 304 303 303 303 303 303 304 304 303 302 302 303 314 308 307 306 305 307 306 307 306 308 310 312 314 317 315 315 317 317 316 316 316 317 318 318 320
320 314 311 307 302 303 303 305 304 304 304 304 303 304 303 303 304 303 302 303 304 310 315 310 308 307 306 306 307 306 308 309 309 313 313 316 313 313 315 317 316 315 317 317 318 319 323
319 314 310 305 301 302 302 304 304 304 303 303 304 304 304 303 305 303 303 305 312 316 307 312 310 308 307 306 307 308 311 311 313 318 316 317 315 316 315 318 315 317 319 323 323 323 321
319 314 310 303 301 301 302 303 304 304 303 303 305 304 304 304 304 304 304 306 318 312 314 311 310 307 309 309 309 310 310 311 311 315 319 320 319 316 316 318 318 319 318 320 319 320 318
317 313 308 303 301 300 301 303 302 303 303 303 305 303 304 304 304 304 305 314 315 311 310 313 311 313 313 311 311 311 312 312 312 312 318 319 318 315 316 316 316 317 320 311 316 311 319
316 312 307 302 301 300 300 299 300 303 302 302 304 305 305 304 304 303 307 311 309 304 309 312 314 314 313 314 313 313 315 313 314 311 312 316 320 316 316 315 315 317 313 319 319 321 318
317 311 306 301 300 299 299 298 299 303 300 302 304 308 304 304 304 305 313 310 309 306 308 312 313 314 315 315 314 315 315 313 313 313 313 313 317 317 316 318 319 318 318 316 315 315 316
317 311 305 301 299 299 298 299 298 300 298 303 305 311 303 304 307 305 311 309 308 311 308 311 312 312 313 315 314 314 315 313 313 312 314 311 316 320 320 315 315 317 317 317 320 318 314
316 311 305 300 299 299 298 298 298 297 296 301 307 306 303 304 313 312 310 311 311 312 311 311 311 310 310 312 315 313 312 310 313 312 313 312 315 319 318 315 314 317 317 315 314 314 318
315 310 303 299 299 299 298 298 297 296 297 300 304 309 303 304 304 310 311 312 313 310 310 309 310 309 310 312 311 313 313 311 311 311 311 311 313 315 318 316 315 316 316 316 317 322 317
312 307 301 299 299 298 298 298 297 296 299 298 299 304 302 310 307 307 308 310 312 313 310 310 311 311 311 313 312 313 312 310 310 311 310 312 317 311 310 310 314 314 316 316 317 317 319
312 306 301 300 299 297 298 297 296 296 299 296 300 300 297 301 301 307 306 311 311 311 311 313 312 310 310 311 310 313 312 312 313 310 311 308 315 312 314 312 312 313 313 314 316 316 316
311 304 300 300 298 298 297 297 296 295 294 296 293 294 302 298 303 308 306 305 307 307 310 309 311 311 311 310 308 307 308 308 310 311 312 311 312 313 315 309 311 313 313 313 314 314 315
306 303 301 300 298 298 297 297 296 295 295 295 294 296 302 302 304 303 301 301 304 304 307 307 310 310 309 307 306 306 307 307 308 308 308 310 310 310 313 309 314 309 308 308 310 311 312
308 303 301 299 298 297 297 297 297 296 296 294 293 295 298 300 299 298 298 300 301 302 306 306 310 307 305 307 310 311 311 311 310 307 308 307 310 312 313 312 311 309 308 308 309 310 309
304 302 301 299 298 297 298 297 297 297 296 296 294 293 295 297 296 296 297 297 301 303 304 305 304 301 307 310 312 312 313 310 311 311 306 306 307 311 311 313 311 307 310 307 307 313 311
304 301 300 298 298 298 297 297 297 297 296 296 295 294 295 297 295 294 297 297 296 299 302 302 301 306 307 312 313 312 310 308 311 312 312 312 312 314 313 312 310 308 307 307 312 312 311
305 302 301 299 297 297 297 297 297 297 296 297 295 295 296 297 295 294 294 295 297 296 299 298 303 306 309 313 313 312 311 309 309 309 311 312 313 313 312 313 312 306 307 311 310 310 311
303 302 300 298 297 297 297 298 298 297 296 296 296 295 295 298 296 294 294 294 294 294 297 296 300 300 303 308 310 310 312 308 309 311 305 311 310 311 311 311 308 306 311 309 308 310 311

GFSGBSN_925_thetae_081.txt.gz
Theta_e
315 315 313 312 311 310 310 309 308 310 308 308 309 309 308 306 306 308 309 309 308 307 307 307 306 306 305 306 305 304 306 308 311 311 311 315 318 319 319 320 321 324 323 324 325 327 327
317 315 314 312 311 310 310 309 309 308 307 307 309 309 308 306 305 307 308 308 307 307 308 307 305 303 306 306 304 305 305 308 311 311 311 312 316 316 317 318 320 322 323 323 326 326 326
318 316 315 313 311 310 310 309 308 308 308 308 309 308 308 307 305 306 307 308 308 303 307 307 305 305 306 305 305 305 306 307 308 311 311 311 313 317 315 318 320 321 324 325 327 327 327
319 318 315 313 311 310 309 309 308 308 307 307 308 308 307 307 305 305 307 307 308 306 304 307 304 305 305 304 305 305 306 307 307 306 310 310 312 315 317 316 321 323 323 328 326 325 326
321 319 316 313 311 310 309 309 308 308 307 307 307 307 305 306 304 303 305 305 307 306 305 306 306 305 304 305 305 304 306 306 307 305 308 310 312 316 318 319 323 322 324 323 325 325 327
323 320 317 313 311 310 309 309 308 307 306 306 307 305 304 304 303 303 305 306 306 304 305 305 305 306 304 306 304 304 306 306 307 306 309 311 312 315 319 320 322 321 320 321 324 325 325
326 320 318 313 310 310 309 308 308 307 306 306 306 304 304 304 303 305 305 306 306 307 306 306 305 305 305 304 304 306 306 306 307 306 313 310 313 317 318 316 314 316 317 318 319 322 324
325 321 319 315 310 309 309 308 307 307 306 305 304 304 303 303 304 304 305 306 305 305 306 304 305 304 304 304 304 306 305 307 308 310 313 313 316 317 316 316 318 318 321 321 321 321 323
326 322 321 316 310 309 308 307 307 306 306 305 304 303 303 303 304 304 305 304 304 303 308 307 305 306 305 305 305 305 306 306 309 309 312 317 316 315 317 317 320 318 319 320 321 321 321
326 323 321 316 310 308 307 307 306 306 305 304 303 303 303 303 304 305 305 303 304 305 312 309 307 306 306 306 308 304 305 307 309 309 312 315 314 316 317 316 315 318 317 318 321 323 324
327 323 320 316 310 307 307 306 305 305 305 304 304 303 303 303 306 306 305 304 304 305 316 309 308 306 306 307 307 305 305 308 311 310 313 317 315 317 317 316 315 316 317 318 320 321 318
327 324 320 315 309 306 306 304 304 304 304 304 304 304 303 304 306 305 304 304 306 310 315 310 309 307 307 307 307 308 310 308 310 314 315 316 314 315 317 316 316 317 318 317 317 318 322
325 323 319 315 309 304 304 304 304 304 304 303 304 304 305 306 306 304 305 306 312 317 310 312 309 308 307 308 309 310 312 314 314 316 317 316 315 314 317 318 317 316 318 322 322 323 321
324 321 319 313 309 303 303 303 303 304 304 303 304 304 305 305 304 305 306 308 318 314 316 311 309 308 310 310 309 311 312 314 314 315 318 320 319 318 317 318 319 317 317 319 318 319 317
324 321 318 313 308 303 302 302 302 303 303 303 304 307 307 304 304 305 307 316 316 315 313 313 311 313 312 311 311 311 312 313 314 315 317 319 319 314 316 318 318 319 321 315 318 317 319
324 320 318 313 306 302 301 300 301 303 302 304 307 308 307 304 304 305 310 313 313 310 312 313 316 315 312 312 312 313 313 313 315 313 314 317 320 316 317 317 317 319 316 317 321 321 316
324 320 317 311 306 301 300 299 301 302 300 304 307 309 305 304 305 308 314 314 312 309 311 313 315 315 313 314 312 314 314 314 314 314 314 315 318 318 317 319 320 318 319 318 317 317 317
323 320 316 310 305 300 299 299 300 301 299 304 308 310 304 304 309 308 314 313 310 312 311 313 314 314 315 316 316 315 315 315 313 314 315 314 317 320 319 317 316 318 318 318 320 318 316
321 320 315 309 304 299 299 299 299 300 302 306 310 307 304 304 312 314 312 313 313 313 313 313 313 312 312 315 316 315 314 313 314 313 315 314 317 320 320 318 316 318 318 317 317 318 323
320 318 314 309 302 299 299 299 298 297 296 305 309 309 306 305 309 312 313 313 314 312 312 311 312 311 313 313 313 315 315 313 314 314 312 312 315 317 320 318 317 317 317 317 318 323 318
320 316 313 308 300 300 298 298 298 296 297 303 305 310 309 311 311 311 312 313 313 313 312 311 313 313 313 314 314 315 314 313 313 313 312 314 319 314 313 312 316 316 316 316 319 318 320
318 311 309 307 300 299 298 298 297 296 300 301 304 304 303 307 307 311 309 313 313 313 313 313 313 312 312 313 313 314 314 314 315 313 314 313 318 315 316 314 313 314 314 314 316 316 317
315 313 308 303 300 299 298 297 296 296 299 300 298 298 305 304 308 311 311 311 312 311 312 312 313 312 313 312 309 309 310 311 312 314 314 314 315 315 317 311 312 313 313 314 314 314 315
311 309 305 301 300 298 298 297 296 296 297 299 299 301 305 304 307 309 306 308 309 309 312 311 312 312 311 309 309 309 310 310 311 311 311 313 314 314 316 312 315 312 309 310 311 313 313
309 308 305 301 299 298 297 297 296 295 295 297 296 299 304 305 306 303 304 306 305 306 309 310 312 309 308 310 312 312 313 312 312 310 311 310 312 313 314 313 312 310 309 309 310 310 310
309 310 304 301 299 298 297 297 296 296 295 296 296 295 300 303 303 302 303 303 307 308 308 308 307 305 310 312 313 314 314 312 312 312 309 309 310 313 313 313 313 311 311 309 309 312 313
309 306 303 300 298 299 298 297 297 297 296 297 296 295 300 299 297 298 300 301 299 303 308 306 305 310 310 313 314 313 311 310 311 312 313 312 312 313 313 313 311 309 310 309 312 314 311
306 305 302 300 299 299 298 297 297 296 296 298 296 296 301 300 297 297 297 298 298 299 304 302 306 308 311 313 312 312 311 310 309 309 311 312 312 313 312 313 313 309 308 309 311 311 311
305 303 302 300 300 299 298 297 297 296 296 298 298 296 299 301 298 296 296 296 295 296 299 300 303 303 304 310 311 312 312 310 309 310 309 310 310 311 311 311 310 308 309 310 310 311 311

GFSGBSN_925_thetae_084.txt.gz
Theta_e
319 319 317 315 313 312 312 311 310 309 309 308 309 310 309 308 307 306 308 309 309 308 308 308 307 306 306 307 306 304 305 306 310 310 311 313 315 317 320 318 319 324 325 325 324 327 326
321 320 319 316 314 313 311 311 310 309 309 309 308 310 308 308 306 305 307 308 309 307 307 308 306 303 306 307 304 305 305 307 310 311 311 312 315 316 319 317 319 322 322 325 325 323 326
323 322 320 318 315 313 312 311 310 309 309 308 309 309 309 307 307 305 306 308 308 308 304 307 308 307 306 306 305 305 306 308 308 309 310 311 313 313 316 318 317 320 322 323 327 325 327
324 324 322 319 316 313 312 311 310 309 309 308 307 308 308 306 306 305 305 307 308 308 304 305 306 306 306 305 304 305 306 308 307 306 308 311 311 311 315 317 318 322 322 325 325 326 326
323 325 324 320 317 314 312 311 310 309 308 307 307 308 306 305 305 304 304 305 307 308 303 305 306 306 305 305 305 304 306 306 307 307 305 309 309 312 316 319 321 323 324 324 326 325 325
323 322 324 321 319 314 312 311 310 309 308 307 307 306 304 304 303 304 304 304 306 303 305 305 305 305 306 306 304 304 306 306 307 307 309 308 310 310 317 320 323 322 323 322 323 326 327
320 320 323 323 319 315 311 310 309 309 308 307 306 305 304 304 304 304 305 306 307 307 306 306 305 304 304 304 304 305 305 306 307 307 310 309 311 315 319 318 317 320 319 321 321 324 326
320 319 324 323 320 316 311 309 309 308 307 307 306 304 304 303 304 304 304 307 305 305 308 305 305 304 304 304 305 306 306 307 308 309 306 313 315 315 318 317 316 317 319 321 323 324 324
320 318 323 324 320 316 311 309 308 308 307 306 305 304 304 303 304 304 306 305 304 304 308 307 306 305 305 305 305 306 305 307 309 309 313 316 315 314 318 318 317 316 316 322 325 322 320
317 317 322 324 320 316 311 307 307 307 306 305 304 304 303 304 304 306 305 304 305 305 312 309 308 307 307 306 308 305 306 307 308 312 313 315 313 315 319 319 319 321 318 319 321 321 323
316 318 322 323 320 316 311 306 306 306 306 305 304 304 304 304 306 306 305 304 304 305 315 309 308 306 307 308 306 307 305 309 309 311 313 315 316 318 319 318 318 319 319 320 321 321 321
318 317 321 323 321 315 310 305 305 305 305 304 304 304 304 304 306 305 305 305 306 312 312 308 308 307 307 308 309 308 310 308 310 313 314 315 313 315 317 317 317 318 319 318 317 318 318
323 320 321 322 320 314 309 304 304 305 304 304 304 304 305 306 307 305 306 307 312 315 310 310 309 308 308 309 310 311 312 313 315 316 316 315 315 314 316 319 317 317 317 319 319 316 319
322 318 322 321 317 313 307 302 304 304 303 303 304 305 306 306 305 306 306 309 316 314 315 309 309 308 311 310 310 311 313 315 313 316 315 318 317 316 317 319 318 317 317 319 317 317 316
323 319 323 320 317 311 306 302 304 303 302 304 306 307 307 305 304 306 308 314 314 315 313 312 310 312 312 310 311 311 313 314 315 315 319 319 317 315 317 318 318 317 317 314 319 316 316
323 320 322 317 314 311 305 301 303 302 301 304 307 308 307 304 304 307 310 312 312 312 313 312 316 314 311 311 311 313 314 313 315 314 314 316 316 315 318 318 317 318 316 317 317 316 315
314 321 322 317 314 310 304 302 302 301 300 305 307 309 305 304 306 308 314 314 313 310 312 314 315 314 311 312 312 313 314 314 314 314 313 315 316 318 318 317 318 318 318 318 316 315 317
316 320 321 316 314 308 302 301 301 300 299 305 308 310 305 306 310 309 314 313 310 312 311 313 314 314 314 314 313 314 313 315 313 313 316 314 316 317 317 316 316 317 320 316 316 317 313
320 320 320 317 313 307 300 300 300 299 303 307 309 307 304 306 313 314 312 313 313 313 313 313 314 313 312 315 316 314 314 314 314 314 315 314 317 319 317 316 315 317 317 318 317 315 315
312 319 319 314 314 306 300 299 299 298 305 306 309 308 306 305 307 311 314 314 314 312 312 312 312 312 313 313 313 315 315 314 314 314 312 312 315 316 316 316 316 316 316 315 316 315 317
315 317 315 313 313 303 300 299 299 298 304 304 306 310 307 308 310 311 313 313 314 313 312 312 313 313 313 313 314 315 314 314 314 314 312 313 316 310 313 311 315 317 316 315 313 315 313
309 311 316 311 309 302 300 299 299 297 297 302 305 306 305 309 310 311 311 313 312 313 313 313 314 312 312 313 312 314 314 313 314 313 313 312 315 312 311 313 312 313 313 313 314 315 317
309 312 310 309 306 302 299 299 298 296 299 302 300 300 304 307 308 311 311 311 312 313 312 313 313 313 313 312 309 308 309 310 311 313 313 314 314 312 313 311 310 311 312 313 313 313 314
309 311 309 308 305 300 299 299 297 296 300 300 300 301 305 304 307 309 309 310 312 311 312 312 312 312 311 309 309 309 309 310 311 311 310 313 313 313 311 311 310 311 309 309 310 310 312
306 309 307 307 304 300 299 298 297 296 299 298 298 300 304 304 304 305 307 309 307 306 310 312 311 308 308 310 311 312 312 312 311 310 310 309 310 312 311 311 310 310 308 309 309 309 308
306 309 306 307 305 300 299 297 296 296 298 296 296 298 300 303 302 304 305 306 307 308 308 309 307 305 310 312 312 313 313 312 313 312 309 309 309 310 310 313 313 313 310 309 309 309 312
307 308 306 306 304 300 298 297 296 296 295 296 295 296 301 298 297 298 301 302 300 305 309 309 306 310 310 312 312 312 311 310 310 311 312 310 311 310 311 313 312 310 308 308 310 311 310
309 307 307 305 302 300 298 297 297 296 297 298 296 299 301 297 296 297 298 299 298 299 304 302 306 308 310 312 313 312 310 308 308 308 311 311 311 312 310 311 312 307 307 308 309 310 310
309 307 305 303 301 300 299 298 297 297 297 297 297 299 300 298 297 297 297 296 296 296 299 301 304 304 304 309 310 310 311 308 308 308 308 309 308 309 309 310 308 306 307 306 306 309 309

GFSGBSN_925_thetae_087.txt.gz
Theta_e
322 322 321 321 319 316 314 313 312 311 310 309 309 309 311 308 308 307 306 309 309 309 307 308 307 306 304 307 307 305 306 305 307 308 309 311 311 313 317 317 319 324 324 324 325 328 327
323 323 323 322 320 318 315 313 312 311 310 309 309 309 309 309 308 306 306 307 309 309 307 308 308 305 305 308 305 304 305 307 306 308 310 310 310 313 316 317 318 319 323 323 324 326 325
321 323 324 324 322 320 316 313 312 311 310 310 309 308 309 307 306 305 305 306 308 308 308 306 308 307 307 306 304 304 306 308 306 306 309 310 309 313 314 318 315 318 323 323 326 325 325
322 322 323 324 325 321 318 314 312 311 310 310 308 308 308 306 305 305 305 305 307 308 308 304 307 306 305 305 303 304 305 307 306 305 304 305 311 311 313 315 318 319 321 325 326 324 323
322 322 323 324 324 322 319 316 312 311 310 309 308 307 307 305 304 304 304 305 306 307 306 302 305 306 305 305 305 304 305 306 306 307 307 305 310 311 314 318 320 321 323 323 327 324 325
323 323 322 322 323 323 320 316 312 311 310 309 308 307 305 304 304 304 304 304 306 304 306 305 306 305 305 305 304 304 305 306 307 307 307 306 309 309 314 319 322 323 323 322 326 324 323
319 323 322 322 321 323 320 316 312 310 310 309 307 306 305 304 304 304 304 306 305 305 306 306 305 305 304 304 303 306 305 305 306 307 309 306 312 314 313 314 317 319 321 321 322 324 326
316 319 324 320 320 324 320 317 311 309 309 308 307 305 304 304 304 304 305 306 305 304 307 304 305 305 304 304 305 306 305 307 308 309 306 311 314 313 314 314 318 320 321 321 322 322 321
313 318 320 321 319 323 320 318 311 308 309 307 306 304 304 303 304 303 304 306 304 305 307 307 306 306 305 305 306 307 305 308 308 309 310 312 315 315 317 318 318 318 319 321 322 324 323
312 314 318 323 318 322 319 317 311 307 307 306 305 304 303 304 304 305 306 304 303 305 309 309 308 307 306 305 306 305 306 307 308 311 313 312 313 317 317 317 317 318 318 321 323 323 324
311 315 318 323 318 322 319 316 311 306 306 305 304 304 303 303 306 306 305 304 304 304 299 309 308 305 307 308 306 305 306 309 312 313 314 316 316 317 320 319 318 319 318 321 323 321 322
309 313 318 322 317 321 319 314 309 305 304 305 304 303 304 304 305 305 305 304 305 303 307 307 308 308 309 309 309 308 310 308 309 314 313 314 313 314 316 318 317 319 319 319 319 317 315
309 314 314 321 317 320 316 313 307 304 304 304 303 304 304 306 306 305 305 305 308 303 307 309 306 309 309 311 312 311 311 313 314 308 312 312 313 312 315 316 317 320 315 319 319 315 317
307 309 314 318 319 318 315 312 305 304 304 302 304 305 306 306 304 305 306 303 303 311 309 308 308 308 310 310 310 313 313 314 312 312 315 310 309 316 314 318 318 319 315 313 318 317 314
309 311 313 318 318 319 313 310 304 304 302 304 305 306 306 305 304 306 306 301 305 307 310 310 309 310 310 310 310 310 312 313 314 314 312 312 316 315 316 317 316 316 312 312 315 312 311
311 311 312 321 319 316 313 307 304 302 302 306 307 307 306 304 304 306 306 309 306 310 312 311 314 311 310 310 310 311 313 312 314 313 312 313 318 314 317 316 316 317 315 313 308 314 316
308 311 314 321 319 314 312 305 305 302 304 307 307 309 305 304 306 307 308 308 311 310 312 313 314 313 309 311 310 312 314 313 313 313 312 313 312 316 316 316 318 317 317 316 313 312 315
308 310 311 320 318 314 310 304 305 302 304 306 307 308 305 305 308 307 308 311 311 311 310 312 312 313 310 310 311 312 315 315 312 312 314 312 312 316 316 315 315 316 318 317 311 315 309
309 310 315 318 317 314 309 304 305 302 305 306 307 305 304 306 306 306 310 312 312 312 312 313 313 312 311 313 315 313 313 313 313 312 313 312 310 308 314 313 313 316 316 317 314 311 311
308 308 312 315 313 310 306 304 303 299 306 307 303 306 305 305 305 308 310 312 313 311 312 311 311 311 312 312 312 313 314 314 313 313 312 311 312 309 307 311 313 315 315 315 313 310 315
307 308 311 313 311 310 305 302 300 298 306 306 304 304 304 307 304 306 309 312 313 312 311 310 312 312 312 312 313 314 314 314 314 313 311 311 311 305 311 311 312 314 315 314 310 313 312
306 308 309 311 312 310 303 301 299 299 305 303 302 305 303 304 307 307 309 311 312 312 311 312 312 312 310 311 310 313 312 312 313 312 312 310 310 308 307 311 311 312 311 311 312 313 314
305 307 308 310 308 309 302 301 299 300 305 301 300 300 301 305 306 307 308 310 313 311 311 312 311 311 311 310 308 307 306 308 310 312 311 311 310 307 308 310 308 309 309 311 311 311 313
305 306 310 311 307 306 302 300 299 298 303 301 299 300 300 304 304 307 308 309 312 310 311 311 310 312 309 307 307 308 308 309 309 307 309 311 312 310 307 307 307 307 308 308 310 310 310
303 305 305 309 307 305 301 300 299 297 300 300 300 300 299 301 302 305 307 306 305 306 309 311 309 306 306 309 309 309 309 310 310 309 308 306 308 310 309 307 307 309 308 309 309 308 307
304 305 306 309 306 304 302 300 298 296 299 299 298 299 298 301 299 298 304 303 304 305 306 308 306 304 309 310 310 311 310 309 312 311 307 308 306 307 307 310 312 309 308 308 307 306 309
306 306 305 308 305 303 302 299 298 297 300 297 296 297 297 296 294 296 300 301 299 303 304 306 305 309 308 309 310 307 309 308 309 310 310 308 308 307 308 307 309 307 308 307 308 305 309
305 306 309 307 305 303 300 298 297 300 300 297 296 299 297 294 294 295 295 296 296 297 303 301 305 305 307 309 310 309 306 306 306 306 309 308 307 308 307 309 309 306 306 307 305 308 309
304 309 308 305 303 301 299 297 299 299 297 296 299 299 297 295 295 297 296 296 296 296 296 299 300 303 304 305 306 306 308 305 304 306 305 307 305 306 307 308 306 305 305 305 305 304 306

GFSGBSN_925_thetae_090.txt.gz
Theta_e
322 321 321 322 323 322 320 317 314 313 312 311 310 309 310 310 310 307 307 306 308 309 309 307 308 307 305 306 306 305 305 305 307 307 307 308 309 311 313 314 316 320 322 321 324 327 327
323 322 322 321 322 324 322 318 315 313 312 311 310 309 308 309 308 306 307 306 307 309 309 307 308 307 305 306 304 304 305 306 307 305 307 308 310 310 311 314 316 318 320 321 325 326 325
318 322 323 322 322 323 324 320 317 313 311 311 310 309 308 309 308 306 306 306 306 308 309 308 307 307 306 305 305 304 305 307 306 304 308 305 309 310 312 315 315 317 323 321 325 326 326
314 317 320 323 323 323 324 322 318 314 311 311 310 308 308 308 306 305 305 305 307 307 308 308 306 306 305 304 304 304 304 307 306 305 305 306 306 307 313 314 316 318 321 327 326 325 325
310 313 316 319 322 323 323 323 319 315 312 311 310 308 307 306 305 304 304 305 307 308 308 306 305 306 305 304 305 303 303 306 306 307 306 306 307 310 312 317 318 319 323 324 329 324 324
308 309 312 316 319 323 323 323 319 315 312 311 309 307 306 305 304 304 305 305 304 304 306 305 305 304 303 305 303 303 305 305 307 307 308 308 310 310 311 316 319 322 322 321 325 324 323
307 308 308 313 316 320 322 321 319 315 312 310 309 306 305 304 304 304 305 306 304 305 305 305 304 305 304 303 303 305 304 305 306 308 308 308 311 313 312 315 316 318 319 321 323 323 322
305 306 308 308 314 319 322 320 320 315 311 310 307 306 305 304 304 304 305 305 304 304 306 305 304 304 304 304 305 306 304 307 308 309 307 311 312 311 310 314 316 317 320 321 324 322 322
304 305 308 308 311 315 320 320 320 315 311 309 307 305 304 303 304 303 304 306 304 304 306 307 305 305 305 305 306 306 306 307 307 309 310 314 314 314 315 317 319 319 320 320 323 323 322
303 304 306 307 309 312 319 321 319 314 311 308 306 304 304 304 304 305 305 305 303 305 299 307 307 306 306 306 305 305 306 307 307 309 312 315 314 316 317 318 317 320 318 319 323 324 327
303 303 304 306 310 311 317 320 319 313 310 307 305 304 303 304 305 306 304 304 304 303 297 304 306 305 307 308 306 305 306 309 313 314 314 314 318 318 319 318 317 319 319 321 322 322 321
301 303 305 305 306 310 315 320 319 312 308 305 305 304 303 304 304 305 304 304 305 297 301 303 307 308 309 309 309 308 310 308 309 313 312 314 312 315 316 317 317 318 320 320 321 320 323
301 301 303 305 305 308 310 319 316 311 307 305 304 303 304 304 306 304 304 304 299 300 304 305 305 308 309 311 312 311 312 313 315 310 312 313 313 313 315 318 317 318 319 322 323 320 319
301 302 302 303 304 310 314 319 314 309 305 304 303 304 305 306 304 305 306 299 301 308 307 307 307 307 309 309 309 312 312 313 312 311 314 311 316 315 314 317 319 318 317 317 321 317 314
301 301 300 302 307 312 314 317 311 306 304 303 304 305 306 305 305 306 303 298 303 305 308 308 308 310 308 309 310 309 311 313 313 312 312 309 313 314 315 315 316 318 313 312 312 309 310
300 300 301 303 308 313 316 314 308 304 303 305 306 306 305 304 305 305 301 306 304 308 309 309 310 309 309 309 310 310 312 312 313 312 311 312 311 313 315 314 315 314 313 312 308 312 316
301 301 304 306 311 313 317 310 306 304 305 306 307 306 305 304 306 304 300 303 309 309 310 312 313 312 308 309 309 310 313 312 311 312 311 311 310 313 313 313 318 316 315 314 310 310 312
300 303 303 311 310 312 313 308 305 304 305 307 305 307 304 305 306 304 305 309 310 310 310 311 311 312 307 309 310 312 314 313 311 311 312 311 310 312 316 314 315 315 317 313 309 312 306
300 303 305 308 314 314 310 306 303 305 307 306 304 305 304 306 307 305 306 311 311 311 310 311 313 311 310 312 313 312 313 312 312 311 312 311 308 314 311 311 311 315 315 316 311 308 308
300 302 305 307 310 312 308 305 303 306 307 306 303 307 306 305 305 306 309 311 312 310 311 311 310 310 311 312 311 313 313 313 312 311 312 310 309 307 307 309 311 315 315 315 312 308 313
301 303 305 309 313 309 307 304 303 306 307 306 302 302 305 306 304 305 308 311 312 312 310 309 311 311 311 312 312 314 313 313 313 312 310 310 310 304 310 311 311 313 314 313 309 313 312
302 304 306 307 311 308 306 304 304 306 306 304 303 302 301 301 303 304 307 310 310 311 310 311 311 310 310 310 311 312 312 312 312 312 311 308 308 305 307 310 310 312 310 310 311 312 312
302 303 305 307 309 308 306 304 304 305 306 301 299 300 301 304 304 306 307 309 311 310 310 310 309 309 309 308 306 306 306 307 310 311 310 310 308 306 308 308 307 308 308 309 311 310 312
303 303 304 306 311 309 305 305 304 304 306 301 299 299 300 305 304 307 308 310 310 309 310 310 309 310 309 307 307 307 307 306 307 307 307 309 310 307 305 305 306 306 306 307 309 309 308
303 304 305 306 309 308 305 303 301 304 304 300 300 299 298 302 301 306 307 306 306 306 308 310 307 305 305 307 307 308 307 309 309 306 307 305 307 309 308 306 306 308 308 308 307 306 309
303 304 306 306 307 307 305 303 304 304 303 299 299 299 298 301 300 298 303 304 304 304 306 307 304 303 307 307 308 310 309 309 310 310 306 305 304 306 305 309 311 306 308 307 305 306 306
303 303 306 305 308 306 304 301 303 301 302 298 297 299 297 294 293 296 301 302 301 302 304 305 305 308 306 306 308 306 308 307 310 310 309 307 306 306 307 308 308 306 306 306 308 304 307
302 303 305 306 307 305 304 303 302 301 302 297 296 300 296 294 295 295 295 297 296 300 303 301 305 305 306 308 306 306 305 305 305 305 307 307 306 307 306 307 307 305 306 307 303 305 306
303 306 309 307 307 305 304 302 301 301 301 297 299 297 297 295 295 296 296 296 296 296 297 297 300 302 302 304 304 304 308 303 303 305 303 306 304 305 306 306 305 304 304 304 303 303 303

GFSGBSN_925_thetae_093.txt.gz
Theta_e
317 318 319 320 324 323 323 323 323 319 315 313 312 311 310 310 310 309 307 307 307 308 309 308 308 308 305 305 305 305 306 305 305 307 306 306 308 309 311 312 312 317 319 317 320 323 326
314 314 315 317 319 321 324 323 324 321 316 313 312 311 310 308 309 307 307 306 306 307 308 308 307 307 305 303 304 304 304 305 306 305 306 306 307 308 309 312 313 315 317 319 319 322 325
310 312 312 313 315 318 319 323 323 323 317 313 312 311 310 308 309 307 306 307 306 306 308 308 307 307 305 304 304 304 304 306 306 305 306 305 308 308 308 312 311 313 319 320 318 322 327
307 307 309 310 311 311 316 319 323 324 318 314 312 311 309 308 308 305 306 304 306 307 308 308 307 306 305 303 304 304 303 306 306 305 305 306 306 308 309 310 314 315 317 321 321 322 323
305 305 306 307 309 310 311 316 319 324 319 314 311 311 308 308 306 304 304 305 307 307 308 307 305 305 305 304 304 304 303 305 306 306 305 307 306 308 309 311 316 315 320 320 323 320 320
304 305 305 305 306 309 310 313 317 323 321 315 311 310 307 307 305 304 305 304 305 305 306 304 305 304 303 304 303 303 304 304 306 306 307 307 309 308 307 314 316 316 321 321 323 324 321
303 303 304 304 305 307 309 311 313 320 320 315 311 309 306 306 304 304 304 305 304 304 305 304 304 304 304 303 303 305 304 304 306 306 310 307 311 311 310 314 314 315 318 321 320 321 320
303 303 303 302 306 305 307 309 312 316 319 314 311 309 306 305 303 304 304 304 304 304 306 305 303 303 304 303 305 305 304 306 308 308 308 310 312 310 311 311 314 317 318 319 322 322 320
303 302 302 302 303 304 306 308 312 314 319 313 310 307 305 304 304 304 304 305 303 303 305 307 305 304 304 305 306 306 306 306 308 308 310 312 312 311 310 312 318 318 320 322 323 322 320
302 302 302 301 302 305 305 306 309 312 317 312 309 306 304 303 303 303 304 305 303 304 295 303 307 305 306 306 304 305 305 306 306 310 312 315 313 312 311 318 316 319 319 322 323 324 328
302 302 302 301 302 302 304 307 307 308 316 311 307 305 304 304 305 305 305 304 303 302 293 302 306 305 306 308 307 305 306 308 311 314 314 316 316 314 317 319 317 319 319 321 321 321 322
302 301 301 302 302 303 303 305 306 308 313 310 306 305 303 305 305 305 304 304 304 294 294 301 306 307 308 308 309 309 310 308 309 314 315 315 313 315 316 316 318 318 319 319 319 320 322
302 302 302 302 301 303 304 305 307 309 312 307 304 305 303 304 305 304 303 302 299 294 302 303 304 307 308 309 311 311 312 313 315 316 314 315 314 314 314 317 318 318 318 323 322 322 322
303 302 302 302 301 303 303 304 307 310 310 305 304 304 304 305 304 304 305 298 295 304 304 307 307 307 308 308 308 311 311 311 312 310 309 315 311 316 314 317 319 317 316 318 322 319 315
303 302 302 301 300 301 303 304 307 312 307 304 304 305 305 304 304 305 300 297 299 304 305 307 307 309 308 309 309 309 311 312 311 311 313 310 316 313 315 315 316 316 318 311 311 309 311
303 302 302 301 302 303 304 309 313 309 304 304 305 305 304 305 305 304 299 305 303 305 307 307 309 307 308 308 309 310 310 311 312 311 309 311 314 311 315 314 315 314 311 314 312 318 314
303 302 302 302 302 303 309 311 311 306 304 305 305 304 304 304 306 303 301 302 306 309 308 309 309 309 308 309 309 311 312 311 311 311 309 309 308 312 312 314 317 316 314 311 310 309 311
303 302 302 301 303 306 307 311 308 304 305 306 304 306 304 305 305 303 304 305 309 310 310 311 310 311 306 308 310 312 314 313 310 311 312 310 309 308 315 313 313 314 317 309 308 311 304
302 302 301 303 304 307 310 310 305 305 306 306 306 305 304 305 302 303 304 310 309 310 310 311 312 311 309 310 312 312 313 311 311 311 311 310 307 304 307 308 310 314 314 312 308 306 307
301 301 302 304 303 309 312 307 304 305 307 305 303 307 306 305 305 304 308 311 311 310 310 310 309 309 310 311 309 312 313 313 312 311 312 309 307 306 306 309 309 314 314 314 310 305 311
301 300 303 304 306 312 309 305 305 306 307 304 301 302 304 306 306 306 307 310 311 311 310 309 310 310 310 312 311 313 313 313 312 311 309 308 309 303 309 310 310 313 314 313 306 313 312
301 301 304 304 308 310 307 305 306 306 306 303 303 302 299 300 302 304 306 309 310 310 309 310 310 309 308 310 310 312 311 311 312 311 310 306 307 304 307 308 310 311 310 310 310 312 311
300 302 303 305 308 308 306 305 306 308 306 300 298 300 301 303 302 304 305 308 310 309 310 308 308 308 308 308 306 306 305 307 309 310 309 309 307 306 308 306 307 307 309 308 309 309 311
300 302 304 306 308 307 305 304 306 307 306 300 299 299 302 304 304 306 307 309 309 309 310 309 308 309 308 305 305 304 303 304 305 304 306 309 308 306 305 305 304 305 303 305 308 307 307
301 303 304 306 310 307 305 303 306 307 304 300 299 298 299 302 302 305 307 306 306 305 308 308 306 304 303 305 306 307 306 308 308 305 305 305 306 307 308 306 304 308 307 307 307 306 308
302 303 303 306 307 307 304 303 305 307 304 299 298 298 297 302 300 297 303 304 304 304 305 306 303 304 305 305 306 309 308 308 310 309 305 304 303 307 304 309 310 304 308 306 304 306 304
302 303 303 306 308 306 304 303 302 304 305 297 298 297 296 294 293 295 301 303 301 302 303 304 306 308 304 305 308 306 307 306 309 309 308 306 305 306 307 307 307 305 305 304 308 303 302
302 303 304 304 307 307 305 304 303 303 303 299 298 297 296 293 294 294 294 297 298 301 304 302 305 305 305 307 305 305 304 304 304 305 306 306 305 306 304 307 306 303 305 306 302 303 303
301 305 308 306 307 306 305 303 302 303 302 298 297 297 297 294 295 296 296 296 296 296 297 297 300 301 302 304 303 303 306 302 301 305 302 307 304 305 304 305 304 305 303 304 302 303 302

GFSGBSN_925_thetae_096.txt.gz
Theta_e
309 310 311 312 313 314 315 317 319 320 323 320 316 313 311 312 310 310 309 308 308 307 309 309 307 309 304 305 305 304 307 305 305 307 306 305 307 307 309 309 311 313 314 317 317 323 322
307 307 307 308 308 311 312 313 313 317 319 322 317 314 312 311 309 309 307 308 308 306 308 309 307 307 305 303 303 304 304 304 305 306 305 305 306 306 308 308 311 310 312 314 318 319 320
305 306 306 306 306 307 308 310 310 312 317 320 318 314 312 310 309 309 307 306 306 306 307 308 307 307 305 301 304 304 304 304 306 305 305 304 304 307 306 309 309 311 315 313 316 320 319
305 305 305 305 306 305 306 306 309 311 314 317 318 314 311 309 308 308 306 305 305 306 307 308 307 306 302 302 304 304 303 304 306 305 305 305 305 308 308 308 310 311 313 318 316 320 319
305 305 305 305 304 304 306 306 306 309 311 316 318 314 311 309 307 306 304 305 306 307 307 307 305 304 304 303 303 304 303 304 306 306 305 305 305 307 308 311 311 312 314 317 322 319 318
304 305 305 305 304 304 303 305 305 307 310 314 319 313 311 308 307 305 304 306 305 304 306 306 304 304 302 304 303 303 303 304 305 306 307 307 305 309 309 311 311 313 315 316 319 321 318
304 304 304 304 303 303 303 303 305 306 309 314 317 313 310 306 306 304 305 304 303 303 305 303 303 304 303 303 303 304 304 304 305 306 308 307 308 310 307 310 309 311 316 319 320 321 319
304 304 304 303 303 303 303 303 304 305 307 310 314 312 308 306 305 304 304 303 303 303 305 304 304 303 303 303 304 305 305 305 307 307 306 309 311 309 308 311 312 313 317 320 322 319 319
304 304 304 303 303 302 302 302 303 304 308 310 313 311 307 305 305 305 304 305 303 303 304 306 304 304 304 304 306 306 304 305 306 308 305 310 311 310 311 313 316 314 318 321 322 319 320
304 304 303 304 303 302 302 302 302 304 307 307 310 309 305 304 304 303 303 305 303 304 294 300 306 305 306 305 304 305 306 306 306 309 311 312 311 310 310 316 316 318 315 319 321 322 326
303 303 304 302 303 302 303 303 303 304 305 306 310 308 305 303 304 303 304 304 303 300 292 299 305 305 306 307 306 306 306 308 310 313 312 315 314 313 314 318 314 318 318 319 320 322 323
303 303 304 303 302 303 302 302 302 304 305 306 311 307 304 304 305 304 304 303 303 295 292 299 306 306 307 308 309 309 310 308 310 313 315 313 305 310 316 316 317 316 317 317 318 318 320
304 304 304 303 304 302 303 301 303 303 305 306 310 305 304 304 305 303 303 301 299 293 299 302 304 306 306 308 309 311 312 314 313 313 313 315 316 315 314 317 317 316 314 316 318 320 319
304 304 304 304 303 303 301 301 303 303 305 306 307 304 305 304 304 303 303 300 297 302 302 306 306 307 307 307 308 309 310 312 311 308 306 305 315 316 315 317 319 317 314 314 321 320 316
304 304 304 304 303 302 302 302 302 304 305 307 305 305 304 305 304 304 300 299 298 301 304 306 307 308 306 307 309 308 309 311 311 310 308 310 318 313 314 316 316 318 312 310 310 309 313
303 304 304 304 303 302 301 301 303 306 310 305 305 305 304 303 304 303 301 305 302 303 306 306 308 307 308 307 308 309 308 310 311 309 309 310 318 312 315 314 314 313 311 313 309 313 313
304 304 303 303 303 302 302 304 306 310 306 305 305 306 304 304 305 303 303 301 306 307 307 309 308 308 307 308 308 311 312 311 310 310 308 308 309 313 311 314 316 313 314 310 309 308 312
303 302 303 302 302 302 305 306 311 306 305 305 304 305 304 305 305 305 305 304 308 309 309 310 309 308 306 308 309 312 313 312 308 309 311 309 307 312 315 311 312 313 315 308 309 312 303
303 302 302 302 302 305 306 310 307 305 306 305 305 304 304 305 305 305 303 308 309 309 309 310 311 310 307 309 312 311 312 311 309 310 310 309 306 304 307 308 309 313 314 309 306 305 306
301 302 301 302 304 306 310 309 305 305 305 304 305 306 304 305 303 302 307 310 310 309 309 310 309 309 309 310 309 312 312 312 310 311 311 307 305 306 305 308 309 314 313 313 308 305 310
301 302 301 304 306 311 311 307 306 306 305 304 302 303 304 306 306 305 306 309 310 311 309 308 310 309 309 311 311 312 312 312 311 310 308 306 308 302 308 310 309 312 313 312 305 310 309
302 301 304 305 310 311 308 307 306 306 306 303 302 301 299 300 303 306 306 309 309 309 309 310 309 309 308 310 309 311 311 311 311 309 308 305 306 303 306 306 308 311 309 309 310 311 311
301 303 304 305 310 308 307 306 307 306 305 301 298 299 299 304 301 307 304 307 309 308 309 308 307 307 308 308 306 305 304 305 308 309 308 307 306 305 307 305 305 306 308 308 308 308 310
301 303 304 305 308 307 307 306 308 306 301 300 298 299 300 305 303 304 305 308 308 309 309 307 307 308 307 304 303 303 302 303 303 303 304 308 306 305 304 303 301 303 303 305 306 306 307
302 303 304 306 307 306 307 305 308 306 300 299 298 297 299 304 302 305 306 306 305 305 307 306 305 303 302 303 305 307 305 308 306 303 302 304 304 306 306 305 303 307 306 307 307 306 303
302 304 304 305 308 305 306 305 308 306 301 299 297 297 297 303 301 295 303 305 304 304 305 305 303 304 303 303 305 308 308 308 309 309 303 303 302 304 304 308 308 303 307 305 303 305 302
302 302 304 305 308 305 304 305 306 307 305 299 297 296 296 295 293 294 301 303 301 302 303 304 307 307 303 304 307 305 307 305 309 309 308 305 304 307 307 306 305 303 304 304 309 303 302
301 302 305 306 307 305 304 304 304 306 306 302 297 297 296 293 294 294 294 298 300 301 305 302 305 304 304 306 305 304 304 303 304 304 305 306 304 305 304 306 305 303 303 307 302 302 302
301 305 309 307 307 306 304 304 303 302 303 303 298 298 297 294 295 295 296 296 295 296 297 296 300 301 302 303 302 302 305 300 300 305 301 306 302 304 303 304 302 304 302 302 301 301 301

GFSGBSN_925_thetae_099.txt.gz
Theta_e
307 306 306 307 307 307 307 308 309 310 313 315 317 320 317 314 311 310 307 310 309 308 308 308 308 308 304 304 304 304 308 306 304 305 306 305 306 307 306 308 309 312 312 313 315 316 319
307 307 305 305 306 306 306 306 307 308 310 313 313 317 318 314 311 309 307 308 308 308 307 308 307 306 304 300 301 304 304 304 304 306 305 305 306 305 306 307 309 309 309 310 312 316 319
305 307 307 307 306 306 305 305 306 307 307 310 312 316 318 314 311 308 308 308 307 307 306 308 307 305 304 301 302 304 304 304 304 305 305 305 303 304 305 307 307 308 311 312 311 312 319
305 305 304 306 306 306 305 305 304 305 306 308 312 315 317 313 310 307 308 307 305 306 306 307 307 305 302 301 303 304 303 304 304 305 305 305 305 305 305 307 308 309 309 314 312 312 318
306 306 306 305 305 304 305 305 305 304 306 307 309 312 316 313 308 307 306 304 305 307 307 308 304 303 303 303 303 303 304 303 304 305 306 306 305 305 307 310 308 309 312 315 316 314 317
306 306 306 305 305 305 305 304 305 304 304 306 308 311 316 311 307 306 305 305 305 306 307 305 304 303 301 303 303 303 302 303 305 305 306 306 306 308 308 311 309 312 311 314 318 318 316
306 306 306 306 305 305 305 304 304 303 304 304 308 311 313 309 306 305 305 304 303 303 304 302 303 303 303 303 303 303 304 304 304 305 305 306 307 309 307 307 308 312 311 313 317 319 318
305 305 305 305 305 305 305 305 303 303 303 304 307 309 312 308 305 304 305 304 303 302 304 303 303 303 303 303 304 304 304 304 306 305 306 307 310 309 307 307 309 308 311 317 318 319 319
305 305 304 304 305 305 304 305 303 303 304 304 305 308 310 307 305 304 305 304 303 302 303 305 304 304 303 303 305 306 304 305 305 305 306 308 310 310 309 310 311 307 314 318 318 320 319
305 305 305 305 305 304 304 303 303 303 304 303 304 307 308 305 305 304 303 304 303 303 294 300 305 305 305 305 304 304 305 306 307 309 309 309 309 312 310 311 313 315 314 318 320 322 325
304 304 304 305 304 304 304 304 303 303 304 303 305 306 307 304 303 303 304 304 303 300 293 298 305 304 305 308 308 308 306 307 310 310 308 314 313 310 314 314 315 315 317 319 320 322 322
304 304 305 305 304 304 304 304 303 303 302 303 304 306 306 303 304 304 304 303 301 295 292 299 305 306 307 309 309 309 309 307 309 309 308 309 308 311 315 316 314 316 317 318 318 318 321
304 304 304 305 305 305 305 304 303 302 303 303 304 308 305 303 305 304 303 300 300 294 298 302 304 306 306 307 309 311 312 313 312 312 313 313 313 315 314 318 316 314 314 318 318 320 320
304 304 305 304 304 305 303 302 302 303 304 303 305 307 305 304 304 303 302 299 297 301 300 305 305 306 306 307 308 308 310 309 309 306 310 315 320 316 315 317 318 316 312 315 319 321 318
304 304 303 304 305 304 304 303 302 302 301 303 305 305 304 305 304 303 299 297 299 300 303 306 305 306 306 306 308 307 308 309 309 309 310 316 318 314 316 316 316 316 313 309 311 309 318
303 303 303 304 304 304 303 302 301 301 302 303 305 304 304 305 303 302 299 304 301 301 305 305 305 306 308 306 308 308 308 309 310 308 308 311 320 314 314 315 315 314 310 312 311 314 314
302 302 303 303 303 303 302 303 304 305 305 305 303 304 304 303 304 300 299 301 305 305 306 308 307 307 306 308 308 309 310 310 309 309 306 307 311 314 312 314 316 316 315 309 308 308 313
302 302 302 303 302 302 303 305 307 309 308 304 304 305 303 304 302 301 304 303 306 308 307 309 308 306 307 307 309 311 312 311 308 308 310 308 308 314 314 310 310 312 314 307 311 312 304
302 302 302 300 302 304 306 309 309 307 305 303 303 305 304 304 305 304 303 307 308 309 309 310 311 309 306 308 311 311 311 310 308 309 310 308 306 306 309 308 308 312 312 307 306 306 308
302 301 302 304 306 309 310 307 306 305 305 303 304 305 304 305 302 302 306 308 309 308 309 309 308 308 309 309 308 311 312 311 309 310 310 306 305 305 305 308 308 313 312 310 307 308 311
301 301 304 308 311 310 308 306 305 304 305 304 303 305 304 305 306 303 305 308 309 310 308 307 309 309 309 310 310 312 311 310 310 308 306 306 308 302 306 308 308 312 312 311 305 309 310
301 304 307 311 311 308 307 306 305 305 306 302 303 303 299 301 304 304 307 308 308 309 309 309 308 308 308 309 308 310 310 310 310 307 307 304 306 302 307 305 306 310 308 308 310 311 311
302 304 310 309 309 308 307 305 305 305 305 301 298 299 299 304 304 307 306 306 308 307 308 307 306 306 308 308 306 305 304 303 306 308 307 306 305 305 307 305 305 307 307 307 308 308 309
303 304 309 308 308 307 306 305 304 304 302 300 298 298 298 304 304 306 305 307 307 308 308 306 306 307 305 301 301 302 301 302 302 302 303 306 305 305 304 301 301 303 302 304 306 303 303
303 304 305 307 307 307 307 305 301 299 299 298 297 297 298 303 302 304 305 305 305 304 305 305 304 303 301 303 305 306 305 307 304 302 302 302 303 306 306 304 301 306 306 306 306 305 303
302 303 304 306 307 307 307 305 305 305 302 299 296 296 297 303 302 294 303 304 304 304 304 304 304 303 302 302 304 307 306 307 308 308 303 302 301 304 304 306 305 301 305 304 302 305 303
302 303 305 306 306 307 307 307 305 305 305 301 297 296 296 294 293 294 301 303 300 301 302 305 306 307 302 304 307 305 305 304 308 308 308 305 303 306 307 305 305 302 303 303 308 302 302
301 303 308 307 306 306 306 306 306 306 306 303 297 298 297 293 294 294 294 298 300 301 304 302 304 303 303 306 305 304 303 303 304 303 304 305 304 305 304 306 304 303 303 305 302 301 301
301 306 308 308 307 305 305 305 305 305 304 304 300 297 297 294 294 295 295 296 295 295 297 296 301 301 301 302 301 301 304 299 299 304 300 304 301 303 303 304 301 303 302 300 300 299 300

GFSGBSN_925_thetae_102.txt.gz
Theta_e
308 308 308 308 308 308 307 306 306 306 307 308 309 312 316 320 317 313 311 307 309 308 308 308 309 308 305 305 303 304 309 309 307 305 304 306 306 306 305 305 306 308 308 309 311 312 314
308 307 307 307 307 308 307 306 306 306 306 307 308 311 314 316 316 312 308 308 308 307 308 307 308 306 304 303 300 304 306 304 305 306 306 307 306 306 306 306 306 305 307 307 310 312 314
306 307 307 307 306 307 307 306 305 306 306 305 307 309 311 317 315 311 307 309 307 307 306 306 308 306 305 304 302 304 304 305 305 305 305 306 306 306 306 306 306 306 307 308 309 309 313
308 307 307 307 307 306 306 305 305 305 305 305 306 308 311 312 313 309 308 308 305 304 305 308 308 306 304 301 303 303 304 306 306 306 306 306 306 306 306 306 307 309 307 308 308 312 312
307 307 307 307 307 307 306 306 305 305 305 304 305 307 310 312 312 307 305 305 304 305 307 308 307 304 303 303 305 304 305 304 305 306 307 306 306 307 305 308 312 308 307 307 308 312 314
307 307 307 306 306 307 306 306 306 305 304 304 304 307 310 314 309 305 303 304 305 306 307 305 304 305 305 304 304 303 303 303 304 305 306 307 307 307 309 309 311 307 308 306 310 312 315
306 306 306 306 305 306 306 306 306 306 304 303 304 305 311 310 308 304 304 305 304 306 305 305 305 305 304 304 303 304 304 304 305 305 305 305 308 309 309 309 309 310 308 309 312 311 316
306 306 306 306 306 306 306 305 305 305 304 305 304 304 307 308 306 303 305 304 304 304 307 305 305 305 304 304 305 305 305 305 306 307 305 308 309 308 308 308 308 311 311 311 315 316 316
305 305 305 306 305 305 306 305 305 304 304 304 304 304 307 308 305 304 305 304 304 303 307 307 306 306 306 304 306 307 305 306 306 307 307 308 309 307 310 307 308 310 311 313 317 319 319
305 305 305 305 305 305 303 305 305 304 303 304 304 304 310 306 305 305 305 303 304 303 309 306 307 307 306 306 308 305 305 306 307 310 309 310 308 310 311 309 310 311 309 314 318 321 324
304 304 305 304 305 304 305 305 305 304 302 303 303 303 308 305 305 304 304 303 304 302 311 303 307 305 307 309 309 309 306 306 308 309 307 314 311 310 311 311 311 312 311 318 320 321 322
304 303 303 305 304 306 305 305 305 304 302 303 303 303 307 304 303 304 304 304 302 308 307 307 307 308 309 310 310 310 309 307 308 307 310 310 310 312 315 313 313 316 317 318 319 320 324
302 303 304 305 305 305 305 305 302 303 303 303 303 303 306 304 305 304 303 303 311 311 302 308 309 308 309 310 310 311 313 314 315 318 316 313 315 314 315 317 317 318 320 323 322 324 322
302 303 303 303 304 305 304 303 301 302 303 302 303 306 305 304 304 303 303 306 312 304 307 306 307 307 311 310 310 310 313 316 313 312 317 320 321 316 316 318 318 318 316 320 320 320 321
302 302 302 303 304 304 303 303 302 302 302 301 303 305 304 304 304 302 305 312 311 307 306 309 308 310 311 309 310 311 312 315 313 312 317 319 320 315 315 317 318 318 318 311 316 318 320
303 302 303 303 303 303 303 303 300 301 301 302 304 304 304 304 303 303 308 310 310 303 306 307 309 309 311 311 312 312 313 313 314 312 310 313 322 315 314 316 316 316 312 318 318 320 319
302 302 302 302 302 302 302 300 303 302 303 304 303 305 302 303 303 304 309 308 308 306 307 309 309 310 310 311 312 314 314 313 313 313 310 311 317 318 315 318 319 318 317 313 313 313 316
301 300 301 301 300 300 302 303 304 305 305 304 304 306 303 303 305 305 307 306 307 308 309 311 309 309 310 310 313 314 314 314 312 311 313 311 315 320 318 314 312 315 315 313 319 315 312
303 305 309 311 307 304 305 306 307 308 305 303 305 305 304 304 307 306 305 308 309 310 311 311 312 310 308 312 314 313 314 313 312 312 313 310 313 319 317 314 312 317 315 314 312 315 315
305 310 310 310 309 309 309 309 309 307 304 304 306 305 305 306 304 305 308 311 310 309 311 310 310 310 311 312 312 313 314 313 312 311 310 309 311 312 316 315 313 316 315 314 314 324 315
304 310 309 308 307 306 306 305 305 305 305 305 306 306 305 308 306 305 307 310 310 311 310 309 311 311 312 312 312 314 313 312 312 309 310 312 314 310 311 311 312 314 315 314 316 313 317
304 309 308 307 306 305 305 305 305 306 308 303 306 306 304 304 305 306 308 311 310 311 311 311 312 310 310 312 311 312 312 312 313 311 311 310 314 310 313 310 311 312 311 311 313 314 314
303 307 308 306 305 305 306 306 307 308 309 303 300 300 305 304 304 307 309 310 310 311 309 308 309 311 312 310 309 308 308 308 309 311 312 311 312 313 315 309 309 312 309 310 310 310 311
303 304 307 307 306 305 306 305 306 306 306 302 299 302 305 305 305 307 308 309 310 310 311 308 308 311 307 304 305 307 308 308 309 308 308 311 311 311 313 307 310 308 305 306 308 307 308
302 304 305 307 306 304 302 301 300 300 300 302 298 301 304 304 305 306 307 309 308 308 308 308 307 305 305 306 311 311 311 311 310 307 308 308 310 311 311 309 307 308 308 308 308 309 307
301 304 306 306 308 306 305 302 303 304 301 299 296 298 303 304 305 300 308 308 311 310 309 308 307 305 305 308 309 310 309 310 310 310 307 307 308 310 311 309 306 308 308 306 305 310 307
301 306 307 307 307 307 305 305 305 305 304 301 297 297 299 302 297 297 307 309 305 307 310 309 308 309 305 310 311 311 309 307 310 310 311 311 311 312 311 311 309 306 306 305 310 307 306
300 306 307 307 307 307 307 305 305 306 305 304 297 298 299 299 297 296 296 302 304 306 312 307 309 309 309 312 311 310 309 308 309 307 309 310 311 312 311 312 309 305 305 309 307 305 303
301 306 308 307 307 306 308 307 306 305 305 304 299 297 298 299 298 295 295 295 296 297 304 302 306 307 308 311 308 307 309 305 307 309 304 309 308 309 310 309 305 306 305 304 303 302 302

GFSGBSN_925_thetae_105.txt.gz
Theta_e
308 308 308 308 307 307 307 308 308 306 307 306 307 308 309 312 315 318 314 309 310 309 308 308 309 309 306 307 306 306 310 311 310 307 305 305 306 305 305 304 305 306 308 309 310 311 312
307 309 309 309 308 308 308 307 308 307 306 307 306 306 308 311 314 317 313 308 308 307 308 308 309 308 306 308 302 305 307 307 306 305 305 305 306 306 306 306 305 305 305 306 307 308 311
308 308 309 309 309 309 308 308 307 306 306 306 306 306 307 311 313 315 310 309 307 306 307 307 308 308 308 308 302 304 305 305 305 305 305 305 305 306 306 306 306 306 307 306 305 307 310
307 308 308 308 308 308 308 306 307 306 306 305 306 306 306 310 312 311 309 309 307 303 305 304 308 308 308 303 303 304 304 305 306 305 305 305 306 306 306 306 307 308 309 310 306 306 308
307 307 307 308 308 307 308 307 307 307 306 305 305 305 306 308 310 310 309 307 304 306 307 308 308 308 306 303 303 303 304 305 305 306 306 306 306 307 307 307 308 308 310 309 308 305 309
306 307 307 307 307 307 307 307 307 306 306 305 304 304 305 310 312 308 305 304 307 308 308 307 305 305 305 305 305 304 305 304 305 305 307 307 308 307 307 308 310 312 311 307 307 305 309
306 306 306 306 306 306 306 306 306 306 306 306 305 304 305 312 309 306 304 306 305 306 305 306 306 306 305 304 304 305 305 305 305 305 307 306 308 308 307 308 309 310 309 308 308 305 311
305 305 306 306 306 306 306 306 306 306 305 305 305 305 304 308 306 305 306 305 306 307 308 305 306 306 306 306 306 306 305 307 307 308 307 307 308 307 310 310 312 313 310 310 309 309 312
305 305 304 305 304 306 305 306 304 305 305 305 304 304 304 307 306 305 305 305 304 304 308 308 307 307 307 306 308 308 306 307 309 310 310 310 310 308 310 311 310 311 311 310 314 313 313
303 303 304 304 304 304 305 303 305 305 304 304 304 304 307 308 306 306 305 304 304 304 314 309 309 309 307 306 309 308 305 307 309 310 310 311 308 310 311 311 309 310 309 310 316 316 321
303 303 303 304 305 304 305 305 305 304 303 302 303 304 308 306 306 306 305 305 304 304 317 307 309 307 308 309 311 311 306 306 309 311 308 314 311 311 312 310 308 312 313 312 318 319 323
303 303 303 304 304 304 306 305 304 303 303 302 302 305 307 305 305 304 304 305 304 317 314 311 309 311 311 311 312 312 310 307 306 309 310 311 310 311 313 313 311 312 315 316 320 322 322
303 304 303 303 304 305 304 305 303 303 302 303 302 303 306 305 306 304 304 305 316 317 304 311 311 310 312 312 312 313 315 315 317 318 320 316 316 314 315 315 313 312 320 325 325 326 323
303 303 303 303 304 303 303 302 301 303 303 303 302 306 307 305 304 303 304 308 318 308 310 308 310 310 313 312 313 312 315 318 314 315 319 321 319 314 316 318 320 315 320 323 327 325 323
301 300 303 304 304 303 303 302 303 302 302 301 305 305 304 304 304 303 307 316 314 310 308 311 310 313 313 312 312 313 315 316 315 314 320 321 321 316 317 318 318 319 318 313 319 318 321
304 304 301 300 303 303 301 301 301 301 301 303 305 305 303 303 303 304 311 312 311 306 308 309 311 311 313 313 314 314 315 315 315 313 312 317 320 317 317 318 318 316 313 320 323 322 320
308 311 309 302 301 302 302 300 301 301 303 304 304 305 303 303 303 306 313 311 309 307 309 311 310 311 312 312 314 314 314 315 314 314 313 314 319 320 318 318 319 319 318 316 315 316 317
310 311 311 305 302 301 302 303 304 303 304 304 305 307 303 303 308 308 309 309 308 309 311 312 311 312 312 313 314 314 315 315 313 313 315 313 318 320 319 315 313 316 317 315 323 316 317
308 308 310 308 304 303 302 304 305 305 304 304 305 305 303 305 310 309 309 311 310 310 312 312 312 311 312 313 315 314 314 314 313 314 314 312 315 321 319 317 315 316 315 315 315 321 318
307 307 308 310 307 305 304 305 306 305 305 305 307 307 305 306 306 308 310 311 309 311 312 311 312 312 313 313 313 314 314 314 313 312 311 313 314 316 320 318 316 317 315 315 318 326 317
308 306 306 307 310 308 306 305 306 306 305 308 309 306 306 308 308 307 308 311 310 311 312 311 312 312 312 312 312 313 314 313 312 311 312 314 315 314 313 313 314 314 314 315 317 316 319
306 306 305 305 305 306 307 308 306 305 305 308 309 307 306 306 307 308 309 312 310 311 312 311 312 312 312 313 312 313 313 313 314 313 313 313 315 313 313 312 313 312 312 313 314 315 315
305 306 305 305 306 306 305 305 305 306 307 308 304 305 308 306 307 308 310 311 310 311 311 311 312 312 313 312 311 311 311 311 311 313 313 313 314 315 316 311 311 313 310 311 312 311 312
304 306 306 305 304 305 306 307 307 308 308 306 304 306 307 307 307 308 309 311 311 312 312 310 311 312 309 308 308 310 311 311 311 311 311 312 313 313 314 310 314 310 308 308 310 309 310
303 305 306 305 301 301 302 302 300 301 303 303 301 306 307 307 307 307 308 311 311 310 311 311 310 308 307 309 313 312 312 312 311 310 311 311 311 311 312 309 309 309 308 309 310 311 309
303 306 307 307 303 303 304 305 304 303 301 301 300 302 306 307 307 307 310 311 311 312 312 310 308 307 308 311 311 311 310 310 309 310 310 311 310 311 311 311 307 310 309 308 308 310 309
301 305 307 307 306 307 305 305 305 305 304 301 299 300 305 306 301 304 310 311 309 311 313 311 310 311 308 312 313 312 310 309 311 310 311 312 312 312 311 312 309 309 308 307 311 312 308
302 306 307 307 307 307 306 305 305 305 304 303 299 298 303 305 301 299 300 306 308 310 313 311 311 311 312 313 312 312 310 310 310 310 310 310 311 312 311 312 312 308 307 309 309 307 307
303 307 309 307 307 307 307 306 306 305 305 305 303 298 299 303 301 298 298 297 298 299 307 308 310 311 313 313 311 310 310 309 309 309 308 310 309 311 310 311 308 307 308 307 307 307 305

GFSGBSN_925_thetae_108.txt.gz
Theta_e
310 310 309 310 310 310 309 309 309 309 308 307 308 307 307 307 310 314 317 314 311 311 307 308 308 309 307 308 307 311 311 311 311 308 305 305 305 305 305 304 304 304 306 307 307 310 310
309 308 308 309 309 309 309 309 308 308 308 307 306 307 307 307 310 312 316 313 311 309 309 307 309 308 307 308 304 308 308 309 307 306 305 305 305 306 306 305 305 304 305 305 305 306 306
308 308 307 308 308 307 307 309 308 308 308 307 307 306 307 307 309 313 313 311 309 309 308 308 309 308 308 306 303 304 306 305 305 305 305 305 305 306 306 306 306 306 307 307 307 306 306
306 306 306 306 306 305 306 307 308 306 307 308 307 306 306 306 308 313 312 309 307 305 307 308 308 309 309 304 304 304 304 304 305 305 305 305 305 306 306 306 306 307 307 308 307 308 306
304 304 305 307 306 306 306 305 306 308 308 307 308 306 306 305 307 309 312 308 305 305 307 308 310 309 307 303 302 303 304 305 305 305 305 305 305 307 307 307 307 307 308 307 308 308 307
304 304 305 305 306 307 306 306 306 307 305 305 307 306 306 306 309 310 309 305 306 309 309 308 307 307 305 306 305 305 305 305 305 306 306 307 308 308 308 308 305 307 309 311 310 308 307
305 304 305 303 306 304 306 307 307 306 305 305 306 306 305 308 311 309 305 308 308 308 307 306 307 306 305 305 304 305 305 305 305 305 306 306 307 307 306 307 306 306 310 309 309 308 307
305 305 304 304 305 304 303 304 303 304 304 305 306 305 305 306 307 306 305 306 306 307 307 305 306 306 306 306 307 306 306 306 307 308 306 308 309 307 306 308 309 310 310 310 310 309 309
304 304 304 304 305 304 305 305 305 304 305 305 305 305 305 306 306 306 305 306 305 305 309 307 306 308 308 307 308 308 306 307 309 311 311 311 310 309 309 309 309 311 310 310 312 312 310
304 305 304 304 305 304 305 304 303 304 304 305 304 304 305 308 307 305 306 305 306 305 315 308 309 309 308 307 309 308 307 308 309 310 310 310 308 310 310 310 309 310 310 310 311 313 317
303 304 304 304 304 305 304 303 305 304 304 302 304 306 308 307 306 305 306 305 306 305 319 308 309 307 309 310 311 310 306 306 310 311 308 313 312 309 309 310 309 308 310 317 312 317 316
301 302 304 304 305 305 304 304 304 304 304 302 304 304 306 306 306 305 305 305 305 312 311 308 310 311 311 311 312 310 309 307 308 310 310 311 310 311 311 313 313 312 314 315 313 316 324
305 302 302 304 305 304 305 304 305 304 304 303 302 305 307 305 306 304 305 305 312 316 305 310 312 311 312 314 313 314 315 314 315 317 313 315 315 313 313 316 314 313 315 322 324 325 326
310 304 302 304 304 303 302 303 305 303 303 302 304 305 305 305 304 303 304 310 312 308 311 310 311 311 314 312 313 313 317 317 315 315 317 318 313 316 316 315 315 317 319 323 326 327 326
311 310 303 304 303 303 303 304 304 302 302 305 305 305 303 304 304 303 308 315 313 311 309 311 311 313 314 312 312 314 315 316 315 313 318 322 319 316 316 317 318 319 319 315 322 318 322
312 310 303 304 304 304 303 303 302 301 303 305 305 303 303 304 304 305 312 312 310 307 310 310 312 311 313 313 314 314 316 314 315 313 313 316 320 317 317 317 318 318 314 318 320 326 325
311 308 303 302 304 301 301 301 302 301 304 305 305 305 303 303 303 307 314 311 309 308 310 312 312 312 312 313 313 314 315 315 313 314 313 315 319 318 318 317 317 318 316 316 314 315 316
309 306 304 303 304 303 302 302 302 304 305 305 305 306 303 303 309 309 311 309 308 310 311 312 312 312 313 313 314 314 314 315 313 313 315 313 316 318 319 315 313 314 314 314 316 319 314
307 308 304 304 302 302 303 303 304 304 305 305 305 305 303 304 313 310 309 310 310 312 312 313 313 312 312 313 315 314 313 314 313 313 312 312 314 315 318 316 314 315 314 314 316 317 315
306 307 308 304 304 303 304 304 304 305 305 306 307 307 305 306 308 308 311 311 310 311 312 312 312 312 312 312 312 314 313 314 313 311 312 312 313 314 314 316 315 314 314 314 317 314 315
306 305 306 308 306 305 305 305 304 304 305 307 309 306 306 309 308 309 310 311 310 312 311 311 312 312 312 312 312 313 313 313 312 312 312 313 313 309 312 313 313 312 313 313 313 314 314
307 306 305 305 308 306 304 305 305 305 305 307 311 308 306 307 307 309 309 312 310 311 312 311 313 312 312 313 313 313 312 312 312 312 312 312 313 312 312 311 311 310 310 312 312 313 313
306 306 306 306 305 305 306 307 307 305 305 309 306 306 307 307 307 308 310 312 310 311 311 311 311 312 312 311 310 310 310 310 311 311 312 311 312 312 314 311 309 312 309 310 310 310 312
304 307 306 307 304 303 300 301 303 304 304 306 306 307 308 307 307 308 310 311 311 312 313 311 311 312 309 308 307 308 310 311 310 310 309 311 311 311 309 308 309 309 308 308 309 310 310
303 305 307 305 307 303 302 303 304 301 302 305 303 305 307 307 306 307 309 311 311 310 311 312 310 308 307 308 312 311 312 312 311 310 309 308 310 309 310 307 308 308 307 308 309 310 309
301 303 305 306 302 306 303 304 305 304 302 302 301 302 306 306 306 307 308 311 310 311 311 311 308 307 308 311 311 311 309 309 309 310 309 309 309 309 308 310 309 309 308 307 307 309 307
299 302 304 306 306 303 305 306 305 305 304 302 300 299 303 306 302 303 309 310 309 311 311 310 309 310 308 311 312 311 309 308 310 309 310 310 309 309 310 309 309 308 307 307 310 310 307
299 304 306 307 307 307 306 306 305 305 305 305 302 299 302 304 301 301 301 306 308 309 312 310 310 310 311 312 311 310 308 309 308 309 309 309 308 309 309 310 308 306 307 308 307 306 305
301 305 307 309 307 307 307 306 306 305 306 306 304 301 300 301 300 299 298 298 298 300 304 307 309 310 310 312 309 308 308 307 307 307 307 307 307 308 308 309 307 305 307 306 305 304 304

GFSGBSN_925_thetae_111.txt.gz
Theta_e
309 307 307 308 308 309 308 308 308 308 306 308 308 308 307 307 308 310 314 316 315 312 311 309 307 309 307 308 308 313 312 313 309 306 305 304 304 304 304 303 303 303 303 304 305 306 306
308 307 306 305 307 307 308 308 307 307 306 307 308 308 307 307 308 309 311 317 314 311 309 307 310 307 307 304 310 310 309 310 307 305 304 305 305 305 304 304 304 303 305 305 306 306 305
307 307 306 305 306 307 307 305 306 306 305 306 308 308 307 307 307 311 313 313 313 310 309 310 307 308 308 302 305 306 308 306 305 305 305 305 305 305 305 305 304 305 305 305 305 306 307
306 306 306 306 306 306 307 304 305 305 307 306 308 308 307 307 307 310 314 312 310 309 309 309 308 309 307 305 305 304 304 304 305 305 305 304 304 305 305 304 305 305 304 305 305 306 306
306 306 306 305 305 305 306 306 304 305 307 307 308 308 307 306 307 308 312 308 306 307 307 308 309 308 306 303 303 304 304 304 305 305 305 305 305 305 305 306 306 305 304 306 307 306 307
306 306 306 305 305 305 305 306 306 307 306 306 307 307 306 305 306 310 307 305 307 308 308 309 308 306 305 306 303 303 303 305 305 306 307 306 305 304 305 308 304 300 306 307 308 307 307
305 306 305 305 305 306 305 303 303 305 305 307 306 306 302 312 311 309 307 310 308 308 308 305 306 306 305 304 304 304 304 304 304 304 305 306 305 305 304 305 304 305 306 306 306 308 309
304 306 305 305 306 306 306 305 305 304 305 306 306 305 303 309 308 307 307 307 305 305 306 306 306 306 306 306 307 306 305 305 306 305 306 306 307 306 305 306 306 309 310 309 308 307 309
304 304 305 305 306 306 306 305 305 305 305 305 305 304 302 309 307 306 306 306 305 305 306 307 306 308 307 306 308 307 305 307 308 309 308 308 307 309 309 309 310 309 309 309 307 309 309
304 304 305 305 305 306 304 303 304 305 305 302 305 303 304 306 307 306 307 306 305 304 307 308 308 308 307 306 310 307 307 308 309 308 310 308 308 309 310 311 310 310 308 311 313 311 307
307 302 304 305 305 306 304 304 306 305 301 303 307 308 307 307 306 306 306 305 305 304 305 307 309 307 308 310 310 309 306 306 311 311 309 312 311 312 309 308 308 310 308 310 311 314 313
312 303 303 305 303 303 305 306 305 303 302 303 306 306 307 307 306 305 306 305 305 307 300 303 309 310 310 310 312 309 308 307 308 310 310 310 310 310 311 311 312 314 312 314 314 315 317
310 303 303 305 306 306 306 306 305 302 302 303 306 307 306 306 304 305 305 304 304 299 302 307 308 311 311 313 313 313 314 313 315 314 309 314 313 311 311 316 315 314 314 318 317 317 323
308 302 302 305 304 305 306 305 305 302 301 304 306 307 305 304 303 304 305 302 301 307 307 309 311 311 312 312 312 314 316 316 315 314 312 315 308 314 316 315 315 314 316 321 324 323 324
306 302 304 305 304 304 305 304 303 304 304 305 305 304 303 304 304 304 302 302 303 308 309 311 310 311 312 311 311 312 313 314 313 311 314 317 313 314 315 316 318 319 321 315 321 321 318
305 304 305 305 305 305 305 303 302 304 304 304 304 304 303 303 304 304 302 307 305 307 309 309 311 310 311 311 312 313 314 313 313 312 312 315 318 316 317 317 317 319 316 318 317 323 324
304 303 305 305 304 303 303 302 302 305 305 305 304 305 303 303 303 301 303 306 308 308 310 311 311 310 310 311 311 312 313 313 312 312 311 313 317 315 316 316 315 315 316 314 313 315 321
305 304 303 303 303 303 302 302 303 304 305 304 303 305 303 303 302 303 305 308 308 309 310 311 310 310 311 311 312 312 314 314 311 311 313 311 313 311 316 313 312 312 314 312 312 317 313
307 305 303 302 302 303 302 302 304 305 305 305 303 304 304 304 302 303 307 309 310 311 311 311 311 311 311 312 313 312 313 312 312 312 311 310 310 309 310 309 309 314 312 313 313 310 312
306 307 306 304 303 303 303 303 305 305 305 306 302 305 301 301 302 305 309 309 310 310 311 310 311 310 310 311 311 312 312 312 312 310 312 311 310 310 310 311 312 311 312 311 311 308 313
305 305 307 307 305 303 303 304 304 305 305 306 303 302 301 300 304 307 307 309 310 312 310 310 311 310 311 311 311 311 310 310 311 311 311 310 310 306 311 312 311 309 311 311 308 311 308
306 304 305 307 305 303 303 304 304 304 305 306 307 302 301 302 304 307 308 310 309 310 311 311 311 310 309 311 311 312 311 310 311 309 310 308 309 310 311 309 309 308 308 310 311 311 310
307 306 303 305 306 306 306 306 306 306 305 306 307 305 302 303 303 305 306 310 310 311 310 309 310 310 310 310 308 306 306 308 309 310 309 309 308 307 312 309 308 309 308 309 309 309 310
304 306 306 302 302 306 306 304 304 304 303 304 304 304 302 303 303 305 309 310 310 311 311 310 308 310 308 305 305 307 306 307 309 308 306 309 308 307 304 304 305 308 307 307 308 310 309
302 305 306 305 303 302 302 302 304 302 302 304 303 303 302 303 302 304 308 309 309 309 310 310 309 306 304 307 308 307 308 308 309 308 308 306 307 307 307 305 305 307 306 307 308 308 308
299 302 305 306 305 303 304 304 304 304 302 302 300 302 301 302 301 302 305 307 307 307 308 310 307 305 307 308 308 309 306 307 307 306 308 308 306 306 306 308 307 305 306 306 305 306 305
295 299 303 305 306 305 303 304 304 305 304 301 300 300 302 301 299 300 304 306 306 307 307 308 308 308 307 307 309 307 306 306 308 308 309 306 306 306 307 305 306 307 306 305 308 305 305
294 299 304 305 306 306 305 304 305 305 305 305 302 300 302 299 298 299 299 301 301 305 308 306 306 306 307 309 308 307 306 306 305 305 307 306 305 306 305 308 305 304 306 304 302 304 304
294 300 305 307 308 307 306 307 305 305 306 305 304 301 301 300 300 299 299 299 298 298 299 303 306 306 307 307 305 304 306 303 303 305 305 305 304 305 305 306 303 302 304 303 303 303 302

GFSGBSN_925_thetae_114.txt.gz
Theta_e
310 307 307 308 307 307 307 308 308 308 308 307 308 307 308 307 308 308 310 314 318 316 313 310 309 310 306 307 308 310 313 311 307 305 304 304 303 303 303 303 303 303 303 305 305 306 305
306 307 307 307 307 307 307 308 306 306 307 306 307 307 308 308 307 308 310 313 318 314 312 309 310 308 307 304 312 312 312 307 304 304 304 304 304 304 303 304 304 303 304 304 305 305 305
307 308 308 308 307 307 307 307 306 305 306 306 306 307 308 308 307 309 310 316 313 311 310 311 308 308 305 302 310 309 307 306 305 304 305 305 304 304 304 304 304 304 304 303 303 304 305
307 307 307 307 306 306 305 306 305 304 306 306 306 306 308 308 307 309 313 313 310 308 311 310 308 308 305 304 306 307 305 305 304 304 304 304 304 304 304 303 304 304 303 304 303 305 306
307 307 307 306 306 306 305 305 304 305 305 306 307 308 306 305 306 307 312 311 309 310 310 309 308 307 305 303 304 304 304 304 305 305 305 305 305 304 304 304 301 302 302 303 305 306 306
307 306 306 305 307 307 305 304 304 306 306 306 307 305 302 306 308 310 308 307 308 308 308 308 308 304 304 305 302 303 303 304 305 305 306 305 302 301 302 298 300 299 300 303 304 304 304
306 305 306 305 306 306 305 303 303 304 306 307 306 303 311 311 309 306 308 308 307 307 307 305 305 305 305 304 304 304 304 304 304 304 305 305 303 303 300 304 303 303 304 305 305 305 306
311 305 306 306 306 306 306 305 306 304 306 306 304 310 310 309 308 308 307 306 305 305 305 305 305 305 305 305 306 305 304 305 305 303 304 303 305 303 304 304 305 306 308 307 306 307 307
311 305 305 307 307 305 306 305 306 306 305 303 303 306 309 308 307 307 306 305 305 305 304 306 305 307 306 306 307 306 305 306 307 308 308 306 304 308 308 307 307 307 307 307 307 307 308
307 304 306 306 306 304 306 306 306 303 305 307 302 306 308 307 308 307 307 305 305 304 300 307 308 308 307 306 308 306 307 307 308 308 308 308 306 307 309 310 308 309 307 308 309 313 307
305 303 306 306 306 306 306 306 303 305 306 305 302 303 306 307 306 307 306 304 304 304 300 306 309 307 307 309 309 309 306 307 310 310 307 309 310 310 311 309 308 309 309 310 312 316 314
303 306 307 307 306 306 306 305 305 305 306 306 307 307 306 306 306 305 305 305 304 301 301 302 309 309 309 310 310 308 308 307 308 310 309 309 309 310 310 309 309 310 314 313 315 315 313
306 306 306 306 306 306 305 305 303 303 306 306 306 306 305 305 303 304 305 303 301 301 301 305 308 310 310 312 313 312 313 312 314 312 304 312 312 310 310 313 315 314 314 316 316 315 315
306 305 305 305 306 306 305 305 304 303 306 306 306 305 303 303 303 304 305 299 301 305 305 307 310 310 311 311 312 315 316 315 312 315 311 314 309 313 314 316 314 314 315 320 322 320 322
305 306 305 305 306 305 304 305 305 305 305 305 305 305 303 303 304 304 299 300 302 307 307 310 309 311 310 310 311 314 313 312 312 311 313 314 311 312 313 316 315 320 321 316 320 321 316
303 305 303 304 305 302 302 304 304 304 304 304 304 304 303 304 304 303 301 306 305 306 309 309 310 309 311 311 311 311 312 312 312 311 310 314 317 314 316 316 316 318 316 319 316 323 319
302 303 303 302 302 301 301 303 304 304 305 304 304 301 303 304 304 300 302 305 307 307 309 310 311 310 310 311 310 312 312 313 311 312 310 312 315 315 314 314 314 314 315 314 314 318 320
303 301 301 302 302 302 301 303 305 305 306 303 302 300 303 304 302 299 305 308 308 308 309 311 309 310 311 311 311 311 313 312 311 311 313 310 311 311 313 312 310 311 313 311 312 315 313
308 305 303 302 302 302 301 304 305 305 306 304 300 300 303 304 302 302 306 308 309 310 311 310 310 310 310 311 312 311 312 311 311 311 310 310 309 308 305 306 308 312 310 310 310 307 312
306 307 305 303 302 302 303 305 305 305 305 306 299 299 298 298 300 304 308 308 308 309 310 309 310 309 309 309 309 312 311 311 311 310 311 309 308 309 304 309 310 311 310 309 308 305 311
306 306 307 306 303 302 303 304 304 305 305 306 299 300 300 300 303 305 306 308 310 310 309 308 310 309 310 310 310 310 310 309 309 309 310 308 309 305 309 310 310 308 308 309 308 309 309
306 305 305 306 304 302 303 304 304 305 305 308 303 304 300 301 301 304 305 309 309 309 310 310 310 309 308 311 310 310 309 309 310 308 308 306 308 309 310 308 307 308 307 309 309 310 309
306 305 303 304 305 305 305 305 305 305 305 306 306 303 300 302 302 303 304 309 309 310 309 309 309 310 309 309 308 306 305 304 306 309 308 307 307 306 311 305 306 308 308 308 308 309 309
303 305 305 302 301 302 302 302 302 302 302 304 304 302 300 303 302 304 305 309 309 309 310 309 308 309 307 303 304 305 304 305 305 307 305 308 306 305 304 302 303 305 306 306 307 309 308
299 303 305 305 303 302 303 304 304 302 302 303 303 302 300 303 300 302 304 308 307 306 308 309 308 306 302 306 306 305 304 306 308 306 306 304 304 305 305 304 301 305 305 307 306 305 306
294 300 303 304 306 303 304 304 304 304 302 302 301 302 301 301 300 301 303 305 307 305 305 308 306 305 305 306 306 308 305 306 305 303 306 305 302 304 303 305 306 301 305 304 303 303 304
295 294 300 302 304 305 304 303 304 305 302 301 301 301 302 300 298 299 302 304 304 305 305 305 306 306 305 306 308 306 306 305 305 308 306 305 304 305 305 304 305 302 304 304 303 299 304
296 293 298 302 305 306 305 304 303 305 305 304 302 300 302 298 297 298 299 301 302 302 306 305 305 303 305 307 307 306 304 304 305 303 306 304 304 304 303 306 304 303 304 304 300 303 303
296 294 298 304 306 307 308 306 305 304 306 305 304 302 300 300 299 299 299 300 300 301 301 301 304 304 304 305 304 302 305 302 302 304 302 306 303 304 303 304 301 302 303 301 302 303 302

GFSGBSN_925_thetae_117.txt.gz
Theta_e
308 308 309 308 305 307 307 307 307 306 307 307 309 308 308 308 307 308 309 311 316 318 315 312 312 309 306 305 310 310 312 310 305 303 303 303 303 302 303 303 302 302 302 304 304 305 305
309 308 308 308 308 307 307 307 307 307 307 307 307 307 308 308 308 308 308 310 315 317 312 312 312 307 306 307 311 313 308 305 304 304 304 303 304 303 303 303 303 302 303 302 303 304 304
309 308 308 307 307 306 306 305 306 304 306 306 306 306 307 308 308 308 310 311 316 314 312 312 308 306 303 307 311 309 310 305 304 304 304 304 304 303 303 303 303 303 302 302 302 302 303
310 307 307 306 307 307 305 305 305 304 306 306 306 307 308 307 305 311 313 314 311 310 312 311 307 306 304 304 309 307 305 304 304 304 304 304 303 303 302 303 302 303 302 303 302 303 304
310 307 307 307 307 307 306 304 304 304 305 305 307 307 306 305 303 312 311 310 309 309 311 308 307 304 304 304 306 305 304 304 304 304 305 305 304 303 303 301 298 300 301 302 303 304 305
309 306 307 307 307 306 305 306 306 306 306 307 306 305 304 310 310 311 309 310 308 309 308 307 305 301 303 303 303 304 303 304 305 305 304 304 300 300 299 297 299 298 297 301 303 303 303
306 306 308 307 307 306 305 306 306 307 307 305 305 306 306 309 309 309 307 308 307 307 305 305 305 304 304 303 303 303 304 304 303 303 305 304 299 302 300 302 302 303 303 304 304 304 305
306 307 307 306 306 306 306 306 307 307 305 308 310 312 306 308 309 308 307 305 305 305 304 304 304 304 304 305 305 304 304 304 304 303 304 303 304 302 302 303 304 303 306 305 304 305 305
307 307 307 307 307 307 307 307 306 305 305 306 309 308 307 306 308 305 305 305 304 304 303 306 305 306 305 305 306 306 304 306 307 307 307 308 303 307 307 307 308 307 307 307 306 306 306
307 307 307 307 306 307 306 305 306 306 305 306 308 309 307 307 307 306 306 304 304 304 302 307 307 307 306 306 307 306 307 307 308 307 308 307 305 307 307 308 308 307 306 307 308 310 311
307 307 307 307 307 306 305 305 307 307 303 306 307 307 307 307 306 306 305 304 304 302 305 305 308 306 306 309 308 309 306 306 309 309 307 305 308 309 310 310 308 307 308 310 313 315 316
305 306 306 307 306 305 305 306 307 307 307 307 306 306 306 306 306 304 304 304 303 299 300 303 308 308 309 309 310 308 309 308 308 311 310 310 308 309 310 309 308 308 311 313 315 315 312
303 305 307 306 306 305 305 303 306 307 305 305 305 306 306 305 303 304 304 302 300 302 301 305 308 309 310 312 312 312 312 313 314 312 305 312 311 309 309 312 314 313 313 312 310 307 313
304 303 305 306 305 304 305 303 306 306 304 304 304 303 303 303 303 304 303 299 302 305 304 306 308 309 310 310 312 314 315 316 311 314 314 312 310 311 311 314 315 315 315 319 320 320 315
303 303 303 303 303 302 304 303 304 304 304 304 305 304 304 304 304 304 298 300 302 305 306 309 309 310 309 309 311 315 313 311 310 309 311 312 311 310 312 315 315 318 320 316 319 320 313
304 302 302 302 301 301 303 304 305 306 305 304 304 303 303 304 304 303 300 304 304 303 308 308 310 308 310 310 310 310 311 311 312 310 308 311 315 313 314 314 315 318 316 319 314 321 319
302 302 302 301 301 301 304 304 306 306 304 304 303 300 304 303 305 299 302 303 306 306 308 310 310 310 309 310 310 311 311 311 311 311 309 311 313 311 312 313 314 312 314 315 313 317 317
304 302 302 302 301 301 305 305 305 305 305 303 301 300 304 304 301 298 304 307 308 309 308 310 309 309 310 310 310 311 312 310 309 310 312 310 309 310 311 310 310 310 312 310 310 315 312
308 305 302 302 301 302 305 306 305 305 306 303 299 299 303 303 302 302 305 307 308 310 310 310 310 309 309 310 311 311 310 310 310 310 310 309 307 306 305 305 307 311 309 309 308 309 311
306 307 304 303 301 302 304 305 305 305 306 304 297 300 299 297 298 303 305 306 307 307 309 308 309 308 308 309 308 310 309 309 308 309 311 308 307 307 304 307 308 309 307 308 307 304 310
305 306 307 305 302 302 303 304 304 305 306 306 297 300 299 300 302 303 304 306 308 308 307 307 308 308 309 310 309 310 309 307 308 308 308 307 308 305 306 307 308 308 307 307 305 308 308
306 305 305 306 303 302 303 303 305 305 305 306 302 301 298 299 300 303 303 307 307 308 308 309 310 308 308 309 309 309 309 308 309 306 307 305 307 307 309 307 305 307 306 307 309 309 308
304 306 304 305 305 304 305 305 304 304 305 306 304 302 299 301 300 302 304 307 308 309 308 308 308 309 308 308 307 305 304 304 305 307 307 306 306 306 308 304 303 304 305 307 308 308 308
298 304 306 303 303 303 303 302 302 302 301 304 303 301 299 303 300 302 304 305 308 308 309 308 307 308 307 302 302 303 302 303 303 304 303 306 305 304 304 301 298 301 304 305 306 305 306
295 299 304 305 303 303 303 303 303 302 302 302 303 302 299 301 299 301 302 304 306 305 307 308 307 305 302 304 306 304 302 304 306 305 304 303 303 305 303 302 300 302 305 306 307 304 304
296 294 300 303 305 303 303 303 304 304 302 302 301 301 300 300 300 301 302 303 304 305 304 306 305 304 304 304 304 308 304 305 304 302 304 302 301 303 303 304 302 299 303 303 302 302 301
301 296 294 300 302 304 305 303 304 305 304 301 300 300 301 299 297 299 301 303 303 303 304 303 306 305 303 304 308 306 306 303 305 306 305 304 304 305 304 303 302 300 304 301 301 298 302
306 296 295 294 299 302 304 305 304 304 305 303 302 300 301 297 297 297 299 300 301 302 306 304 304 302 304 306 307 305 303 303 304 303 305 303 303 303 302 305 303 302 303 304 299 302 302
307 305 296 294 299 304 305 306 305 303 305 305 304 302 299 299 298 299 300 301 301 301 301 300 302 303 303 304 302 301 305 300 301 305 300 303 302 302 302 303 300 300 302 301 300 303 303